[[{"header":{"parameterUnit":"m.s-1","parameterCategory":1,"la1":30.6,"la2":28.766,"lo1":-90.7593,"lo2":-88.6598,"dy":0.0162,"dx":0.0183,"nx":116,"ny":114,"refTime":"2024-03-31T12:00:00:Z","depth":0,"parameterNumber":2,"parameterNumberName":"U-component_of_WINDS"},"data":[0.0,0.0,0.0,0.0,0.0,0.0,0.0,0.0,0.0,0.0,0.0,0.0,0.0,0.0,0.0,0.0,0.0,0.0,0.0,0.0,0.0,0.0,0.0,0.0,0.0,0.0,0.0,0.0,0.0,0.0,0.0,0.0,0.0,0.0,0.0,0.0,0.0,0.0,0.0,0.0,0.0,0.0,0.0,0.0,0.0,0.0,0.0,0.0,0.0,0.0,0.0,0.0,0.0,0.0,0.0,0.0,0.0,0.0,0.0,0.0,0.0,0.0,0.0,0.0,0.0,0.0,0.0,0.0,0.0,0.0,0.0,0.0,0.0,0.0,0.0,0.0,0.0,0.0,0.0,0.0,0.0,0.0,0.0,0.0,0.0,0.0,0.0,0.0,0.0,0.0,0.0,0.0,0.0,0.0,0.0,0.0,0.0,0.0,0.0,0.0,0.0,0.0,0.0,0.0,0.0,0.0,0.0,0.0,0.0,0.0,0.0,0.0,0.0,0.0,0.0,0.0,0.0,0.0,0.0,0.0,0.0,0.0,0.0,0.0,0.0,0.0,0.0,0.0,0.0,0.0,0.0,0.0,0.0,0.0,0.0,0.0,0.0,0.0,0.0,0.0,0.0,0.0,0.0,0.0,0.0,0.0,0.0,0.0,0.0,0.0,0.0,0.0,0.0,0.0,0.0,0.0,0.0,0.0,0.0,0.0,0.0,0.0,0.0,0.0,0.0,0.0,0.0,0.0,0.0,0.0,0.0,0.0,0.0,0.0,0.0,0.0,0.0,0.0,0.0,0.0,0.0,0.0,0.0,0.0,0.0,0.0,0.0,0.0,0.0,0.0,0.0,0.0,0.0,0.0,0.0,0.0,0.0,0.0,0.0,0.0,0.0,0.0,0.0,0.0,0.0,0.0,0.0,0.0,0.0,0.0,0.0,0.0,0.0,0.0,0.0,0.0,0.0,0.0,0.0,0.0,0.0,0.0,0.0,0.0,0.0,0.0,0.0,0.0,0.0,0.0,0.0,0.0,0.0,0.0,0.0,0.0,0.0,0.0,0.0,0.0,0.0,0.0,0.0,0.0,0.0,0.0,0.0,0.0,0.0,0.0,0.0,0.0,0.0,0.0,0.0,0.0,0.0,0.0,0.0,0.0,0.0,0.0,0.0,0.0,0.0,0.0,0.0,0.0,0.0,0.0,0.0,0.0,0.0,0.0,0.0,0.0,0.0,0.0,0.0,0.0,0.0,0.0,0.0,0.0,0.0,0.0,0.0,0.0,0.0,0.0,0.0,0.0,0.0,0.0,0.0,0.0,0.0,0.0,0.0,0.0,0.0,0.0,0.0,0.0,0.0,0.0,0.0,0.0,0.0,0.0,0.0,0.0,0.0,0.0,0.0,0.0,0.0,0.0,0.0,0.0,0.0,0.0,0.0,0.0,0.0,0.0,0.0,0.0,0.0,0.0,0.0,0.0,0.0,0.0,0.0,0.0,0.0,0.0,0.0,0.0,0.0,0.0,0.0,0.0,0.0,0.0,0.0,0.0,0.0,0.0,0.0,0.0,0.0,0.0,0.0,0.0,0.0,0.0,0.0,0.0,0.0,0.0,0.0,0.0,0.0,0.0,0.0,0.0,0.0,0.0,0.0,0.0,0.0,0.0,0.0,0.0,0.0,0.0,0.0,0.0,0.0,0.0,0.0,0.0,0.0,0.0,0.0,0.0,0.0,0.0,0.0,0.0,0.0,0.0,0.0,0.0,0.0,0.0,0.0,0.0,0.0,0.0,0.0,0.0,0.0,0.0,0.0,0.0,0.0,0.0,0.0,0.0,0.0,0.0,0.0,0.0,0.0,0.0,0.0,0.0,0.0,0.0,0.0,0.0,0.0,0.0,0.0,0.0,0.0,0.0,0.0,0.0,0.0,0.0,0.0,0.0,0.0,0.0,0.0,0.0,0.0,0.0,0.0,0.0,0.0,0.0,0.0,0.0,0.0,0.0,0.0,0.0,0.0,0.0,0.0,0.0,0.0,0.0,0.0,0.0,0.0,0.0,0.0,0.0,0.0,0.0,0.0,0.0,0.0,0.0,0.0,0.0,0.0,0.0,0.0,0.0,0.0,0.0,0.0,0.0,0.0,0.0,0.0,0.0,0.0,0.0,0.0,0.0,0.0,0.0,0.0,0.0,0.0,0.0,0.0,0.0,0.0,0.0,0.0,0.0,0.0,0.0,0.0,0.0,0.0,0.0,0.0,0.0,0.0,0.0,0.0,0.0,0.0,0.0,0.0,0.0,0.0,0.0,0.0,0.0,0.0,0.0,0.0,0.0,0.0,0.0,0.0,0.0,0.0,0.0,0.0,0.0,0.0,0.0,0.0,0.0,0.0,0.0,0.0,0.0,0.0,0.0,0.0,0.0,0.0,0.0,0.0,0.0,0.0,0.0,0.0,0.0,0.0,0.0,0.0,0.0,0.0,0.0,0.0,0.0,0.0,0.0,0.0,0.0,0.0,0.0,0.0,0.0,0.0,0.0,0.0,0.0,0.0,0.0,0.0,0.0,0.0,0.0,0.0,0.0,0.0,0.0,0.0,0.0,0.0,0.0,0.0,0.0,0.0,0.0,0.0,0.0,0.0,0.0,0.0,0.0,0.0,0.0,0.0,0.0,0.0,0.0,0.0,0.0,0.0,0.0,0.0,0.0,0.0,0.0,0.0,0.0,0.0,0.0,0.0,0.0,0.0,0.0,0.0,0.0,0.0,0.0,0.0,0.0,0.0,0.0,0.0,0.0,0.0,0.0,0.0,0.0,0.0,0.0,0.0,0.0,0.0,0.0,0.0,0.0,0.0,0.0,0.0,0.0,0.0,0.0,0.0,0.0,0.0,0.0,0.0,0.0,0.0,0.0,0.0,0.0,0.0,0.0,0.0,0.0,0.0,0.0,0.0,0.0,0.0,0.0,0.0,0.0,0.0,0.0,0.0,0.0,0.0,0.0,0.0,0.0,0.0,0.0,0.0,0.0,0.0,0.0,0.0,0.0,0.0,0.0,0.0,0.0,0.0,0.0,0.0,0.0,0.0,0.0,0.0,0.0,0.0,0.0,0.0,0.0,0.0,0.0,0.0,0.0,0.0,0.0,0.0,0.0,0.0,0.0,0.0,0.0,0.0,0.0,0.0,0.0,0.0,0.0,0.0,0.0,0.0,0.0,0.0,0.0,0.0,0.0,0.0,0.0,0.0,0.0,0.0,0.0,0.0,0.0,0.0,0.0,0.0,0.0,0.0,0.0,0.0,0.0,0.0,0.0,0.0,0.0,0.0,0.0,0.0,0.0,0.0,0.0,0.0,0.0,0.0,0.0,0.0,0.0,0.0,0.0,0.0,0.0,0.0,0.0,0.0,0.0,0.0,0.0,0.0,0.0,0.0,0.0,0.0,0.0,0.0,0.0,0.0,0.0,0.0,0.0,0.0,0.0,0.0,0.0,0.0,0.0,0.0,0.0,0.0,0.0,0.0,0.0,0.0,0.0,0.0,0.0,0.0,0.0,0.0,0.0,0.0,0.0,0.0,0.0,0.0,0.0,0.0,0.0,0.0,0.0,0.0,0.0,0.0,0.0,0.0,0.0,0.0,0.0,0.0,0.0,0.0,0.0,0.0,0.0,0.0,0.0,0.0,0.0,0.0,0.0,0.0,0.0,0.0,0.0,0.0,0.0,0.0,0.0,0.0,0.0,0.0,0.0,0.0,0.0,0.0,0.0,0.0,0.0,0.0,0.0,0.0,0.0,0.0,0.0,0.0,0.0,0.0,0.0,0.0,0.0,0.0,0.0,0.0,0.0,0.0,0.0,0.0,0.0,0.0,0.0,0.0,0.0,0.0,0.0,0.0,0.0,0.0,0.0,0.0,0.0,0.0,0.0,0.0,0.0,0.0,0.0,0.0,0.0,0.0,0.0,0.0,0.0,0.0,0.0,0.0,0.0,0.0,0.0,0.0,0.0,0.0,0.0,0.0,0.0,0.0,0.0,0.0,0.0,0.0,0.0,0.0,0.0,0.0,0.0,0.0,0.0,0.0,0.0,0.0,0.0,0.0,0.0,0.0,0.0,0.0,0.0,0.0,0.0,0.0,0.0,0.0,0.0,0.0,0.0,0.0,0.0,0.0,0.0,0.0,0.0,0.0,0.0,0.0,0.0,0.0,0.0,0.0,0.0,0.0,0.0,0.0,0.0,0.0,0.0,0.0,0.0,0.0,0.0,0.0,0.0,0.0,0.0,0.0,0.0,0.0,0.0,0.0,0.0,0.0,0.0,0.0,0.0,0.0,0.0,0.0,0.0,0.0,0.0,0.0,0.0,0.0,0.0,0.0,0.0,0.0,0.0,0.0,0.0,0.0,0.0,0.0,0.0,0.0,0.0,0.0,0.0,0.0,0.0,0.0,0.0,0.0,0.0,0.0,0.0,0.0,0.0,0.0,0.0,0.0,0.0,0.0,0.0,0.0,0.0,0.0,0.0,0.0,0.0,0.0,0.0,0.0,0.0,0.0,0.0,0.0,0.0,0.0,0.0,0.0,0.0,0.0,0.0,0.0,0.0,0.0,0.0,0.0,0.0,0.0,0.0,0.0,0.0,0.0,0.0,0.0,0.0,0.0,0.0,0.0,0.0,0.0,0.0,0.0,0.0,0.0,0.0,0.0,0.0,0.0,0.0,0.0,0.0,0.0,0.0,0.0,0.0,0.0,0.0,0.0,0.0,0.0,0.0,0.0,0.0,0.0,0.0,0.0,0.0,0.0,0.0,0.0,0.0,0.0,0.0,0.0,0.0,0.0,0.0,0.0,0.0,0.0,0.0,0.0,0.0,0.0,0.0,0.0,0.0,0.0,0.0,0.0,0.0,0.0,0.0,0.0,0.0,0.0,0.0,0.0,0.0,0.0,0.0,0.0,0.0,0.0,0.0,0.0,0.0,0.0,0.0,0.0,0.0,0.0,0.0,0.0,0.0,0.0,0.0,0.0,0.0,0.0,0.0,0.0,0.0,0.0,0.0,0.0,0.0,0.0,0.0,0.0,0.0,0.0,0.0,0.0,0.0,0.0,0.0,0.0,0.0,0.0,0.0,0.0,0.0,0.0,0.0,0.0,0.0,0.0,0.0,0.0,0.0,0.0,0.0,0.0,0.0,0.0,0.0,0.0,0.0,0.0,0.0,0.0,0.0,0.0,0.0,0.0,0.0,0.0,0.0,0.0,0.0,0.0,0.0,0.0,0.0,0.0,0.0,0.0,0.0,0.0,0.0,0.0,0.0,0.0,0.0,0.0,0.0,0.0,0.0,0.0,0.0,0.0,0.0,0.0,0.0,0.0,0.0,0.0,0.0,0.0,0.0,0.0,0.0,0.0,0.0,0.0,0.0,0.0,0.0,0.0,0.0,0.0,0.0,0.0,0.0,0.0,0.0,0.0,0.0,0.0,0.0,0.0,0.0,0.0,0.0,0.0,0.0,0.0,0.0,0.0,0.0,0.0,0.0,0.0,0.0,0.0,0.0,0.0,0.0,0.0,0.0,0.0,0.0,0.0,0.0,0.0,0.0,0.0,0.0,0.0,0.0,0.0,0.0,0.0,0.0,0.0,0.0,0.0,0.0,0.0,0.0,0.0,0.0,0.0,0.0,0.0,0.0,0.0,0.0,0.0,0.0,0.0,0.0,0.0,0.0,0.0,0.0,0.0,0.0,0.0,0.0,0.0,0.0,0.0,0.0,0.0,0.0,0.0,0.0,0.0,0.0,0.0,0.0,0.0,0.0,0.0,0.0,0.0,0.0,0.0,0.0,0.0,0.0,0.0,0.0,0.0,0.0,0.0,0.0,0.0,0.0,0.0,0.0,0.0,0.0,0.0,0.0,0.0,0.0,0.0,0.0,0.0,0.0,0.0,0.0,0.0,0.0,0.0,0.0,0.0,0.0,0.0,0.0,0.0,0.0,0.0,0.0,0.0,0.0,0.0,0.0,0.0,0.0,0.0,0.0,0.0,0.0,0.0,0.0,0.0,0.0,0.0,0.0,0.0,0.0,0.0,0.0,0.0,0.0,0.0,0.0,0.0,0.0,0.0,0.0,0.0,0.0,0.0,0.0,6.201,6.3012,0.0,0.0,0.0,0.0,0.0,0.0,0.0,0.0,0.0,0.0,0.0,0.0,0.0,0.0,0.0,0.0,0.0,0.0,0.0,0.0,0.0,0.0,0.0,6.1873,6.2178,6.2922,6.2956,6.3294,6.4038,0.0,0.0,0.0,0.0,0.0,6.4106,6.4816,6.5358,6.5764,6.6474,6.644,6.5662,6.529,6.4512,6.3463,0.0,0.0,0.0,0.0,0.0,0.0,0.0,0.0,0.0,0.0,0.0,0.0,0.0,0.0,0.0,0.0,0.0,0.0,0.0,0.0,0.0,0.0,0.0,0.0,0.0,0.0,0.0,0.0,0.0,0.0,0.0,0.0,0.0,0.0,0.0,0.0,0.0,0.0,0.0,0.0,0.0,0.0,0.0,0.0,0.0,0.0,0.0,0.0,0.0,0.0,0.0,0.0,0.0,0.0,0.0,0.0,0.0,0.0,0.0,0.0,0.0,0.0,0.0,0.0,0.0,0.0,0.0,0.0,0.0,0.0,6.1438,6.1652,0.0,0.0,0.0,0.0,0.0,0.0,0.0,0.0,0.0,0.0,0.0,0.0,0.0,0.0,0.0,0.0,0.0,0.0,0.0,0.0,0.0,6.1129,6.1298,6.1298,6.1603,6.2313,6.2381,6.2651,6.3294,6.2753,0.0,0.0,0.0,0.0,6.2584,6.3903,6.4647,6.4783,6.6136,6.6542,6.6068,6.5933,6.5628,6.5155,6.4783,0.0,0.0,0.0,0.0,0.0,0.0,0.0,0.0,0.0,0.0,0.0,0.0,0.0,0.0,0.0,0.0,0.0,0.0,0.0,0.0,0.0,0.0,0.0,0.0,0.0,0.0,0.0,0.0,0.0,0.0,0.0,0.0,0.0,0.0,0.0,0.0,0.0,0.0,0.0,0.0,0.0,0.0,0.0,0.0,0.0,0.0,0.0,0.0,0.0,0.0,0.0,0.0,0.0,0.0,0.0,0.0,0.0,0.0,0.0,0.0,0.0,0.0,0.0,6.1704,6.1765,6.1735,6.2128,6.1777,6.0948,6.1451,6.0944,5.9796,6.0327,0.0,0.0,0.0,0.0,0.0,0.0,0.0,0.0,0.0,0.0,0.0,0.0,0.0,0.0,0.0,0.0,0.0,0.0,0.0,6.052,6.1231,6.1298,6.1603,6.2313,6.2381,6.2415,6.2516,6.2448,0.0,0.0,0.0,6.2685,6.3362,6.4174,6.4918,6.5561,6.6406,6.7083,6.759,6.6948,6.6948,6.7387,6.5459,6.4613,6.4464,0.0,0.0,0.0,0.0,0.0,0.0,0.0,0.0,0.0,0.0,0.0,0.0,0.0,0.0,0.0,0.0,0.0,0.0,0.0,0.0,0.0,0.0,0.0,0.0,0.0,0.0,0.0,0.0,0.0,0.0,0.0,0.0,0.0,0.0,0.0,0.0,0.0,0.0,0.0,0.0,0.0,5.9488,5.8261,0.0,0.0,0.0,0.0,0.0,0.0,0.0,0.0,0.0,0.0,0.0,0.0,0.0,5.9093,6.0421,6.0434,6.0385,6.0385,6.0877,6.1177,6.1147,6.0675,6.0675,6.0997,6.0524,0.0,5.8444,5.8916,0.0,0.0,0.0,0.0,0.0,0.0,0.0,0.0,0.0,0.0,0.0,0.0,0.0,0.0,0.0,0.0,0.0,0.0,0.0,0.0,0.0,6.0622,6.1095,6.2279,6.3159,6.326,6.2448,6.3159,0.0,0.0,6.2381,6.255,6.2854,6.3599,6.4749,6.6305,6.7049,6.7827,6.8571,6.8233,6.8267,6.8538,6.7557,6.6643,6.5764,6.4052,0.0,0.0,0.0,0.0,0.0,0.0,0.0,0.0,0.0,0.0,0.0,0.0,0.0,0.0,0.0,0.0,0.0,0.0,0.0,0.0,0.0,0.0,0.0,0.0,0.0,0.0,0.0,0.0,0.0,0.0,0.0,0.0,0.0,0.0,0.0,0.0,0.0,0.0,0.0,5.8949,5.9189,5.8231,5.8112,5.7603,0.0,0.0,0.0,0.0,0.0,0.0,0.0,0.0,0.0,5.865,5.9398,6.0086,6.0655,6.1403,6.1762,6.1762,6.2061,6.2211,6.2211,6.1912,6.1942,6.2211,6.1882,6.1224,6.0236,5.941,5.8377,5.7476,0.0,0.0,0.0,0.0,5.5418,5.5748,0.0,0.0,0.0,0.0,0.0,0.0,0.0,0.0,0.0,0.0,0.0,0.0,6.0013,6.0452,6.1231,6.255,6.37,6.3869,6.2753,6.3531,6.3531,6.2448,6.2381,6.2381,6.2381,6.3497,6.5053,6.7083,6.7827,6.8605,6.9383,6.918,6.9214,6.9383,6.918,6.8368,6.7015,6.5329,6.4033,0.0,0.0,0.0,0.0,0.0,0.0,0.0,0.0,0.0,0.0,0.0,0.0,0.0,0.0,0.0,0.0,0.0,0.0,0.0,0.0,0.0,0.0,0.0,0.0,0.0,0.0,0.0,0.0,0.0,0.0,0.0,0.0,0.0,0.0,0.0,0.0,0.0,0.0,5.877,5.9249,5.8231,5.874,5.8501,0.0,0.0,0.0,0.0,0.0,0.0,5.859,5.9428,5.9937,6.0116,6.1253,6.1942,6.2121,6.3079,6.3588,6.3588,6.3588,6.3498,6.3318,6.3318,6.3228,6.3079,6.3079,6.281,6.2211,6.0386,5.883,5.7543,5.6915,5.6256,5.5688,5.5688,5.5987,5.6406,0.0,0.0,0.0,0.0,0.0,0.0,0.0,0.0,0.0,0.0,0.0,5.9302,6.0013,6.14,6.2584,6.3396,6.3531,6.3531,6.3463,6.2854,6.2482,6.2381,6.2381,6.2381,6.2381,6.4478,6.6339,6.7827,6.8639,6.9417,7.0128,6.9417,6.9451,7.0094,6.9417,6.8639,6.7708,6.5791,6.4497,6.3594,0.0,0.0,0.0,0.0,0.0,0.0,0.0,0.0,0.0,0.0,0.0,0.0,0.0,0.0,0.0,0.0,0.0,0.0,0.0,0.0,0.0,0.0,0.0,0.0,0.0,0.0,0.0,0.0,0.0,0.0,0.0,0.0,0.0,0.0,0.0,0.0,0.0,0.0,0.0,5.8351,6.0356,0.0,0.0,0.0,0.0,5.8082,5.9219,5.9937,5.9997,6.1224,6.2241,6.2869,6.3498,6.4156,6.4814,6.4904,6.4934,6.4934,6.4934,6.4575,6.3947,6.3947,6.3617,6.3079,6.3079,6.3049,6.2929,6.1583,6.0206,5.8949,5.8291,5.7603,5.7004,5.7004,5.7034,5.7034,0.0,0.0,0.0,0.0,0.0,5.7881,5.7881,5.7881,5.7881,5.7881,5.8558,5.9505,6.0757,6.1772,6.3057,6.4783,6.5358,6.5425,6.4952,6.4647,6.4106,6.3159,6.2651,6.2821,6.3802,6.5053,6.6677,6.8673,6.9417,7.0195,7.0906,7.0635,7.0669,7.0939,7.1142,7.0287,6.8559,6.7346,6.5558,6.3218,6.2041,6.0326,0.0,0.0,0.0,0.0,0.0,0.0,0.0,0.0,0.0,0.0,0.0,0.0,0.0,0.0,0.0,0.0,0.0,0.0,0.0,0.0,0.0,0.0,0.0,0.0,0.0,0.0,0.0,0.0,0.0,0.0,0.0,0.0,0.0,0.0,0.0,0.0,0.0,6.1253,6.251,0.0,6.1433,6.1134,6.0924,6.0685,6.1882,6.26,6.26,6.3887,6.4725,6.4964,6.5173,6.5622,6.6281,6.5862,6.5652,6.5652,6.4784,6.4246,6.3977,6.3588,6.3288,6.3079,6.3079,6.3079,6.3049,6.257,6.1583,6.0296,5.9189,5.8351,5.7693,5.7244,5.7363,5.7752,0.0,0.0,0.0,0.0,5.7881,5.7881,5.7881,5.7881,5.7983,5.8254,5.893,6.0047,6.1873,6.2922,6.4275,6.6271,6.6677,6.6508,6.573,6.5222,6.441,6.3193,6.2888,6.3463,6.4918,6.5933,6.7421,6.9451,7.0195,7.0838,7.1312,7.1548,7.1819,7.209,7.28,7.2022,7.0206,6.9669,6.7086,6.3372,6.2355,6.0586,5.8381,0.0,0.0,0.0,0.0,0.0,0.0,0.0,0.0,0.0,0.0,0.0,0.0,0.0,0.0,0.0,0.0,0.0,0.0,0.0,0.0,0.0,0.0,0.0,0.0,0.0,0.0,0.0,0.0,0.0,0.0,0.0,0.0,0.0,0.0,5.9877,6.1732,6.263,6.4276,6.4904,6.3827,6.3737,6.3647,6.3438,6.4605,6.5323,6.5323,6.64,6.7029,6.7029,6.7029,6.7119,6.7328,6.6879,6.655,6.6311,6.5203,6.4575,6.4336,6.3677,6.3258,6.3079,6.3079,6.3079,6.3079,6.3079,6.257,6.1642,6.0296,5.9368,5.871,5.8022,5.8052,5.8411,0.0,0.0,0.0,5.7881,5.7881,5.7881,5.7881,5.7881,5.8152,5.8896,5.9641,6.0994,6.326,6.485,6.6339,6.7827,6.7286,6.6542,6.5797,6.4377,6.3226,6.2448,0.0,0.0,6.573,6.7184,6.8673,7.0229,7.0973,7.1345,7.1379,7.2124,7.2834,7.351,7.4289,7.3763,7.2345,7.2378,6.9181,6.4073,6.2619,6.1645,6.0924,0.0,0.0,0.0,0.0,0.0,0.0,0.0,0.0,0.0,0.0,0.0,0.0,0.0,0.0,0.0,0.0,0.0,0.0,0.0,0.0,0.0,0.0,0.0,0.0,0.0,0.0,0.0,0.0,0.0,0.0,0.0,0.0,0.0,5.7244,6.1134,6.3558,6.2421,6.5682,6.7298,6.5383,6.634,6.6819,6.6191,6.7328,6.8046,6.8016,6.8675,6.9064,6.9064,6.9034,6.8675,6.8016,6.7986,6.7627,6.6939,6.6281,6.5622,6.4964,6.4276,6.3647,6.3079,6.3079,6.3079,6.3079,6.3079,6.3079,6.2959,6.1642,6.0715,6.0027,5.9368,5.9129,5.9009,0.0,0.0,5.7881,5.7881,5.7881,5.7881,5.7881,5.7881,5.7949,5.8186,5.981,6.1637,6.3328,6.529,6.732,6.9383,6.8368,6.7523,6.732,6.5425,6.3971,6.3226,0.0,0.0,6.7252,6.8267,6.9485,7.1007,7.1751,7.209,7.2124,7.3409,7.3815,7.3544,7.483,7.3974,7.1499,7.1638,6.9839,6.6761,6.5011,6.3281,6.1672,0.0,0.0,0.0,0.0,0.0,0.0,0.0,0.0,0.0,0.0,0.0,0.0,0.0,0.0,0.0,0.0,0.0,0.0,0.0,0.0,0.0,0.0,0.0,0.0,0.0,0.0,0.0,0.0,0.0,0.0,0.0,5.874,6.0176,6.0655,6.263,6.4575,6.6161,6.8136,6.9363,6.9303,6.9213,6.9093,6.8884,6.9632,6.9901,6.9423,7.0021,7.038,7.038,6.9482,6.8914,6.8704,6.8226,6.7418,6.6281,6.5622,6.4934,6.4246,6.3617,6.3228,6.3079,6.3079,6.3079,6.3079,6.3079,6.3079,6.2989,6.2151,6.1433,6.0745,6.0057,5.9518,5.9009,0.0,5.7881,5.7881,5.7881,5.7881,5.7881,5.7881,5.7881,5.8118,5.8727,6.0283,6.211,6.4208,6.6136,6.7929,6.9586,6.8605,6.7624,6.7015,6.5493,6.4546,0.0,0.0,6.688,6.8808,6.962,7.0737,7.2225,7.2665,7.2868,7.2868,7.4356,7.4999,7.4965,7.5802,7.4779,7.2588,7.2059,7.0447,6.832,6.6877,6.5304,6.3528,6.1642,6.0685,6.0236,5.9279,5.877,5.8411,5.7663,0.0,0.0,0.0,0.0,0.0,0.0,0.0,0.0,0.0,0.0,0.0,0.0,0.0,0.0,0.0,0.0,0.0,0.0,0.0,0.0,0.0,0.0,0.0,0.0,6.0326,6.2151,6.3887,6.5024,6.634,6.8196,6.9782,7.0769,7.0889,7.0829,7.0769,7.0769,7.0859,7.0979,7.1158,7.1009,7.1038,7.1308,7.0081,6.9273,6.9004,6.8046,6.7029,6.6011,6.5054,6.4395,6.3977,6.3348,6.3079,6.3079,6.3079,6.3079,6.3079,6.3079,6.2899,6.26,0.0,0.0,0.0,0.0,5.9009,5.859,0.0,5.7881,5.7881,5.7881,5.7881,5.7881,5.7881,5.7881,5.8355,5.9674,6.0689,6.2313,6.5019,6.6711,6.803,6.9011,6.8199,6.7083,6.5764,6.5019,0.0,6.6034,6.7421,6.891,7.0534,7.1278,7.236,7.3747,7.3815,7.3883,7.3916,7.5371,7.6323,7.677,7.6793,7.5962,7.4308,7.2932,7.1168,6.9273,6.8585,6.7478,6.5951,6.3468,6.254,6.2361,6.1104,6.0266,5.9757,5.9608,0.0,0.0,0.0,0.0,0.0,0.0,0.0,0.0,0.0,0.0,0.0,0.0,0.0,0.0,0.0,0.0,0.0,0.0,0.0,0.0,0.0,0.0,0.0,0.0,6.1912,6.3528,6.667,6.7747,6.8435,6.9034,7.0739,7.1667,7.1068,7.1607,7.1996,7.1996,7.1517,7.1757,7.2954,7.1816,0.0,0.0,0.0,6.9662,6.9004,6.7657,6.664,6.5892,6.4605,6.3947,6.3887,6.3318,6.3079,6.3079,6.3079,6.3079,6.3079,6.3079,6.269,6.2032,6.1283,6.1014,6.0775,5.8919,5.8231,5.8141,0.0,5.7881,5.7881,5.7881,5.7881,5.7881,5.7881,5.7881,5.7983,5.8287,6.0047,6.1738,6.2888,6.4884,6.6914,6.8944,6.7286,6.6,6.5696,6.5019,6.5764,6.8335,6.9282,7.0703,7.28,7.3578,7.439,7.527,7.5912,7.6251,7.6284,7.7773,7.7514,7.5922,7.6571,7.5555,7.3409,7.3044,7.2361,7.1278,7.062,6.9243,6.7418,6.5862,6.5263,6.5144,6.4366,6.3977,6.3707,6.266,6.1882,6.1104,5.9877,0.0,0.0,0.0,0.0,0.0,0.0,0.0,0.0,0.0,0.0,0.0,0.0,0.0,0.0,0.0,0.0,0.0,0.0,0.0,0.0,6.1463,6.3348,6.5233,6.7478,6.8824,6.9632,6.9782,7.1038,7.1846,7.1697,7.2325,7.2714,7.2714,7.3103,7.3432,7.3702,7.2954,7.2595,7.2714,7.0949,6.9662,6.9004,6.7657,6.64,6.5203,6.4395,0.0,6.3258,6.3139,6.3079,6.3079,6.3079,6.3079,6.3079,6.3079,6.269,6.1972,6.0745,6.0266,6.0176,5.9249,5.8919,5.874,0.0,5.7881,5.7881,5.7881,5.7881,5.7881,5.7881,5.7881,5.8017,5.8389,5.9776,6.0994,6.1772,6.3497,6.4918,6.5662,6.5053,6.4749,6.5121,6.5831,6.7421,7.0094,7.1244,7.2699,7.4559,7.5371,7.6115,7.6826,7.7232,7.7435,7.7468,7.8585,7.8455,7.734,7.6594,7.5681,7.4671,7.3166,7.2297,7.1846,7.1517,7.062,6.9243,6.7627,6.6999,6.6909,6.6251,6.6011,6.5892,6.5263,6.4605,6.3827,6.248,6.1164,5.9787,0.0,0.0,0.0,0.0,0.0,0.0,0.0,0.0,0.0,0.0,0.0,0.0,0.0,0.0,5.6974,5.7962,0.0,6.0984,6.3617,6.5144,6.67,6.8704,6.9812,7.056,7.0889,7.1487,7.2026,7.2355,7.2714,7.2924,7.2924,7.3223,7.3552,7.3881,7.2954,7.2565,7.2894,7.1009,6.9662,6.9004,6.7328,6.6011,6.5024,6.4006,6.3378,6.3079,6.3079,6.3079,6.3079,6.3079,6.3079,6.3049,6.272,6.2181,6.1493,6.0475,6.0086,5.9967,5.8979,5.862,5.853,0.0,5.7881,5.7881,5.7881,5.7881,5.7881,5.7881,5.7881,5.8118,5.8727,5.9438,6.0148,6.0791,6.2042,6.2618,6.2009,6.3024,6.4038,0.0,6.6914,6.9282,7.1853,7.3206,7.4695,7.6318,7.713,7.7841,7.8416,7.8686,7.8754,7.8653,7.9261,7.9196,7.8515,7.6553,7.5614,7.5383,7.2925,7.1876,7.1876,7.1876,7.1487,7.0709,6.9004,6.8375,6.8286,6.7777,6.7238,6.6819,6.6939,6.637,6.5443,6.4485,6.3408,6.1942,5.9279,5.8321,0.0,0.0,0.0,0.0,0.0,0.0,0.0,0.0,0.0,5.5508,5.6675,5.7992,5.9219,6.0266,6.1672,6.3438,6.5802,6.6879,6.8016,6.9901,7.0709,7.1398,7.2176,7.2265,7.2445,7.2864,7.3163,7.3253,7.3103,7.3223,7.3522,7.4061,7.2804,7.2325,7.2894,7.1009,6.9662,6.9004,6.7029,6.5682,6.5024,6.3707,6.3079,6.3079,6.3079,6.3079,6.3079,6.3079,6.3079,6.3049,6.251,6.1912,6.1253,6.0565,6.0206,5.9937,5.874,5.8321,5.8291,0.0,5.7881,5.7881,5.7881,5.7881,5.7881,5.7881,5.7881,5.7915,5.8017,5.866,5.9167,5.9268,6.0013,6.0452,6.0351,6.2888,6.4783,6.5527,6.7692,7.0534,7.4086,7.5033,7.6487,7.8686,7.9464,7.987,7.9938,8.1257,8.1562,8.0919,8.1021,7.9635,7.6958,7.6066,7.4456,7.234,7.2008,7.1876,7.1876,7.1876,7.1487,7.0829,7.0051,6.9752,6.9752,6.9662,6.8136,6.6191,6.6789,6.5742,6.4306,6.4755,6.4395,6.3258,6.0625,5.9039,5.7393,5.4072,5.2875,5.3054,5.5179,5.5359,5.5897,0.0,0.0,5.877,5.9488,6.0715,6.1702,6.1852,6.3408,6.5173,6.664,6.7956,6.9243,7.062,7.1368,7.2235,7.3522,7.3672,7.3462,7.2954,7.3971,7.442,7.3821,7.433,7.4689,7.4749,7.3522,7.2834,7.2924,7.1009,6.9662,6.9004,6.7029,6.5682,6.5024,6.3707,6.3079,6.3079,6.3079,6.3079,6.3079,6.3079,6.3079,6.3079,6.2989,6.257,6.1912,6.1253,6.0625,5.9997,5.9249,5.9009,5.8919,0.0,0.0,5.7881,5.7881,5.7881,5.7881,5.7881,5.7881,5.7881,5.7881,5.8152,5.8355,5.8355,5.8626,5.8795,5.8795,6.1569,6.3802,6.4986,6.8402,7.165,7.4492,7.6589,7.8348,7.9701,8.0885,8.1494,8.1494,8.2103,8.2238,8.1934,8.1934,8.1006,7.9297,7.7155,7.5641,7.447,7.2698,7.1876,7.1876,7.1876,7.1038,6.9782,6.9512,6.8435,6.7148,6.7537,6.67,0.0,6.5293,6.4964,6.4635,6.4934,6.4306,6.3019,6.0745,5.9428,5.8231,5.6047,5.4999,5.479,0.0,5.6825,5.7992,6.0057,6.0386,6.0655,6.2061,6.3139,6.4036,6.4814,6.5622,6.6729,0.0,6.9213,7.0021,7.1278,7.1697,7.2086,7.2654,7.3073,7.3522,7.4001,7.421,7.4031,7.3373,7.3941,7.3971,7.3193,7.2624,7.2325,7.2325,7.1158,7.0021,6.9004,6.7388,6.6071,6.5024,6.3707,6.3079,6.3079,6.3079,6.3079,6.3079,6.3079,6.3079,6.3079,6.3079,6.269,6.2032,6.1373,6.0685,5.9997,5.9338,5.9099,5.9069,0.0,0.0,0.0,5.7881,5.7881,5.7881,5.7881,5.7881,5.7881,5.7881,5.7881,5.7881,5.7881,5.7881,5.7881,5.7881,6.025,6.2482,0.0,6.8098,7.165,7.4492,7.7096,7.9126,8.0479,8.1562,8.2205,8.2408,8.2611,8.2712,8.2712,8.2712,8.2165,8.1173,7.8096,7.64,7.5744,7.287,7.1607,7.1577,7.1218,7.026,6.8914,6.8196,6.649,6.4575,6.5233,6.4575,6.3348,6.3019,6.2869,6.2899,6.3288,6.275,6.1583,5.9578,5.8141,5.7124,5.6675,5.6256,5.6107,5.7034,5.859,6.0146,6.0984,6.1702,6.263,6.4216,6.4964,6.5652,6.6789,6.7298,6.8016,6.9482,7.0021,7.0679,7.1996,7.1996,7.1966,7.2146,7.2295,7.2804,7.3941,7.3791,7.3432,7.2954,7.3343,7.3193,7.2235,7.1996,7.1876,7.1876,7.1098,7.0111,6.9004,6.7478,6.6161,6.5024,6.3707,6.3079,6.3079,6.3079,6.3079,6.3079,6.3079,6.3079,6.3079,6.2869,6.2421,6.1762,6.1104,6.0416,5.9757,5.9279,5.9099,5.9099,0.0,0.0,0.0,0.0,5.7881,5.7881,5.7881,5.7881,5.7881,5.7881,5.7881,5.7881,5.7881,5.7881,5.7881,5.7881,5.9268,6.1129,6.3396,6.6339,6.9992,7.4424,7.6115,7.8314,8.119,8.1291,8.1663,8.2408,8.3118,8.3456,8.3456,8.3456,8.261,8.1091,7.806,7.5839,7.4253,7.1934,7.0919,7.0829,6.9602,6.9064,6.8734,6.6131,6.4306,6.3228,6.3827,6.2002,5.9368,5.9997,5.8919,5.7573,5.886,5.9249,5.883,5.6855,5.4461,5.2815,5.473,5.5239,5.5987,5.9159,6.0984,6.2331,6.3588,6.4425,6.5114,6.5802,6.5951,6.6191,6.6879,6.8046,6.8974,6.9034,7.0081,7.1338,7.2684,7.2295,7.2146,7.2804,7.1757,7.1218,7.1906,7.2565,7.2924,7.2924,7.2924,7.2924,7.2894,7.2235,7.1876,7.1876,7.0679,6.9692,6.9004,6.7029,6.5712,6.5024,6.3707,6.3079,6.3079,6.3079,6.3079,6.3079,6.3079,6.3079,6.3019,6.2391,6.1732,6.1074,6.0386,5.9727,5.9129,5.9129,5.9099,5.9099,0.0,0.0,0.0,0.0,0.0,0.0,5.7881,5.7881,5.7881,5.7881,5.7881,0.0,0.0,0.0,0.0,0.0,5.9235,6.0655,6.1975,6.6237,6.9586,7.1582,7.5506,7.8314,7.9803,8.0784,8.1663,8.2408,8.3152,8.349,8.3524,8.3998,8.3718,8.261,8.0089,7.7783,7.5744,7.2953,7.1218,7.0171,6.8854,6.7807,6.6789,6.4575,6.2361,6.0296,0.0,5.8082,5.7064,5.6406,5.6017,5.5987,5.6885,5.6855,5.6286,5.5209,5.4551,5.4521,5.6047,0.0,5.9488,6.1044,6.3079,6.4934,6.5802,6.6161,6.64,6.661,6.5592,6.4755,6.4964,6.5742,6.664,6.7537,6.9482,7.1218,7.2116,7.2026,7.1667,7.1038,7.056,7.0201,6.9991,7.0949,7.1757,7.2206,7.2235,7.2026,7.1607,7.1368,7.1038,7.062,7.0201,6.9453,6.8315,6.7208,6.6101,6.5024,6.3707,6.3079,6.3079,6.3079,6.3079,6.3079,6.3079,6.3079,6.3019,6.2361,6.1972,6.1642,6.0535,5.9937,5.9697,5.9249,5.9099,5.9099,0.0,0.0,0.0,0.0,0.0,0.0,0.0,0.0,0.0,0.0,0.0,0.0,0.0,0.0,0.0,0.0,0.0,5.9742,6.0791,6.4275,6.7117,6.891,7.2462,7.51,7.669,7.7367,7.8348,7.9634,8.0107,8.0615,8.1156,8.19,8.2002,8.1391,7.9122,7.727,7.5749,7.2567,7.0492,6.909,6.7063,6.5443,6.4006,6.1792,5.9578,0.0,5.5718,5.494,5.467,5.4042,5.3803,5.3892,5.4551,5.4311,5.3832,5.4132,5.4521,5.5388,5.7872,5.9787,6.1433,6.281,6.4755,6.646,6.6879,6.7178,6.7358,6.7358,6.5562,6.4006,6.4006,6.4186,6.4605,6.5443,6.7388,6.9303,7.0649,7.044,7.0171,7.029,6.9692,6.9273,6.9333,6.9662,7.0231,7.1128,7.1398,7.1158,7.026,7.044,7.029,6.9662,6.9393,6.8854,6.7986,6.7089,6.5981,6.4635,6.3588,6.3079,6.3079,6.3079,6.3079,6.3079,6.2839,6.272,6.266,6.1762,6.1373,6.1283,6.0176,5.9727,5.9668,5.9249,5.9099,5.9099,0.0,0.0,0.0,0.0,0.0,0.0,0.0,0.0,0.0,0.0,0.0,0.0,0.0,0.0,0.0,0.0,0.0,0.0,5.9911,0.0,0.0,6.6373,6.732,6.9147,7.2056,7.1515,7.2259,7.439,7.4458,7.5236,7.669,7.7401,7.7773,7.7705,7.5402,7.439,7.4012,7.0456,6.8582,6.7579,6.4341,6.2181,6.0775,5.8112,5.6316,5.5059,5.3713,5.2815,5.2336,5.2905,5.2306,5.1439,5.2127,5.1917,5.1828,5.3832,5.4431,5.5448,5.9937,6.1224,6.1942,6.4485,6.6131,6.7089,6.7089,6.7537,6.7926,6.7777,6.5652,6.3767,0.0,0.0,6.2959,6.3019,6.4276,6.6131,6.8734,6.8046,6.8196,0.0,0.0,0.0,0.0,0.0,6.8615,6.9871,7.053,7.032,6.9064,6.9662,6.9692,6.8974,6.8345,6.7986,6.7926,6.661,6.5293,6.3977,6.3378,6.3079,6.3079,6.3079,6.3079,6.3049,6.2421,6.2121,6.2002,6.0685,6.0116,6.0027,5.9368,5.9099,5.9099,5.9099,5.9099,5.9099,0.0,0.0,0.0,0.0,0.0,0.0,0.0,0.0,0.0,0.0,0.0,0.0,0.0,0.0,0.0,0.0,0.0,0.0,0.0,0.0,0.0,0.0,0.0,0.0,0.0,0.0,0.0,7.1312,7.2428,7.3172,7.3544,7.4289,7.4627,7.4593,7.344,7.2274,7.0994,6.8203,6.613,6.469,6.1961,6.0655,6.0116,5.7932,5.6615,5.5748,5.4431,0.0,0.0,0.0,0.0,0.0,0.0,5.4311,5.4581,5.6555,5.7483,5.8441,6.1134,6.2929,6.4425,6.6071,6.7508,6.8495,6.8495,6.8226,6.7418,6.5413,6.2929,6.0475,0.0,0.0,0.0,6.2181,6.5533,0.0,7.0201,7.0979,0.0,7.032,0.0,7.0111,6.9991,6.9662,6.9602,6.9961,7.0141,6.9871,6.9034,7.0051,6.9931,6.8286,6.8555,6.8256,6.7238,6.5922,6.4844,6.3977,6.3378,6.3079,6.3079,6.3079,6.3079,6.3079,6.2899,6.254,6.2032,6.1194,6.0565,6.0027,5.9368,5.9099,5.9099,5.9099,5.9099,5.9099,0.0,0.0,0.0,0.0,0.0,0.0,0.0,0.0,0.0,0.0,0.0,0.0,0.0,0.0,0.0,0.0,0.0,0.0,0.0,0.0,0.0,0.0,0.0,0.0,0.0,0.0,0.0,0.0,0.0,0.0,6.9958,7.0364,7.0567,7.0534,7.0128,6.9446,6.8493,6.5869,6.4075,0.0,0.0,5.8441,5.7782,5.6376,5.5418,5.476,0.0,0.0,0.0,0.0,0.0,5.4281,5.5598,5.6017,5.6466,5.877,0.0,6.0535,6.3109,6.4844,6.6131,6.7178,6.8226,6.8764,6.7897,6.7148,6.5922,6.3288,6.0864,5.868,5.6915,5.8022,5.9668,0.0,0.0,0.0,6.9722,7.047,7.0769,0.0,7.0859,0.0,7.041,6.9871,6.9542,6.9542,6.9812,6.9692,6.9034,6.9393,6.9123,6.8016,6.8076,6.7627,6.658,6.5233,6.4395,6.3977,6.3378,6.3079,6.3079,6.3079,6.3079,6.3049,6.278,6.2271,6.1613,6.0954,6.0266,5.9608,5.9249,5.9099,5.9099,5.9099,5.9099,5.9069,0.0,0.0,0.0,0.0,0.0,0.0,0.0,0.0,0.0,0.0,5.7881,5.7881,0.0,0.0,0.0,0.0,0.0,0.0,0.0,0.0,0.0,0.0,0.0,0.0,0.0,0.0,0.0,0.0,0.0,0.0,0.0,0.0,0.0,0.0,6.6237,6.6237,6.6036,6.3492,6.2076,6.128,5.8105,5.6166,5.5119,0.0,0.0,0.0,0.0,0.0,0.0,0.0,5.6137,5.5837,5.7304,5.7752,5.8291,6.0984,6.1702,6.2301,6.5413,6.67,6.7268,6.7956,6.8495,6.8345,6.634,6.5293,6.4006,6.1283,5.9249,5.7723,5.6885,5.7393,5.8471,5.9967,0.0,6.4605,6.8675,6.8824,6.9333,7.1607,7.1457,7.1098,7.0919,6.9901,6.9243,6.9243,6.9722,6.9602,6.8764,6.8435,6.8106,6.7837,6.7208,6.649,6.5742,6.4575,6.3947,6.3857,6.3318,6.3079,6.3079,6.3079,6.3079,6.3049,6.248,6.1792,6.1074,6.0475,5.9787,5.9099,5.9099,5.9099,5.9099,5.8852,5.8743,5.8654,0.0,0.0,0.0,0.0,0.0,0.0,0.0,0.0,0.0,0.0,5.7881,5.7881,0.0,0.0,0.0,0.0,0.0,0.0,0.0,0.0,0.0,0.0,0.0,0.0,0.0,5.981,6.0622,6.1704,6.2279,0.0,0.0,0.0,0.0,6.3159,6.3159,6.3159,6.2965,6.0532,5.9452,5.9174,5.6579,5.5388,5.5179,0.0,0.0,0.0,0.0,0.0,0.0,0.0,5.8171,5.8052,6.0475,6.1224,6.1762,6.4395,6.4784,6.4814,6.7029,6.7717,6.7956,6.8645,6.8495,6.7627,6.5652,6.4276,0.0,0.0,5.7902,5.6765,5.5029,5.6107,5.8082,6.0535,0.0,0.0,6.9931,7.0949,7.1368,0.0,7.2295,7.2146,7.1009,7.0709,7.056,7.056,7.0201,6.9213,6.7418,6.8794,6.8884,6.7208,6.652,6.5592,6.4366,6.4126,6.3737,6.3228,6.3139,6.3079,6.3079,6.3079,6.3079,6.3079,6.2959,6.2241,6.1104,6.0984,6.0206,5.9099,5.9099,5.9099,5.8991,5.7552,5.7075,5.6962,0.0,0.0,0.0,0.0,0.0,0.0,0.0,5.8152,5.8152,5.893,5.8693,5.8321,5.7915,5.7881,5.7881,0.0,0.0,0.0,0.0,0.0,0.0,0.0,0.0,0.0,0.0,5.937,6.0317,6.1873,0.0,6.2212,6.2956,6.2584,6.2381,6.2381,6.2381,6.2381,6.2302,6.0501,5.9346,5.8632,5.6831,5.572,0.0,0.0,0.0,0.0,0.0,0.0,0.0,0.0,5.853,5.9548,6.1882,6.26,6.3049,6.5353,6.5772,6.5981,6.7956,6.8764,6.9004,6.9004,6.8495,6.7178,6.4186,0.0,0.0,0.0,5.6346,5.5807,5.488,0.0,0.0,0.0,0.0,0.0,0.0,6.9961,0.0,7.1757,7.1876,7.1487,7.05,6.9782,6.9363,6.9363,6.9093,6.8824,6.8555,6.8794,6.8345,6.7029,6.6011,6.5353,6.5054,6.4036,6.3528,6.3558,6.3228,6.3079,6.3079,6.3079,6.3079,6.3079,6.3079,6.254,6.1583,6.1253,6.0238,5.8713,5.8068,5.7532,5.6939,5.5905,5.5444,5.5387,0.0,0.0,0.0,0.0,0.0,0.0,5.8896,5.8524,5.8592,5.9945,5.9607,5.8964,5.822,5.8118,5.8051,0.0,0.0,0.0,0.0,0.0,0.0,0.0,0.0,0.0,0.0,0.0,0.0,6.2381,6.1806,0.0,0.0,0.0,0.0,0.0,6.2381,6.2381,6.2302,6.1119,6.0043,0.0,0.0,5.6638,0.0,0.0,0.0,0.0,0.0,0.0,0.0,0.0,5.8022,5.9757,6.1463,6.26,6.3617,6.5293,6.6101,6.6849,6.8854,6.9782,7.0021,6.9363,6.8465,6.6729,6.278,6.0835,0.0,5.5837,5.5179,5.5179,5.5179,0.0,5.7184,0.0,6.0326,6.2899,6.6969,6.8256,6.9512,0.0,7.1338,0.0,7.0051,6.9034,6.8345,6.8196,6.8046,6.8435,6.9512,6.8286,6.7238,6.658,6.5413,6.4994,6.5383,6.3857,6.3318,6.3797,6.3318,6.3079,6.3079,6.3079,6.3079,6.3079,6.3079,6.272,6.2061,6.1553,6.0373,5.89,5.7628,5.6588,5.5742,5.4578,5.4211,5.3926,0.0,0.0,0.0,0.0,0.0,0.0,5.8896,5.8964,5.9201,5.9979,6.0047,5.9708,5.8998,5.893,5.8626,0.0,0.0,0.0,0.0,0.0,0.0,0.0,0.0,0.0,0.0,0.0,0.0,6.2381,6.2313,0.0,0.0,0.0,0.0,0.0,0.0,6.2381,6.2302,6.1119,0.0,0.0,0.0,0.0,0.0,0.0,0.0,0.0,0.0,0.0,0.0,0.0,0.0,5.7513,5.8321,6.1044,6.4066,6.4874,0.0,0.0,7.0201,7.0769,7.0649,6.9991,6.8435,6.6041,6.2091,0.0,5.8441,5.5748,5.5179,5.5179,5.5179,0.0,0.0,0.0,0.0,6.0984,6.5533,6.7268,6.8794,7.0769,0.0,0.0,7.0111,6.9871,6.9542,6.8944,6.8315,6.8016,6.8136,6.6909,6.5892,6.5233,6.4485,6.3857,6.3348,6.3169,6.3109,6.3169,6.3109,6.3079,6.3079,6.3079,6.3079,6.3079,6.3079,6.272,6.2091,6.2032,6.153,6.0707,5.8987,5.8229,5.7786,5.4781,5.3329,5.2754,0.0,0.0,0.0,0.0,0.0,0.0,5.8896,5.9032,5.9438,6.0655,6.0825,6.0723,6.0419,5.9945,5.937,5.8626,0.0,0.0,0.0,0.0,0.0,0.0,0.0,0.0,0.0,0.0,6.167,6.2381,6.2381,0.0,0.0,0.0,0.0,0.0,0.0,6.2381,6.2381,6.187,0.0,0.0,0.0,0.0,0.0,0.0,0.0,0.0,0.0,0.0,0.0,0.0,0.0,0.0,5.5927,5.7932,0.0,0.0,6.4964,6.6789,6.9572,7.059,7.0739,7.0111,6.8166,6.5473,6.1912,0.0,5.7872,5.5658,5.5179,5.5179,5.5179,5.5179,5.5448,0.0,5.6915,0.0,6.1433,6.263,6.4545,6.8136,6.8435,6.8615,6.9333,6.9004,6.8495,6.7837,6.6789,6.637,6.6759,6.6281,6.5712,6.5054,6.4366,6.4066,6.4246,6.3468,6.3258,6.3617,6.3258,6.3079,6.3079,6.3079,6.3079,6.3079,6.3079,6.2929,6.266,6.2271,6.1549,6.056,5.8065,5.6771,5.578,5.3244,5.2126,5.1739,0.0,0.0,0.0,0.0,0.0,5.8152,5.8896,5.9032,5.9471,6.0791,6.096,6.096,6.096,6.025,5.9742,5.9708,5.9945,0.0,0.0,0.0,0.0,0.0,0.0,0.0,0.0,0.0,6.1873,6.2381,6.2381,6.2381,0.0,0.0,6.2381,6.2381,0.0,0.0,0.0,0.0,0.0,0.0,0.0,0.0,0.0,0.0,0.0,0.0,0.0,0.0,0.0,0.0,0.0,0.0,0.0,0.0,0.0,0.0,6.3079,6.5413,6.8495,6.9842,7.029,7.0021,6.7657,6.4665,0.0,0.0,5.7334,5.5568,5.5179,5.5179,5.5179,5.5179,5.5179,5.5179,5.5748,5.6795,5.856,5.9548,6.1433,6.5114,0.0,6.5862,6.7657,6.7567,6.7119,6.646,6.5562,6.5144,6.5413,6.5413,6.5203,6.4755,6.4066,6.3947,6.4455,6.3528,6.3288,6.3707,6.3288,6.3079,6.3079,6.3079,6.3079,6.3079,6.3079,6.3079,6.3049,6.257,6.1615,6.0272,5.7685,5.598,5.4655,5.2521,5.1674,5.1448,0.0,0.0,0.0,0.0,0.0,5.8152,5.8896,5.9032,5.9268,6.0013,6.0114,6.0114,6.0114,5.9471,5.9641,6.1129,6.0554,0.0,0.0,0.0,0.0,0.0,0.0,0.0,0.0,0.0,6.2381,6.2381,6.2381,6.2381,6.2381,6.2381,6.2381,6.2381,0.0,0.0,0.0,0.0,0.0,0.0,0.0,0.0,0.0,0.0,0.0,0.0,0.0,0.0,0.0,0.0,0.0,0.0,0.0,5.3683,5.476,0.0,6.0954,6.4605,6.7268,6.8495,6.9153,6.9782,6.6939,6.3498,0.0,0.0,5.6735,5.5448,5.5179,5.5179,5.5179,5.5179,5.5179,5.5179,5.5748,5.6645,5.7962,5.9249,6.0595,0.0,6.272,6.3617,6.4934,6.5652,6.5742,6.5114,6.5054,6.4725,6.4066,6.4006,6.4006,6.4006,6.3408,6.3079,6.3109,6.3079,6.3079,6.3079,6.3079,6.3079,6.3079,6.3079,6.3079,6.3079,6.3079,6.3079,6.3079,6.3079,6.2028,6.0359,5.8606,5.6956,5.5155,5.3538,5.2578,5.2026,0.0,0.0,0.0,0.0,0.0,0.0,5.822,5.8693,5.9099,5.9336,5.981,6.0114,6.0114,5.9911,6.0182,6.1231,6.0554,0.0,0.0,0.0,0.0,0.0,0.0,0.0,0.0,6.2381,6.2381,6.2381,6.2888,6.2888,6.2415,6.2922,6.2888,6.2381,6.2381,6.2381,0.0,0.0,0.0,0.0,0.0,0.0,0.0,0.0,0.0,0.0,0.0,0.0,0.0,0.0,0.0,0.0,0.0,0.0,0.0,5.5059,5.8231,6.1702,6.3468,6.5084,6.6131,6.5413,6.3617,6.1523,5.9518,0.0,0.0,5.5359,5.5179,5.5179,5.5179,5.5179,5.5329,5.5777,5.6047,5.6316,5.6735,5.7932,0.0,6.1822,6.4246,6.5742,6.5712,6.5054,6.4755,6.4994,6.4186,6.3767,6.3977,6.3588,6.3378,6.3378,6.3169,6.3079,6.3079,6.3079,6.3079,6.3079,6.3079,6.3079,6.3079,6.3079,6.3079,6.3079,6.3079,6.3079,6.3079,6.3079,6.2028,6.0359,5.8606,5.6956,5.5129,5.3131,5.2251,5.1975,0.0,0.0,0.0,0.0,0.0,0.0,5.7881,5.8287,5.8592,5.8592,5.8964,5.937,5.9641,5.9674,6.0114,6.1231,6.0858,0.0,0.0,0.0,0.0,0.0,0.0,0.0,6.1975,6.1975,6.2245,6.2821,6.3294,6.3429,6.3226,6.3429,6.326,6.2787,6.2516,6.2381,0.0,0.0,0.0,0.0,0.0,0.0,6.0417,0.0,0.0,0.0,0.0,0.0,0.0,0.0,0.0,0.0,0.0,0.0,0.0,0.0,5.6107,5.9069,6.1164,6.2989,6.4156,6.3558,6.1882,6.0027,5.877,0.0,0.0,0.0,0.0,5.5179,5.5179,5.5179,5.5329,5.5718,5.5807,5.5957,5.6436,5.7214,0.0,6.0715,6.3438,6.4874,6.4246,6.4066,6.4066,6.4276,6.3528,6.3258,6.3617,6.3288,6.3079,6.3079,6.3079,6.3079,6.3079,6.3079,6.3079,6.3079,6.3079,6.3079,6.3079,6.3079,6.3079,6.3079,6.281,6.272,0.0,6.245,6.0941,5.8795,5.7688,5.6057,5.3911,5.2354,5.1925,5.195,0.0,0.0,0.0,0.0,0.0,0.0,0.0,5.7881,5.7881,5.7881,5.7881,5.8152,5.8863,5.9032,5.9674,6.1095,6.1332,0.0,0.0,0.0,0.0,0.0,0.0,0.0,6.1298,6.1298,6.2009,6.3429,6.3497,6.3835,6.4444,6.3802,6.3497,6.3396,6.2719,6.2381,0.0,0.0,0.0,0.0,6.2381,6.1723,0.0,0.0,0.0,0.0,0.0,0.0,0.0,0.0,0.0,0.0,0.0,0.0,0.0,0.0,0.0,0.0,0.0,6.1732,6.2839,6.3318,6.1194,5.8949,5.883,0.0,0.0,0.0,0.0,0.0,5.5179,5.5179,5.5209,5.5239,5.5269,5.5718,5.6974,5.7334,0.0,0.0,6.1044,6.1942,6.1253,6.2839,6.3707,6.3109,6.3079,6.3079,6.3079,6.3079,6.3079,6.3079,6.3079,6.3079,6.3079,6.3079,6.3079,6.3079,6.3079,6.3079,6.3079,6.3079,6.3079,6.3049,6.2421,6.2151,6.2061,6.1433,5.919,5.6209,5.6237,5.4485,5.1975,5.1473,5.1574,5.1825,0.0,0.0,0.0,0.0,0.0,0.0,0.0,0.0,0.0,0.0,5.7881,5.7949,5.8118,5.9167,5.9979,0.0,0.0,0.0,0.0,0.0,0.0,0.0,0.0,0.0,6.1298,6.1298,6.1738,6.2651,6.3226,6.3294,6.2922,6.3328,6.3193,6.2651,6.2482,6.2381,0.0,0.0,0.0,0.0,6.2381,6.1886,0.0,0.0,0.0,0.0,5.6741,5.5781,0.0,0.0,0.0,0.0,0.0,0.0,0.0,0.0,5.461,5.6346,5.7124,0.0,5.9069,5.8231,5.7782,5.7304,0.0,0.0,0.0,0.0,0.0,0.0,0.0,5.5179,5.5359,5.5867,5.5927,5.6406,5.7693,5.9638,0.0,6.1343,6.266,6.3109,6.1972,6.272,6.3228,6.3079,6.3079,6.3079,6.3079,6.3079,6.3079,6.3079,6.3079,6.3079,6.3079,6.3079,6.3079,6.3079,6.3079,6.3079,6.3079,6.3079,6.3079,6.3079,6.2899,6.257,6.2091,6.1942,5.9597,5.6237,5.6707,5.4591,5.1448,5.1322,5.1096,5.072,0.0,0.0,0.0,0.0,0.0,0.0,0.0,0.0,0.0,0.0,5.7881,5.7881,5.7881,5.9201,6.0114,0.0,0.0,0.0,0.0,0.0,0.0,0.0,0.0,6.0588,6.025,6.0588,6.1298,6.2381,6.3159,6.3463,6.3396,6.3497,6.3294,6.2888,6.255,6.2212,0.0,0.0,0.0,6.2347,6.2009,0.0,0.0,0.0,0.0,0.0,5.7592,5.6613,0.0,5.3316,5.2976,5.3247,0.0,0.0,0.0,0.0,5.4401,5.5777,5.6077,5.6885,5.7483,5.6765,5.6645,5.6496,5.5807,0.0,0.0,0.0,0.0,0.0,0.0,0.0,5.5658,5.5718,5.6466,5.7543,0.0,0.0,0.0,6.2061,6.272,6.2959,6.26,6.2869,6.3079,6.3079,6.3079,6.3079,6.3079,6.3079,6.3079,6.3079,6.3079,6.3079,6.3079,6.3079,6.3079,6.3079,6.3079,6.3079,6.3079,6.3079,6.3079,6.3049,6.275,6.2241,6.1613,6.1313,5.8842,5.5408,5.574,5.3741,5.0845,5.0594,5.0469,5.0343,0.0,0.0,0.0,0.0,0.0,0.0,0.0,0.0,0.0,0.0,0.0,0.0,0.0,0.0,0.0,0.0,0.0,0.0,0.0,0.0,0.0,0.0,6.0114,5.981,5.9201,5.9776,6.0858,6.2381,6.3159,6.3835,6.441,6.3903,6.3632,6.3497,6.2854,6.2144,6.1467,6.1467,6.1772,6.2178,6.167,0.0,0.0,0.0,0.0,0.0,0.0,0.0,0.0,5.3821,5.3606,5.3804,5.209,0.0,0.0,0.0,0.0,0.0,5.5867,5.6555,5.7064,5.6974,5.6555,5.6137,5.6047,0.0,0.0,0.0,0.0,0.0,0.0,0.0,0.0,0.0,5.6974,0.0,6.0057,6.0924,6.1583,6.2032,6.2181,6.2421,6.2869,6.3019,6.3079,6.3079,6.3079,6.3079,6.3079,6.3079,6.3079,6.3079,6.2989,6.2929,6.2929,6.3019,6.3019,6.2929,6.3019,6.3019,6.2929,6.2929,6.2929,6.2899,6.2241,6.1583,6.0894,6.0326,5.8023,5.4769,5.4852,5.3102,5.0608,5.0229,5.0201,5.0218,0.0,0.0,0.0,0.0,0.0,0.0,0.0,0.0,0.0,0.0,0.0,0.0,0.0,0.0,0.0,0.0,0.0,0.0,0.0,0.0,0.0,6.0148,6.0114,6.0047,5.9945,6.0047,6.0858,6.2381,6.3159,6.3565,6.37,6.4208,6.4106,6.3531,6.3396,6.2922,6.2212,6.2212,6.1941,6.1501,6.2009,0.0,0.0,0.0,0.0,0.0,0.0,0.0,0.0,5.5012,5.4536,5.4606,5.3713,0.0,0.0,0.0,0.0,0.0,5.5329,5.6196,5.6974,5.6436,5.6256,5.6017,0.0,0.0,0.0,0.0,0.0,0.0,0.0,0.0,0.0,0.0,0.0,5.9428,0.0,0.0,6.26,6.2151,6.26,6.275,6.2301,6.275,6.3079,6.3079,6.3079,6.3079,6.3079,6.3079,6.3079,6.3079,6.254,6.2241,6.2241,6.281,6.281,6.2241,6.281,6.278,6.2241,6.2241,6.2241,6.2211,6.1553,6.0864,6.0236,6.0116,5.8614,5.6423,5.688,5.4884,5.18,5.2193,5.1254,4.9715,0.0,0.0,0.0,0.0,0.0,0.0,0.0,0.0,0.0,0.0,0.0,0.0,0.0,0.0,0.0,0.0,0.0,0.0,0.0,0.0,6.0317,5.9539,5.9505,5.9708,6.008,6.052,6.1501,6.299,6.3734,6.4512,6.529,6.441,6.3632,6.2888,6.2482,6.211,6.1772,6.1332,6.1197,6.1264,0.0,0.0,0.0,0.0,0.0,0.0,0.0,0.0,0.0,0.0,5.5762,5.5911,5.4695,0.0,0.0,0.0,0.0,0.0,5.5179,5.5628,5.6166,5.6555,5.7214,5.7483,0.0,0.0,0.0,0.0,0.0,0.0,0.0,0.0,0.0,0.0,0.0,6.0116,6.1463,6.1852,6.2032,6.2091,6.2361,6.257,6.263,6.2899,6.3079,6.3079,6.3079,6.3079,6.3079,6.275,6.254,6.254,6.1912,6.1553,6.1553,6.1882,6.1852,6.1553,6.1882,6.1852,6.1553,6.1553,6.1553,6.1553,6.1253,6.0715,6.0086,6.0086,5.8726,5.6764,5.7052,5.558,5.3214,5.2651,5.1249,4.964,0.0,0.0,0.0,0.0,0.0,0.0,0.0,0.0,0.0,0.0,0.0,0.0,0.0,0.0,0.0,0.0,0.0,0.0,0.0,5.9844,5.9607,5.9032,5.9167,5.9539,6.008,6.0892,6.211,6.3768,6.4681,6.5797,6.7015,6.4986,6.3531,6.2618,6.1873,6.1366,6.0994,6.0554,6.052,6.0689,0.0,0.0,0.0,0.0,0.0,0.0,0.0,0.0,0.0,0.0,0.0,0.0,0.0,0.0,0.0,5.5655,5.5404,5.5129,5.528,5.5381,5.5658,5.6645,0.0,0.0,0.0,0.0,0.0,0.0,0.0,0.0,0.0,0.0,0.0,6.1044,6.0805,6.0805,6.2151,6.1882,6.1762,6.2271,6.2331,6.254,6.3019,6.3079,6.3079,6.3079,6.3079,6.3019,6.2839,6.2361,6.2032,6.1882,6.1224,6.0864,6.0864,6.0715,6.0715,6.0864,6.1044,6.1044,6.0864,6.0864,6.0864,6.0864,6.0715,6.0356,5.9847,5.9847,5.883,5.7299,5.7299,5.6251,5.4741,5.27,5.1268,5.0129,0.0,0.0,0.0,0.0,0.0,0.0,0.0,0.0,0.0,0.0,0.0,0.0,0.0,0.0,0.0,0.0,0.0,0.0,0.0,5.9099,5.9066,5.9032,5.9674,6.0047,6.0114,6.0892,6.2347,6.4512,6.5967,6.7049,6.7793,6.6237,6.4783,6.3396,6.2651,6.1535,6.0216,6.0926,6.0419,5.9235,5.981,0.0,0.0,0.0,0.0,0.0,0.0,0.0,0.0,0.0,0.0,0.0,0.0,0.0,5.6599,5.7324,5.6238,5.5101,5.5719,5.5986,5.6137,0.0,0.0,0.0,0.0,0.0,0.0,0.0,0.0,0.0,0.0,0.0,5.8381,5.9189,6.0296,6.1493,6.281,6.2959,6.2959,6.2989,6.3019,6.3019,6.3079,6.3079,6.3079,6.3079,6.3079,6.281,6.2211,6.2121,6.1822,6.1194,6.0505,6.0146,6.0146,5.9548,5.9548,6.0176,6.0805,6.0775,6.0146,6.0146,6.0146,6.0116,5.9518,5.9219,5.9189,5.9189,5.9021,5.8991,5.8991,5.7915,5.6137,5.316,5.1989,5.1616,0.0,0.0,0.0,0.0,0.0,0.0,0.0,0.0,0.0,0.0,0.0,0.0,0.0,0.0,0.0,0.0,0.0,0.0,0.0,5.8321,5.8321,5.8321,5.8592,5.8964,5.9404,6.1569,6.4005,6.6643,6.8166,6.8335,6.7184,6.5256,6.3531,6.2076,6.0858,6.0486,6.0791,6.0148,5.981,5.9674,5.9505,5.8795,0.0,0.0,0.0,0.0,0.0,0.0,0.0,0.0,5.7756,5.7691,5.7959,5.7516,5.7019,5.7279,5.6713,5.5942,5.6226,5.7055,0.0,0.0,0.0,0.0,0.0,0.0,0.0,0.0,0.0,0.0,0.0,0.0,6.0057,6.0296,6.1463,6.251,6.3019,6.3079,6.3079,6.3079,6.3079,6.3079,6.3079,6.3079,6.3079,6.3079,6.3079,6.278,6.2121,6.1702,6.1164,6.0505,5.9817,5.9488,5.9488,5.9219,5.9219,5.9488,5.9727,5.9727,5.9488,5.9488,5.9488,5.9458,5.9219,5.9099,5.9099,5.9099,5.9099,5.9099,5.9099,5.8136,5.648,5.4268,5.2822,5.1793,0.0,0.0,0.0,0.0,0.0,0.0,0.0,0.0,0.0,0.0,0.0,0.0,0.0,0.0,0.0,0.0,0.0,0.0,5.7881,5.7881,5.7881,5.7881,5.7881,5.8355,5.9336,6.1873,6.4377,6.6846,6.8605,6.8335,6.6068,6.4106,6.2482,6.1231,5.9708,5.9607,6.052,5.9471,5.9167,5.937,5.8863,5.8355,0.0,0.0,0.0,0.0,0.0,0.0,0.0,0.0,5.7881,5.7983,5.8423,5.8035,5.7487,5.7951,5.7495,5.6808,5.7034,5.7547,0.0,0.0,0.0,0.0,0.0,0.0,0.0,0.0,0.0,0.0,0.0,0.0,0.0,6.1044,6.2211,6.3079,6.3079,6.3079,6.3079,6.3079,6.3079,6.3079,6.3079,6.2899,6.278,6.278,6.257,6.2181,6.1493,6.1044,6.0475,5.9787,5.9338,5.9099,5.9099,5.9099,5.9099,5.9099,5.9099,5.9099,5.9099,5.889,5.8919,5.9099,5.9099,5.9099,5.9099,5.9099,5.9099,5.9099,5.9099,5.8386,5.7216,5.5094,5.4029,5.3214,0.0,0.0,0.0,0.0,0.0,0.0,0.0,0.0,5.7881,5.7881,5.7881,0.0,0.0,0.0,0.0,0.0,0.0,0.0,5.7881,5.7881,5.7881,5.7881,5.7881,5.8558,6.0047,6.1569,6.3091,6.4613,6.6812,6.6745,6.4546,6.3057,6.1975,6.1197,5.9708,5.9032,5.9032,5.9032,5.8592,5.7915,5.7915,5.7881,5.7881,0.0,0.0,0.0,0.0,0.0,0.0,0.0,5.7881,5.8152,5.9641,5.9066,5.8186,5.9674,5.8819,5.7522,5.8181,5.7521,0.0,0.0,0.0,0.0,0.0,0.0,0.0,0.0,0.0,0.0,0.0,0.0,0.0,6.0894,6.2211,6.3079,6.3079,6.3079,6.3079,6.3079,6.3079,6.3079,6.3079,6.248,6.2091,6.2091,6.1493,6.0805,6.0116,6.0086,5.9787,5.9129,5.9099,5.9099,5.9099,5.9099,5.9099,5.9069,5.9069,5.9069,5.9069,5.8441,5.8501,5.9099,5.9099,5.9099,5.9099,5.9099,5.9099,5.9099,5.9099,5.9099,5.8743,5.5588,5.5444,5.6022,0.0,0.0,0.0,0.0,0.0,0.0,0.0,0.0,5.7712,5.7205,5.7577,0.0,0.0,0.0,0.0,0.0,0.0,0.0,5.7881,5.7408,5.7137,5.7137,5.7137,5.734,5.778,5.9742,6.2279,6.5358,6.6034,6.4952,6.2279,6.1839,6.0655,5.893,5.9505,5.9505,5.9032,5.9032,5.8896,5.8693,5.8693,5.8355,5.7949,0.0,0.0,0.0,0.0,0.0,0.0,0.0,0.0,0.0,5.9032,5.866,5.8084,5.9066,5.8571,5.7775,5.7976,0.0,0.0,0.0,0.0,0.0,0.0,0.0,0.0,0.0,0.0,6.0057,6.0954,6.1164,6.1194,6.1134,6.2211,6.3079,6.3079,6.3079,6.3079,6.3079,6.266,6.2391,6.2391,6.1792,6.1403,6.1403,6.1224,6.0805,6.0116,5.9638,5.9308,5.9129,5.865,5.8411,5.8411,5.8411,5.8171,5.7693,5.7244,5.7782,5.9099,5.889,5.8919,5.9099,5.9099,5.9099,5.9099,5.9099,5.9099,5.9099,5.9099,5.9099,5.8852,5.6736,5.6251,5.6366,0.0,0.0,0.0,0.0,0.0,0.0,0.0,0.0,5.6968,5.6833,5.7171,5.7273,0.0,0.0,0.0,0.0,0.0,0.0,5.7881,5.7476,5.7239,5.7239,5.7239,5.7374,5.7679,5.9268,6.1061,6.3024,6.3632,6.2719,6.0419,6.1028,6.0554,5.9302,6.0486,6.0588,5.9911,5.9573,5.9268,5.9032,5.9032,5.8727,5.8389,0.0,0.0,0.0,0.0,0.0,0.0,0.0,0.0,0.0,5.8795,5.849,5.8017,5.8795,5.8693,5.8389,5.8693,0.0,0.0,0.0,0.0,0.0,0.0,0.0,0.0,0.0,0.0,6.0775,6.1732,6.1792,6.1672,6.1523,6.2181,6.26,6.2331,6.2301,6.2301,6.2301,6.1942,6.1702,6.1702,6.1104,6.0595,6.0326,6.0086,5.9757,5.9338,5.8919,5.883,5.9099,5.8471,5.8112,5.8112,5.8112,5.7782,5.7094,5.7244,5.7812,5.871,5.8441,5.859,5.9099,5.9099,5.8949,5.874,5.9009,5.8949,5.874,5.9009,5.8949,5.8524,5.7212,5.7075,5.7328,0.0,0.0,5.4702,5.4702,0.0,0.0,0.0,0.0,5.6021,5.663,5.6765,5.6765,0.0,0.0,0.0,0.0,0.0,0.0,0.0,5.7712,5.7679,5.7679,5.7746,5.8152,5.8896,5.9505,5.9471,5.8829,6.0419,6.0419,5.893,6.0486,6.1197,6.1231,6.2042,6.1941,6.1129,6.0419,5.9641,5.893,5.8998,5.9032,5.9032,5.9032,0.0,0.0,0.0,0.0,0.0,0.0,0.0,0.0,5.8795,5.8558,5.8118,5.8795,5.8964,5.9066,0.0,0.0,0.0,0.0,0.0,0.0,0.0,0.0,0.0,0.0,0.0,6.1725,6.278,6.2061,6.1433,6.1942,6.2061,6.1882,6.1194,6.1074,6.1044,6.1104,6.1014,6.0924,6.0924,6.0296,5.9638,5.8979,5.8351,5.8022,5.8022,5.7992,5.8231,5.889,5.8291,5.7962,5.7962,5.7962,5.7603,5.6944,5.8171,5.8471,5.7932,5.7483,5.7902,5.9009,5.9009,5.865,5.8082,5.874,5.862,5.8112,5.877,5.865,5.7958,5.7207,5.7804,5.8634,0.0,0.0,5.548,5.548,0.0,0.0,0.0,0.0,0.0,0.0,0.0,0.0,0.0,0.0,0.0,0.0,0.0,0.0,0.0,5.6494,5.619,5.619,5.6731,5.7374,5.8118,5.7712,5.7442,5.7273,5.9336,5.9607,5.8152,5.9674,6.0351,6.0419,6.1772,6.1637,6.0351,6.0182,5.9336,5.8186,5.8795,5.9032,5.9032,5.9032,5.893,0.0,0.0,0.0,0.0,0.0,0.0,0.0,5.8964,5.8896,5.8795,5.8964,5.8592,5.8287,0.0,0.0,0.0,0.0,0.0,0.0,0.0,0.0,0.0,0.0,6.4515,6.3801,6.2558,6.251,6.2361,6.1463,6.1762,6.1882,6.1194,6.0655,6.0505,6.1044,6.0176,5.9548,5.9548,5.8949,5.8261,5.7573,5.7393,5.7304,5.7304,5.6855,5.6885,5.7513,5.6915,5.6585,5.6585,5.6585,5.6256,5.5598,5.5897,5.6226,5.6645,5.8022,5.856,5.8351,5.8351,5.7932,5.7363,5.8052,5.7932,5.7393,5.8052,5.8261,5.8095,5.8505,5.8743,5.8991,0.0,0.0,0.0,0.0,0.0,0.0,0.0,0.0,0.0,0.0,0.0,0.0,0.0,0.0,0.0,0.0,0.0,0.0,0.0,5.6325,5.5716,5.5716,5.6089,5.663,5.734,5.7002,5.6799,5.6799,5.8321,5.8457,5.7408,5.9235,6.0317,6.0723,6.1873,6.1738,6.0655,6.025,5.9674,5.8998,5.937,5.9539,5.9539,5.9539,5.9099,5.8423,5.8017,0.0,0.0,0.0,0.0,0.0,0.0,0.0,5.8457,5.8457,5.8186,5.8051,0.0,0.0,0.0,0.0,0.0,0.0,0.0,0.0,0.0,6.6385,6.5203,6.4212,6.2835,6.2303,6.1822,6.0805,6.0894,6.0805,5.9817,5.9368,5.9159,5.9189,5.856,5.8141,5.8141,5.7842,5.7363,5.6705,5.6645,5.6645,5.6645,5.6346,5.6466,5.7064,5.6496,5.6166,5.6166,5.6166,5.5837,5.5209,5.5807,5.6286,5.6645,5.7663,5.7782,5.7214,5.7513,5.7244,5.6705,5.7363,5.7423,5.7154,5.7842,5.8112,5.8201,5.886,5.9099,5.9099,0.0,0.0,0.0,0.0,0.0,0.0,0.0,0.0,0.0,0.0,0.0,0.0,0.0,0.0,0.0,0.0,0.0,0.0,0.0,0.0,0.0,5.5513,5.5649,5.6021,5.6596,5.6494,5.6427,5.6427,5.7171,5.7273,5.6867,5.893,6.0317,6.1129,6.1738,6.167,6.1028,6.025,5.9844,5.9742,5.9844,5.9911,5.9911,5.9911,5.9133,5.8051,5.7949,5.7881,5.7881,5.7881,0.0,0.0,0.0,0.0,5.8051,5.7915,5.7881,5.8051,0.0,0.0,0.0,0.0,0.0,0.0,0.0,0.0,0.0,6.7405,6.5833,6.4183,6.3034,6.2025,6.1137,6.0027,5.9907,5.9488,5.8291,5.7932,5.7603,5.7154,5.7004,5.6944,5.6944,5.6944,5.6675,5.6047,5.6017,5.6017,5.6017,5.6017,5.6226,5.6765,5.6256,5.6017,5.6017,5.6017,5.5718,5.5209,5.6256,5.6765,5.6765,5.6765,5.6555,5.6196,5.6705,5.6585,5.6047,5.6675,5.6885,5.6825,5.7513,5.7842,5.8022,5.868,5.9009,5.9099,0.0,0.0,0.0,0.0,0.0,0.0,0.0,0.0,0.0,0.0,5.5716,5.5209,0.0,0.0,0.0,0.0,0.0,0.0,5.5074,0.0,0.0,5.4735,5.5378,5.5784,5.5852,5.5209,5.4871,5.4871,5.5649,5.6292,5.6833,5.8423,5.9573,6.025,6.0351,6.0351,6.0216,5.9471,5.8795,5.8254,5.8896,5.9167,5.9167,5.9167,5.9032,5.8795,5.8118,5.7881,5.7881,5.7881,5.8321,0.0,0.0,0.0,5.8727,5.8084,5.7881,0.0,0.0,0.0,0.0,0.0,0.0,0.0,0.0,0.0,6.8823,0.0,6.7173,6.5675,6.2705,6.2483,6.1982,5.9645,5.9249,5.8979,5.8231,5.7154,5.6585,5.7034,5.6615,5.6286,5.6286,5.6286,5.6017,5.5359,5.5329,5.5329,5.5329,5.5329,5.5359,5.5448,5.5359,5.5329,5.5329,5.5329,5.5269,5.5179,5.5359,5.5448,5.5448,5.5448,5.5718,5.6166,5.6256,5.5927,5.5359,5.6017,5.5957,5.5508,5.6166,5.6765,5.7304,5.7992,5.862,5.9099,0.0,0.0,0.0,0.0,0.0,0.0,0.0,0.0,0.0,0.0,0.0,5.4668,0.0,0.0,0.0,5.4566,5.4532,5.4329,5.3991,5.4363,5.4397,5.3991,5.4296,5.4668,5.5074,5.4769,5.46,5.46,5.575,5.6292,0.0,5.8118,5.9404,6.008,5.9674,5.9471,5.9438,5.8693,5.8457,5.8558,5.8896,5.9032,5.9032,5.9032,5.8761,5.8355,5.8017,5.7881,5.7881,5.7881,5.8118,5.8321,5.7983,0.0,0.0,0.0,0.0,0.0,0.0,0.0,0.0,0.0,0.0,0.0,0.0,0.0,6.7726,6.7354,6.706,6.6244,6.4061,6.2688,6.1402,5.9857,5.9032,5.8201,5.7184,5.6526,5.6137,5.6047,5.5448,5.5209,5.5598,5.5299,5.5089,5.5179,5.5179,5.5179,5.5179,5.485,5.482,5.5179,5.485,5.482,5.5179,5.5179,5.5179,5.5179,5.5179,5.5179,5.5179,5.5179,5.5359,5.5628,5.5628,5.5448,5.5209,5.5508,5.5658,5.5777,5.6047,5.6795,5.7723,5.8022,5.853,5.9099,0.0,0.0,0.0,0.0,0.0,0.0,0.0,0.0,0.0,0.0,0.0,0.0,0.0,0.0,0.0,0.0,5.3822,5.3518,5.3518,5.4025,5.4059,5.3518,5.3518,5.3754,5.4296,5.4329,5.4329,5.4329,5.5615,0.0,5.6325,5.8152,5.9505,0.0,5.9641,5.9201,5.8964,5.8423,5.849,5.8998,5.8592,5.8558,5.8693,5.8524,5.822,5.7881,5.7881,5.7881,5.7881,5.7881,5.7881,5.7881,5.7881,5.7881,0.0,0.0,0.0,0.0,0.0,0.0,0.0,0.0,0.0,0.0,0.0,0.0,6.6576,6.6779,6.6812,6.6525,6.5559,6.3512,6.1577,6.0353,5.9123,5.7842,5.6419,5.6017,5.5688,5.5029,5.4491,5.4341,5.464,5.4401,5.4431,5.491,5.5089,5.5119,5.494,5.4491,5.4431,5.491,5.4311,5.4341,5.5179,5.5179,5.5179,5.5179,5.5179,5.5179,5.5179,5.5179,5.5179,5.5179,5.5179,5.5179,5.5179,5.5179,5.5478,5.5927,5.5927,5.6705,5.7872,5.7872,5.8381,5.9099,0.0,0.0,0.0,0.0,0.0,0.0,0.0,0.0,0.0,0.0,0.0,0.0,5.3585,5.3518,5.3518,5.3551,5.3518,5.3518,5.3518,5.3551,5.3551,5.3518,5.3518,0.0,5.3551,5.3551,5.3551,5.3551,5.4329,5.575,5.778,5.8626,5.981,6.1197,6.0419,5.9674,5.9032,0.0,0.0,5.8896,5.7476,5.734,5.7881,5.7171,5.7306,5.7881,5.7881,0.0,0.0,0.0,5.7881,5.7881,5.7881,5.7881,5.7881,0.0,0.0,0.0,0.0,0.0,0.0,0.0,0.0,0.0,0.0,0.0,6.5967,6.6677,6.6812,6.6812,6.6728,6.5559,6.3692,6.0621,5.9501,5.8354,5.6462,5.5628,5.4999,5.4341,5.4221,5.3952,5.3354,5.3832,5.4221,5.4251,5.485,5.491,5.4311,5.4221,5.4221,5.4251,5.3593,5.3862,5.5179,5.5179,5.5179,5.5179,5.5179,5.5179,5.5179,5.5179,5.5179,5.5179,5.5179,5.5179,5.5179,5.5179,5.5209,5.5239,5.5239,5.6017,5.7154,5.7154,5.7992,5.9099,0.0,0.0,0.0,0.0,0.0,0.0,0.0,0.0,0.0,0.0,0.0,0.0,0.0,5.3518,5.3518,5.3518,5.3518,5.3518,5.3518,5.3518,5.3518,5.3518,5.3518,5.3518,5.3518,5.3518,5.3518,5.3518,5.4228,5.5006,5.5784,5.7036,5.7881,5.8457,5.9607,5.9708,5.8998,5.849,0.0,5.822,5.7205,5.6968,5.7103,5.6393,5.6562,0.0,0.0,0.0,0.0,0.0,5.7881,5.7881,5.7881,5.7881,5.7881,5.7881,5.7881,0.0,0.0,0.0,0.0,0.0,0.0,6.3362,6.414,6.4647,6.5189,6.5933,6.6102,6.6237,6.6711,6.5734,6.4203,6.221,6.0329,5.8535,5.6966,5.5901,5.5089,5.488,5.4072,5.3623,5.3832,5.3653,5.3743,5.4192,5.4431,5.4461,5.4221,5.3384,5.3114,5.3533,5.2905,5.3204,5.4551,5.4551,5.4551,5.4551,5.4551,5.4551,5.4551,5.4551,5.479,5.5179,5.5179,5.5179,5.5179,5.5179,5.5179,5.5179,5.5179,5.5718,5.6555,5.6944,5.7693,5.853,0.0,0.0,0.0,0.0,0.0,5.4059,5.3585,5.3518,5.3518,5.3518,0.0,0.0,0.0,0.0,5.3518,5.3518,5.3518,5.3518,5.3518,5.3518,5.3518,5.3518,5.3518,5.3518,5.3518,5.3518,5.3518,5.3518,5.3991,5.4465,5.5006,5.5987,5.6833,5.7577,5.8558,5.8998,0.0,0.0,0.0,5.8186,5.7205,5.6934,5.7103,0.0,0.0,0.0,0.0,0.0,0.0,0.0,5.7881,5.7881,5.7881,5.7881,5.7881,5.7881,5.7881,5.8017,5.849,0.0,0.0,0.0,0.0,6.1873,6.2922,6.3497,6.4072,6.4816,6.5358,6.5831,6.6339,6.5746,6.4706,6.3045,6.1251,5.9286,5.7337,5.628,5.556,5.498,5.3862,5.3264,5.3503,5.3114,5.3054,5.3503,5.3743,5.3773,5.3533,5.2695,5.2306,5.2516,5.2516,5.2845,5.3533,5.3743,5.3862,5.3862,5.3862,5.3982,5.4221,5.4221,5.4581,5.5179,5.5179,5.5179,5.5179,5.5179,5.5179,5.5179,5.5179,5.5718,5.6526,5.6944,5.7663,5.853,0.0,0.0,5.4391,5.3685,5.3484,5.3518,5.3518,5.3518,5.3518,5.3518,0.0,0.0,0.0,0.0,0.0,5.3518,5.3518,5.3518,5.3518,5.3518,5.3518,5.3518,5.3518,5.3518,5.3518,5.3518,5.3518,5.3518,5.3518,5.4228,5.5649,5.5649,5.6799,5.8829,5.7408,5.7577,5.8964,0.0,5.9607,5.8896,0.0,5.7205,5.7881,0.0,0.0,0.0,5.8964,5.8964,0.0,5.8118,5.7915,5.7915,5.7915,5.7915,5.7881,5.7881,5.7881,5.7881,0.0,0.0,0.0,0.0,0.0,6.0419,6.1907,6.2279,6.2516,6.3328,6.4613,6.5595,6.5662,6.5628,6.5026,6.312,6.222,6.0564,5.7527,5.7086,5.6296,5.448,5.3623,5.2935,5.2306,5.2217,5.2217,5.2217,5.2785,5.2875,5.2247,5.2187,5.1887,5.1229,5.2456,5.2815,5.2217,5.2845,5.3144,5.3144,5.3144,5.3503,5.4192,5.4192,5.4551,5.5179,5.5179,5.5179,5.5179,5.5179,5.5179,5.5179,5.5179,5.5957,5.7064,5.7094,5.7932,5.9069,0.0,5.4391,5.3881,5.4264,5.3815,5.3518,5.3518,5.3518,5.3518,0.0,0.0,0.0,5.3518,5.3518,5.3518,5.3518,5.3518,5.3518,5.3518,5.3518,5.3518,5.3518,5.3518,5.3518,5.3518,5.3518,5.3518,5.3518,5.3518,5.3721,5.4126,5.4126,5.4735,5.5818,5.5953,5.6258,5.663,5.6833,0.0,5.8829,5.6833,5.6765,0.0,0.0,0.0,0.0,0.0,5.7746,5.8152,0.0,5.8254,5.8693,5.8693,5.8321,5.7881,5.7881,5.7881,5.7881,5.7881,0.0,0.0,0.0,0.0,0.0,5.9032,5.9573,6.0486,6.2313,6.3024,6.3632,6.4715,6.4478,6.3958,6.3396,6.2432,6.1205,5.9794,5.8053,5.6834,5.6296,5.4419,5.3294,5.3623,5.2785,5.2396,5.2875,5.2636,5.2396,5.2217,5.1738,5.1409,5.1229,5.1558,5.1917,5.2187,5.2366,5.2486,5.2486,5.2486,5.2815,5.3473,5.3473,5.4102,5.5179,5.5179,5.5179,5.5179,5.5179,5.5179,5.5179,5.5179,5.5688,5.6466,5.6944,5.7633,5.8471,5.5724,5.4999,5.4454,5.4606,5.4011,5.3518,5.3518,5.3518,5.3518,0.0,0.0,0.0,5.3518,5.3518,5.3518,5.3518,5.3518,5.3518,5.3518,5.3518,5.3518,5.3518,5.3518,5.3518,5.3518,5.3518,5.3518,5.3518,5.3518,5.3518,5.3518,5.3518,5.389,5.46,5.4735,5.5141,5.5683,5.504,0.0,0.0,5.7002,0.0,0.0,5.7306,5.734,0.0,0.0,0.0,5.8727,5.8084,5.8389,0.0,0.0,5.8457,5.8287,5.7983,5.7881,5.7881,5.7881,5.7881,5.7848,5.7746,0.0,0.0,5.7814,5.822,5.893,6.025,6.1264,6.2212,6.3057,6.2888,6.2685,6.299,6.224,6.1285,6.0703,5.9434,5.8145,5.715,5.5398,5.4298,5.4162,5.2995,5.2366,5.2725,5.2157,5.1798,5.1798,5.1439,5.1229,5.1229,5.1229,5.1409,5.1798,5.1798,5.1798,5.1798,5.1798,5.2276,5.3174,5.3174,5.3922,5.5179,5.5179,5.5179,5.5179,5.5179,5.5179,5.5209,5.5508,5.5987,5.6645,5.7274,5.7962,5.859,0.0,5.578,5.5379,5.4818,5.4042,5.3518,5.3518,5.3518,5.3518,0.0,5.3518,5.3518,5.3518,5.3518,5.3518,5.3518,5.3518,5.3518,5.3518,5.3518,5.3518,5.3518,5.3518,5.3518,5.3518,5.3518,5.3518,5.3518,5.3518,5.3518,5.3518,5.3518,5.3856,5.4431,5.3788,5.4228,5.5412,5.416,5.4804,5.6738,5.7311,5.7712,0.0,0.0,5.8829,5.8896,5.8896,5.9302,5.9674,5.8423,5.8389,0.0,0.0,5.8423,5.8761,5.8084,5.7881,5.7881,5.7881,5.7881,5.8017,5.8626,5.7848,0.0,5.7543,5.778,5.7881,5.7881,5.9573,6.1061,6.1163,6.1163,6.1366,6.2042,6.167,6.1189,6.0854,6.067,5.9784,5.7621,5.656,5.5653,5.4578,5.3121,5.2217,5.2306,5.1618,5.1229,5.1229,5.1229,5.1229,5.1229,5.1229,5.1229,5.1229,5.1229,5.1229,5.1229,5.1229,5.1917,5.3174,5.3174,5.3922,5.5179,5.5179,5.5179,5.5179,5.5179,5.5179,5.5269,5.5927,5.6555,5.7184,5.7872,5.853,5.9099,5.7498,5.6059,5.4999,5.5437,5.4391,5.3518,5.3518,5.3518,5.3518,5.3518,5.3518,5.3518,5.3518,5.3518,5.3518,5.3518,5.3518,5.3518,5.3518,5.3518,5.3518,5.3518,5.3518,5.3518,5.3518,5.3518,5.3518,5.3518,5.3518,5.3518,5.3518,5.3518,5.3585,5.3721,5.3551,5.3653,5.3957,5.4262,5.4974,5.5912,5.5417,0.0,5.8693,5.7645,5.7611,5.8118,5.8118,5.8186,5.8389,5.8693,5.849,5.8186,5.866,5.849,5.8084,5.7915,5.7881,5.7881,5.7881,5.7881,5.778,5.734,5.7442,0.0,5.6393,5.7036,5.7881,5.7881,5.8727,5.9641,6.0216,6.0317,6.0385,6.052,6.096,6.1457,6.2009,6.1235,6.0417,5.9957,5.7634,5.6091,5.6457,5.391,5.2426,5.2935,5.1887,5.1229,5.1229,5.1229,5.1229,5.1229,5.1229,5.1229,5.1229,5.1229,5.1229,5.1229,5.1229,5.1917,5.3174,5.3174,5.3922,5.5179,5.5179,5.5179,5.5179,5.5179,5.5179,5.5269,5.5927,5.6555,5.7184,5.7872,5.853,5.9099,5.6789,5.561,5.4695,5.5084,5.4235,5.3518,5.3518,5.3518,5.3518,5.3518,5.3518,5.3518,5.3518,5.3518,5.3518,5.3518,5.3518,5.3518,5.3518,5.3518,5.3518,5.3518,5.3518,5.3518,5.3518,5.3518,5.3518,5.3518,5.3518,5.3518,5.3518,5.3518,5.3717,5.4042,5.3651,5.3717,5.4076,5.4058,5.4499,5.514,5.5179,0.0,5.8285,5.6806,5.6697,5.7306,5.6934,5.7036,5.7509,5.8626,5.8998,5.893,5.8558,5.8693,5.8829,5.8118,5.7881,5.7881,5.7881,5.7881,5.7881,5.7915,5.7611,0.0,0.0,5.6799,5.69,5.7273,5.7374,5.7611,5.8321,5.8457,5.8558,5.893,5.9641,6.0419,6.1163,6.1367,6.1317,6.067,5.9198,5.782,5.6653,5.4696,5.3152,5.2312,5.209,5.1819,5.1229,5.1229,5.1229,5.1229,5.1229,5.1229,5.1229,5.1229,5.1229,5.1229,5.1229,5.1917,5.3174,5.3174,5.3743,5.47,5.47,5.47,5.47,5.47,5.491,5.5299,5.6256,5.6825,5.7214,5.8231,5.883,5.9099,5.5667,5.5084,5.4606,5.4606,5.4011,5.3518,5.3518,5.3518,5.3518,5.3518,5.3518,5.3518,5.3518,5.3518,5.3551,5.3687,5.3585,5.3551,5.3687,5.3585,5.3518,5.3518,5.3518,5.3518,5.3518,5.3518,5.3518,5.3518,5.3518,5.3518,5.3518,5.3518,5.3849,0.0,5.3881,5.3946,0.0,0.0,0.0,5.4836,0.0,5.6269,5.7361,5.6029,5.5953,5.6528,5.5919,5.619,5.7002,5.8186,5.9066,5.9471,5.8254,5.8727,5.9438,5.8254,5.7881,5.7881,5.7881,5.7983,5.822,5.8693,5.8118,5.7476,0.0,0.0,0.0,5.6731,5.6461,5.6325,5.69,5.69,5.7036,5.778,5.8389,5.9066,5.9776,6.1061,6.166,6.0837,6.034,5.9284,5.6892,5.5743,5.4233,5.1972,5.2485,5.2575,5.188,5.1479,5.1293,5.1572,5.1293,5.1229,5.1229,5.1229,5.1229,5.1229,5.1229,5.1917,5.3174,5.3054,5.3443,5.4221,5.4221,5.4221,5.4221,5.4341,5.47,5.5329,5.6585,5.7094,5.7244,5.862,5.9099,5.9099,5.5437,5.5084,5.4606,5.4606,5.4011,5.3518,5.3518,5.3518,5.3518,5.3518,5.3518,5.3518,5.3518,0.0,0.0,0.0,0.0,5.3788,5.4431,5.3856,5.3518,5.3518,5.3518,5.3518,5.3518,5.3518,5.3518,5.3518,5.3518,5.3518,5.3518,5.3518,5.3551,0.0,5.42,0.0,0.0,0.0,5.4913,0.0,5.4938,5.5204,5.589,5.5075,5.5175,5.5818,5.575,5.619,5.6833,5.7002,5.7543,5.8118,5.7949,5.8017,5.8118,5.7949,5.7881,5.7881,5.7881,5.8389,5.8761,5.8152,5.8863,5.9235,5.734,0.0,5.8287,5.707,0.0,5.7679,5.7746,0.0,0.0,5.778,5.7949,5.8287,5.9032,5.9844,6.0545,6.1177,5.9671,5.8675,5.91,5.6969,5.5165,5.4317,5.3396,5.3221,5.4168,5.2305,5.1635,5.2634,5.1727,5.1229,5.1229,5.1229,5.1229,5.1229,5.1229,5.1917,5.3144,5.2576,5.2995,5.4221,5.4221,5.4221,5.4251,5.485,5.5119,5.5329,5.6585,5.7094,5.7244,5.862,5.9099,5.9099,5.4264,5.4171,5.3946,5.3946,5.3717,5.3518,5.3518,5.3518,5.3518,5.3518,5.3518,5.3518,0.0,0.0,0.0,0.0,0.0,5.3619,0.0,0.0,5.3518,5.3518,5.3518,5.3518,5.3518,5.3518,5.3518,5.3518,5.3518,5.3518,5.3518,5.3518,5.3717,0.0,5.4482,0.0,5.4791,0.0,5.5059,0.0,0.0,5.5015,5.5633,5.4849,5.4563,5.4499,5.4905,5.5243,5.5581,5.6021,5.6934,5.7746,5.69,5.7509,5.8389,5.7509,5.7543,5.7881,5.7881,5.8118,5.8389,5.8524,5.8693,5.8693,5.8186,5.7915,5.7679,5.7476,0.0,0.0,0.0,0.0,0.0,0.0,5.7611,5.8017,5.8321,5.8254,5.8795,6.0419,5.9866,5.9019,5.836,5.689,5.5539,5.4704,5.4723,5.4723,5.4589,5.3656,5.3077,5.29,5.2395,5.1911,5.1229,5.1229,5.1229,5.1229,5.1229,5.1708,5.2606,5.2336,5.2516,5.3054,5.3054,5.3264,5.3623,5.3922,5.4491,5.5329,5.6585,5.7094,5.7244,5.862,5.9099,5.9099,5.3518,5.3518,5.3518,5.3518,5.3518,5.3518,5.3518,5.3518,5.3518,5.3518,0.0,0.0,5.3518,5.3687,0.0,0.0,5.3923,5.389,0.0,0.0,5.3518,5.3518,0.0,0.0,0.0,5.3518,5.3518,5.3518,5.3518,5.3518,5.3518,5.3518,5.3783,5.4328,0.0,5.4878,5.5379,0.0,5.532,5.5948,5.5203,5.5203,5.561,5.4878,5.4171,5.3585,5.4093,5.4431,5.4668,5.5209,5.6258,5.7103,5.6055,5.6799,5.7915,5.6833,5.7036,5.7577,5.7577,5.7881,5.8287,5.8626,5.8457,5.8287,5.8626,5.8051,5.7509,5.7814,5.7205,0.0,0.0,0.0,5.6867,5.707,0.0,5.7645,5.7848,5.7273,5.7543,5.9573,5.9979,5.954,5.8274,5.7465,5.6591,5.5603,5.5772,5.5673,5.5197,5.463,5.4146,5.3796,5.3253,5.2485,5.1635,5.1386,5.1229,5.1229,5.1229,5.1558,5.2187,5.2007,5.2037,5.2217,5.2396,5.2725,5.3204,5.3593,5.4311,5.5299,5.6406,5.6944,5.7244,5.862,5.9099,5.9099,5.3518,5.3518,0.0,5.3518,5.3518,5.3518,5.3518,5.3518,0.0,0.0,0.0,0.0,0.0,0.0,0.0,0.0,0.0,5.4871,5.5581,0.0,5.3518,0.0,0.0,5.3518,0.0,5.3518,5.3518,5.3518,5.3518,5.3518,5.3518,5.3518,5.3484,5.3551,5.4264,5.4572,5.4695,5.5379,5.615,5.6809,5.6004,5.5667,5.561,5.4878,5.4171,5.3518,5.3518,5.3991,5.46,5.4634,5.5141,5.5784,5.5716,5.5784,5.5818,5.5784,5.6258,5.6833,5.6833,5.7881,5.8795,5.8084,5.8457,5.8795,5.8084,5.8457,5.8727,5.8017,5.8423,5.8693,5.7983,5.7273,5.7036,5.7746,5.7273,0.0,0.0,5.7273,5.7374,5.8863,5.9674,6.008,5.9971,5.9329,5.8586,5.7842,5.6146,5.5596,5.6655,5.4718,5.4293,5.6014,5.3967,5.29,5.2812,5.1727,5.1229,5.1229,5.1229,5.1558,5.2187,5.1528,5.1588,5.2247,5.2875,5.3144,5.3294,5.4581,5.5149,5.5269,5.5927,5.6555,5.7244,5.862,5.9099,5.9099,5.3518,5.3518,0.0,0.0,0.0,0.0,0.0,5.3518,0.0,0.0,0.0,0.0,0.0,5.5919,5.5953,0.0,0.0,5.5243,5.5006,5.4499,0.0,0.0,0.0,5.3518,0.0,0.0,5.3518,5.3518,5.3518,5.3518,0.0,0.0,5.3518,5.3484,0.0,5.4878,0.0,0.0,0.0,0.0,5.7315,5.7253,5.7137,5.5822,5.4878,5.4136,5.3685,5.3653,5.3856,5.3856,5.4363,5.4905,5.4397,5.4938,5.5615,5.5108,5.548,5.619,5.6664,5.7171,5.7611,5.7814,5.8084,5.822,5.7949,5.8457,5.8795,5.8051,5.849,5.8795,5.8017,5.7679,5.7611,5.7848,5.7679,5.7442,0.0,5.6968,5.7002,5.7476,5.8186,5.8626,5.8626,5.8423,5.7949,5.7239,5.6174,5.5665,5.6089,5.581,5.562,5.5512,5.523,5.4389,5.29,5.2485,5.1972,5.1229,5.1229,5.1349,5.1528,5.1319,5.1349,5.1588,5.2247,5.2785,5.3264,5.4162,5.479,5.5269,5.5927,5.6555,5.7214,5.8112,5.874,5.9099,5.3518,5.3518,0.0,0.0,0.0,0.0,0.0,0.0,0.0,0.0,5.5547,0.0,5.6359,0.0,5.663,0.0,5.6089,5.5784,5.504,5.4735,0.0,5.3551,5.3518,0.0,0.0,0.0,5.3518,5.3518,5.3518,5.3518,5.3518,5.3518,5.3518,5.3484,0.0,5.4757,5.5724,5.5724,5.658,0.0,5.7997,5.7875,5.7546,5.6492,5.5671,5.4925,5.3885,5.3518,5.3518,5.3518,5.3822,5.4126,5.3653,5.416,5.4837,5.4363,5.4735,5.5412,5.5886,5.6224,5.6596,5.7306,5.7509,5.7577,5.7814,5.8457,5.8795,5.8051,5.849,5.8693,5.7679,5.7712,5.7814,5.7543,5.7712,5.7543,0.0,5.619,5.6122,5.6393,5.7509,5.8287,5.8287,5.8287,5.778,5.6494,5.5987,5.5615,5.5344,5.6021,5.6208,5.5713,5.5996,5.5538,5.4052,5.3742,5.3165,5.2395,5.1972,5.1819,5.1819,5.1386,5.1349,5.1588,5.2247,5.2935,5.3593,5.4281,5.482,5.5239,5.5658,5.6346,5.7184,5.7872,5.853,5.9099,5.3518,5.3518,0.0,0.0,5.3518,0.0,0.0,0.0,5.4634,0.0,5.5344,5.5852,5.5886,5.6494,5.69,5.6867,5.6867,5.6562,5.5818,5.5108,0.0,0.0,5.3551,5.3551,5.3518,0.0,0.0,5.3518,5.3518,5.3518,5.3518,5.3518,0.0,0.0,5.3518,0.0,5.5724,5.5724,5.658,5.7997,5.795,5.7583,5.7036,5.6861,5.6425,5.5646,5.4122,5.3484,5.3518,5.3518,5.3518,5.3518,5.3518,5.3518,5.3518,5.3518,5.3991,5.4532,5.4566,5.5108,5.5818,5.6562,5.6765,5.6934,5.7679,5.8423,5.8761,5.8017,5.849,5.8558,5.707,5.7408,5.7645,5.6867,5.7306,5.7239,5.5852,5.504,5.4871,5.5615,5.7577,5.8896,5.8964,5.893,5.8017,5.5886,5.5649,5.531,5.4566,5.5277,5.6021,5.6731,5.6487,5.6282,5.6204,5.5166,5.4672,5.4589,5.3483,5.2989,5.29,5.1819,5.1588,5.2247,5.2905,5.3563,5.4251,5.491,5.5179,5.5179,5.5179,5.5987,5.7184,5.7902,5.856,5.9099,5.3518,5.3518,5.3518,0.0,5.3518,5.3518,0.0,0.0,0.0,0.0,5.6867,5.7543,5.8118,5.8321,5.822,5.7679,5.7611,0.0,0.0,0.0,0.0,5.4363,5.4329,5.4059,5.3518,5.3518,5.3518,5.3518,5.3518,5.3518,5.3518,5.3518,5.3518,5.3518,0.0,5.4328,5.5724,5.5724,5.658,5.795,5.7401,5.7764,5.8434,5.6689,5.6241,5.6434,5.4884,5.3946,5.3518,5.3518,5.3518,5.3518,5.3518,5.3518,5.3518,5.3518,5.3619,5.389,5.4431,5.4735,5.5074,5.5818,5.5987,5.619,5.69,5.7645,5.8118,5.7915,5.849,5.8558,5.707,5.7408,5.7476,5.619,5.5683,5.531,5.4938,5.4702,5.4871,5.5615,5.6224,5.7002,5.8084,5.7679,5.69,5.5784,5.4702,5.3991,5.3788,5.5006,5.5818,5.5987,5.6988,5.7039,5.6204,5.5968,5.541,5.4589,5.4337,5.3742,5.29,5.2575,5.2337,5.2247,5.2905,5.3563,5.4251,5.491,5.5179,5.5179,5.5179,5.5987,5.7244,5.8411,5.8949,5.9099,5.3518,5.3518,0.0,5.3518,0.0,0.0,5.4025,5.4329,0.0,5.619,5.6968,0.0,5.7983,5.8321,5.8355,5.7915,5.7881,0.0,5.6867,0.0,0.0,5.4668,5.46,5.4262,5.3518,5.3518,0.0,5.3518,5.3518,5.3518,5.3518,5.3518,5.3518,5.3518,0.0,5.4171,5.5262,5.5948,5.6927,5.795,5.7546,5.7886,0.0,5.721,5.6563,5.6233,5.5402,5.4391,5.3518,5.3518,5.3518,5.3518,5.3518,5.3518,5.3518,5.3518,5.3518,5.3585,5.4025,5.4126,5.4296,5.504,5.5209,5.5412,5.6156,5.69,5.7408,5.7408,5.8017,5.8186,5.7002,5.7408,5.7611,5.6799,5.6055,5.5547,5.5547,5.5277,5.5344,5.6089,5.619,5.6528,5.734,5.6765,5.5886,5.4837,5.4566,5.4194,5.3551,5.5209,5.6055,5.5716,5.7442,5.7891,5.6963,5.7263,5.6956,5.608,5.5571,5.497,5.4305,5.4229,5.4153,5.4144,5.4385,5.48,5.5372,5.52,5.5179,5.5209,5.5508,5.6226,5.7214,5.8291,5.886,5.9099,5.3518,5.3518,0.0,0.0,0.0,0.0,0.0,5.5076,0.0,5.6055,0.0,5.7103,5.7103,5.7577,5.7881,5.7881,5.7881,5.7577,5.6867,5.6799,5.6122,5.4668,5.46,5.4262,5.3518,5.3518,5.3518,5.3518,5.3518,5.3518,5.3518,5.3518,5.3518,0.0,0.0,0.0,5.4818,5.6295,5.7351,5.7997,5.7867,5.7904,5.7997,5.7867,5.7029,5.5836,5.5724,5.4791,5.3518,5.3518,5.3518,5.3518,5.3518,5.3518,5.3518,5.3518,5.3518,5.3518,5.3518,5.3518,5.3653,5.4296,5.4465,5.4634,5.5412,5.6156,5.6697,5.6799,5.7374,5.7679,5.6934,5.7239,5.7611,5.7611,5.707,5.6664,5.6664,5.6122,5.5987,5.6697,5.6697,0.0,5.6799,5.6224,5.5243,5.3754,5.4837,5.4972,5.3585,5.5412,5.6258,5.575,5.7679,5.849,5.8051,5.8592,5.8592,5.8017,5.692,5.636,5.6204,5.5992,5.6199,5.6646,5.6364,5.6528,5.6896,5.5918,5.5381,5.5269,5.6017,5.6615,5.7184,5.7962,5.862,5.9099,5.3518,0.0,0.0,0.0,0.0,5.5892,5.6325,5.7466,5.8324,5.8395,5.8558,5.8626,5.8626,5.8186,5.7881,5.7881,5.7881,0.0,5.6867,5.6799,5.6122,5.4668,5.46,5.4262,5.3518,5.3518,5.3518,5.3518,5.3518,5.3518,5.3518,5.3518,5.3518,5.3518,0.0,5.4235,5.5552,5.651,5.7351,5.795,5.7351,5.7449,5.795,5.7351,5.6912,5.6616,5.5948,5.4791,5.3518,5.3518,5.3518,5.3518,5.3518,5.3518,5.3518,5.3518,5.3518,5.3518,5.3518,5.3518,5.3551,5.3653,5.3687,5.389,5.4634,5.5378,5.6089,5.6664,5.7374,5.7679,5.6934,5.6427,5.6089,5.6089,5.5987,5.5919,5.5919,5.5784,5.5987,5.6697,5.6258,5.6156,5.6731,5.6697,5.5987,5.4499,5.4634,5.4397,5.3551,5.4431,5.5209,5.5683,5.6664,5.7712,5.8795,5.8321,5.8321,5.8829,5.8005,5.7114,5.6237,5.6836,5.6986,5.6733,5.726,5.733,5.6991,5.68,5.6085,5.5299,5.6466,5.7004,5.7244,5.8471,5.9009,5.9099,0.0,0.0,0.0,0.0,0.0,5.6679,5.7785,5.8941,5.9392,5.8569,5.8118,5.7881,5.7881,5.7881,5.7881,5.7881,5.7881,5.7577,5.6867,5.6799,5.6122,5.4668,5.46,5.4262,5.3518,5.3518,5.3518,5.3518,5.3518,5.3518,5.3518,5.3518,5.3518,5.3518,5.3518,5.4328,5.5724,5.6114,5.6927,5.7997,5.7631,5.7449,5.7449,5.7449,5.6978,5.6259,5.5836,5.4999,5.3977,5.3618,5.3518,5.3518,5.3518,5.3518,5.3518,5.3518,5.3518,5.3518,5.3518,5.3518,5.3518,5.3518,5.3518,5.3585,5.3957,5.46,5.5344,5.6089,5.6833,5.734,5.7374,5.707,5.6833,5.6833,5.6833,5.6833,5.6833,5.6833,5.6833,5.6799,5.6494,5.6122,5.5683,5.6021,5.5784,5.4668,5.46,5.4262,5.3551,5.4566,5.5344,5.5716,5.6799,5.7712,5.8423,5.8457,5.8457,5.8423,5.8051,5.783,5.764,5.8485,5.8906,5.9119,5.9226,5.9111,5.8812,5.7934,5.6984,5.6226,5.6855,5.7304,5.7693,5.8351,5.88,5.9099,0.0,5.3721,0.0,0.0,5.6098,5.7466,5.8564,5.9484,5.9698,5.8773,5.7814,5.7273,5.7273,5.7645,5.7814,5.7679,5.7645,5.7273,5.6393,5.6325,5.575,5.4431,5.4363,5.4093,5.3518,5.3518,5.3518,5.3518,5.3518,5.3518,5.3518,5.3518,5.3518,5.3518,5.3518,5.4235,5.5495,5.5495,5.6277,5.7546,5.7726,5.7351,5.6721,5.7498,5.7029,5.5893,5.561,5.5203,5.4695,5.3783,5.3518,5.3518,5.3518,5.3518,5.3518,5.3518,5.3518,5.3518,5.3518,5.3518,5.3518,5.3518,5.3518,5.3518,5.3518,5.4059,5.4769,5.5344,5.6055,5.6697,5.7103,5.7442,5.7611,5.7442,5.7679,5.7881,5.7881,5.7881,5.7611,5.69,5.6799,5.6292,5.4938,5.5209,5.5243,5.4634,5.46,5.4329,5.3754,5.4837,5.5547,5.5716,5.6968,5.7814,5.8118,5.8558,5.8558,5.8118,5.8118,5.8457,5.9032,5.9945,6.0689,6.1255,6.1098,6.0769,6.0337,5.8625,5.7656,5.7094,5.7244,5.7633,5.8141,5.8291,5.865,5.9099,0.0,0.0,5.4735,5.548,5.6803,5.7891,5.7949,5.8632,5.9546,6.0825,5.9708,5.8795,5.8795,5.8254,5.7611,5.6968,5.69,5.6292,5.4905,5.4803,5.4431,5.3653,5.3619,5.3585,5.3518,5.3518,5.3518,5.3518,5.3518,5.3518,5.3518,5.3518,5.3518,5.3518,5.3518,5.3946,5.4695,5.4695,5.5144,5.6004,5.6721,5.6527,5.5893,5.6721,5.6912,5.6616,5.5238,5.5084,5.5379,5.3946,5.3518,5.3518,5.3518,5.3518,5.3518,5.3518,5.3518,5.3518,5.3518,5.3518,5.3518,5.3518,5.3518,5.3518,5.3518,5.4059,5.46,5.4668,5.5277,5.5649,5.5006,5.5987,5.6697,5.6021,5.7036,5.7881,5.7881,5.7881,5.7611,5.69,5.6799,5.6494,5.5683,5.504,5.4668,5.46,5.46,5.4566,5.4499,5.4634,5.5006,5.5683,5.6494,5.7543,5.8896,5.8287,5.8287,5.8896,5.8896,5.893,5.9066,6.052,6.1231,6.1332,6.1964,6.1318,5.9772,5.856,5.7656,5.7154,5.7782,5.8052,5.8201,5.88,5.9069,5.9099,5.5209,5.5277,5.5513,5.6258,5.6867,5.7543,5.8423,5.8423,5.8727,5.9776,5.8998,5.8186,5.7746,5.7814,5.7408,5.6258,5.6562,5.6156,5.4702,5.46,5.4262,5.3551,5.3518,5.3518,5.3518,5.3518,5.3518,5.3518,5.3518,5.3518,5.3518,5.3518,5.3518,5.3518,5.3518,5.3881,5.4606,5.4606,5.5059,5.5724,5.6059,5.5724,5.5084,5.5893,5.5893,5.5472,5.4818,5.4818,5.4878,5.3849,5.3518,5.3518,5.3518,5.3518,5.3518,5.3518,5.3518,5.3518,5.3518,5.3518,5.3518,5.3518,5.3518,5.3518,5.3518,5.3721,5.4059,5.4499,5.5547,5.6156,5.5412,5.6089,5.6697,5.6427,5.6867,5.7374,5.7814,5.7509,5.6968,5.6258,5.575,5.5175,5.4465,5.4126,5.4296,5.5209,5.4431,5.3923,5.3923,5.3923,5.4499,5.5683,5.6021,5.6867,5.8321,5.8051,5.8254,5.9032,5.9032,5.9505,6.0419,6.1028,6.1535,6.2009,6.2753,6.2499,6.1451,6.0676,5.9991,5.9356,5.8881,5.871,5.874,5.9009,5.9099,5.9099,5.5987,5.6021,5.6258,5.7002,5.7137,5.7476,5.8524,5.822,5.8017,5.8321,5.7915,5.7374,5.6867,5.7273,5.6968,5.5513,5.5852,5.5615,5.4363,5.4262,5.4025,5.3518,5.3518,5.3518,5.3518,5.3518,5.3518,5.3518,5.3518,5.3518,5.3518,5.3518,5.3518,5.3518,5.3518,5.3783,5.4264,5.4264,5.4606,5.5059,5.5262,5.4939,5.4391,5.5119,5.5024,5.4606,5.4391,5.4419,5.4482,5.3783,5.3518,5.3518,5.3518,5.3518,5.3518,5.3518,5.3518,5.3518,5.3518,5.3518,5.3518,5.3518,5.3518,5.3518,5.3518,5.3518,5.3653,5.416,5.5277,5.5987,5.548,5.6156,5.6799,5.6799,5.6968,5.7239,5.7509,5.7137,5.6461,5.5513,5.4905,5.4296,5.3585,5.3518,5.3923,5.4972,5.4093,5.3687,5.4126,5.3957,5.4397,5.5683,5.5919,5.663,5.7881,5.7881,5.8152,5.8693,5.9133,5.9911,6.096,6.1434,6.1907,6.2415,6.3193,6.3216,6.2651,6.2528,6.1852,6.0887,6.0045,5.9392,5.9099,5.9099,5.9099,5.9099,5.663,5.6799,5.7036,5.7746,5.7881,5.7881,5.7915,5.7881,5.7645,5.6934,5.6833,5.6799,5.6799,5.6799,5.6224,5.4735,5.46,5.4296,5.3551,5.3518,5.3518,5.3518,5.3518,5.3518,5.3518,5.3518,5.3518,5.3518,5.3518,5.3518,5.3518,5.3518,5.3518,5.3518,5.3518,5.3518,5.3484,5.3484,5.3518,5.3618,5.4328,5.4136,5.3618,5.4328,5.4606,5.4482,5.3783,5.4011,5.4482,5.3783,5.3518,5.3518,5.3518,5.3518,5.3518,5.3518,5.3518,5.3518,5.3518,5.3518,5.3518,5.3518,5.3518,5.3518,5.3518,5.3518,5.3518,5.3518,5.4093,5.46,5.46,5.5818,5.6799,5.6799,5.7408,5.7645,5.69,5.6799,5.6258,5.4769,5.46,5.4296,5.3585,5.3518,5.3518,5.3518,5.3518,5.416,5.5615,5.4972,5.4938,5.5683,5.6427,5.7137,5.7881,5.7881,5.7881,5.7915,5.937,6.0114,6.0182,6.167,6.2381,6.2415,6.3193,6.3216,6.2738,6.3429,6.2711,6.0989,6.0989,6.0255,5.9099,5.9099,5.9099,5.9099,5.7476,5.7543,5.7611,5.7848,5.7881,5.7712,5.7239,5.7137,5.69,5.6156,5.6055,5.5852,5.5344,5.575,5.548,5.3991,5.4296,5.4296,5.3551,5.3518,5.3518,5.3518,5.3518,5.3518,5.3518,5.3518,5.3518,5.3518,5.3518,5.3518,5.3518,5.3518,5.3518,5.3518,5.3518,5.3518,5.3518,5.3518,5.3518,5.3484,5.3783,5.3717,5.3518,5.3783,5.3815,5.3849,5.3551,5.3685,5.3849,5.3551,5.3518,5.3518,5.3518,5.3518,5.3518,5.3518,5.3518,5.3518,5.3518,5.3518,5.3518,5.3518,5.3518,5.3518,5.3518,5.3518,5.3788,5.4803,5.5209,5.5344,5.5344,5.6156,5.6799,5.6799,5.6596,5.6494,5.6765,5.5919,5.5108,5.4634,5.416,5.3754,5.3518,5.3518,5.3721,5.4194,5.3788,5.3721,5.4194,5.4431,5.4938,5.5683,5.6427,5.7137,5.7881,5.7881,5.8389,5.9404,5.9877,6.0655,6.167,6.2178,6.2381,6.2415,6.3193,6.366,6.4003,6.3814,6.376,6.3512,6.1665,6.0712,6.0224,5.9392,5.9099,5.9099,5.7881,5.7881,5.7881,5.7881,5.7679,5.734,5.6867,5.6562,5.6122,5.5378,5.531,5.5006,5.4262,5.46,5.4499,5.3585,5.3923,5.3991,5.3551,5.3518,5.3518,5.3518,5.3518,5.3518,5.3518,5.3518,5.3518,5.3518,5.3518,5.3518,5.3518,5.3518,5.3518,5.3518,5.3518,5.3518,5.3518,5.3518,5.3518,5.3518,5.3518,5.3518,5.3518,5.3518,5.3518,5.3518,5.3518,5.3518,5.3518,5.3518,5.3518,5.3518,5.3518,5.3518,5.3518,5.3518,5.3518,5.3518,5.3518,5.3518,5.3518,5.3518,5.3518,5.3585,5.3856,5.3923,5.4262,5.548,5.5919,5.6122,5.6122,5.6731,5.7205,5.7205,5.6596,5.619,5.6359,5.5344,5.4499,5.4228,5.4025,5.3923,5.3923,5.3923,5.4093,5.4566,5.3923,5.3619,5.389,5.4329,5.4938,5.5683,5.6427,5.7306,5.8287,5.8321,5.8896,6.0114,6.0419,6.1197,6.2381,6.2381,6.2381,6.2415,6.3193,6.3937,6.4566,6.4537,6.4718,6.4778,6.3132,6.1865,6.0887,6.015,5.9469,5.9099,5.7881,5.7881,5.7881,5.7881,5.7273,5.6799,5.6731,5.6122,5.5378,5.46,5.4499,5.4262,5.3585,5.3518,5.3518,5.3518,5.3518,5.3518,5.3518,5.3518,5.3518,5.3518,5.3518,5.3518,5.3518,5.3518,5.3518,5.3518,5.3518,5.3518,5.3518,5.3518,5.3518,5.3518,5.3518,5.3518,5.3518,5.3518,5.3518,5.3518,5.3518,5.3518,5.3518,5.3518,5.3518,5.3518,5.3518,5.3518,5.3518,5.3518,5.3518,5.3518,5.3518,5.3518,5.3518,5.3518,5.3518,5.3518,5.3518,5.3518,5.3518,5.3551,5.3585,5.3788,5.4566,5.4668,5.4837,5.5683,5.6359,5.6833,5.6867,5.7442,5.7881,5.7814,5.7205,5.6461,5.575,5.5006,5.4262,5.3585,5.416,5.46,5.46,5.46,5.46,5.46,5.3923,5.3788,5.4465,5.46,5.5006,5.5784,5.6494,5.7543,5.893,5.8998,5.9404,6.0182,6.0994,6.1738,6.2381,6.2381,6.2381,6.2415,6.3125,6.3869,6.4647,6.5324,6.5411,6.4992,6.4959,6.3322,6.1091,6.0989,6.015,5.9099,5.7881,5.7881,5.7881,5.7881,5.7273,5.663,5.6055,5.5344,5.46,5.3856,5.3754,5.3687,5.3518,5.3518,5.3518,5.3518,5.3518,5.3518,5.3518,5.3518,5.3518,5.3518,5.3518,5.3518,5.3518,5.3518,5.3518,5.3518,5.3518,5.3518,5.3518,5.3518,5.3518,5.3518,5.3518,5.3518,5.3518,5.3518,5.3518,5.3518,5.3518,5.3518,5.3518,5.3518,5.3518,5.3518,5.3518,5.3518,5.3518,5.3518,5.3518,5.3518,5.3518,5.3518,5.3518,5.3518,5.3518,5.3518,5.3518,5.3518,5.3653,5.4194,5.4329,5.4668,5.5987,5.5412,5.5108,5.7002,5.707,5.6968,5.7543,5.778,5.7712,5.7137,5.6461,5.5716,5.4972,5.4228,5.3687,5.3518,5.416,5.46,5.46,5.46,5.46,5.46,5.3923,5.3585,5.3754,5.4837,5.5784,5.6528,5.7273,5.7814,5.8152,5.8727,5.9674,6.1028,6.1772,6.2212,6.2381,6.2381,6.2381,6.2415,6.2584,6.3396,6.4613,6.4783,6.5429,6.6235,6.526,6.3919,6.239,6.1395,6.015,5.9099,5.7881,5.7881,5.7881,5.7881,5.7002,5.6156,5.5784,5.4803,5.3957,5.3551,5.3518,5.3518,5.3518,5.3518,5.3518,5.3518,5.3518,5.3518,5.3518,5.3518,5.3518,5.3518,5.3518,5.3518,5.3518,5.3518,5.3518,5.3518,5.3518,5.3518,5.3518,5.3518,5.3518,5.3518,5.3518,5.3518,5.3518,5.3518,5.3518,5.3518,5.3518,5.3518,5.3518,5.3518,5.3518,5.3518,5.3518,5.3518,5.3518,5.3518,5.3518,5.3518,5.3518,5.3518,5.3518,5.3518,5.3518,5.3518,5.3518,5.3754,5.4194,5.4905,5.5108,5.5412,5.6528,5.619,5.6021,5.7577,5.7577,5.7408,5.7814,5.7881,5.7645,5.6934,5.619,5.5446,5.4702,5.3957,5.3518,5.3518,5.4465,5.5108,5.5108,5.5108,5.5108,5.5108,5.4126,5.3788,5.4465,5.5277,5.5886,5.6292,5.7679,5.8558,5.8896,6.0013,6.096,6.1806,6.2212,6.2381,6.2381,6.2381,6.2381,6.2381,6.2381,6.3226,6.4613,6.4613,6.5459,6.6728,6.6029,6.4992,6.3732,6.239,6.1122,5.9864,5.7881,5.7814,5.7712,5.7712,5.6528,5.5547,5.5547,5.4397,5.3518,5.3518,5.3518,5.3518,5.3518,5.3518,5.3518,5.3518,5.3518,5.3518,5.3518,5.3518,5.3518,5.3518,5.3518,5.3518,5.3518,5.3518,5.3518,5.3518,5.3518,5.3518,5.3518,5.3518,5.3518,5.3518,5.3518,5.3518,5.3518,5.3518,5.3518,5.3518,5.3518,5.3518,5.3518,5.3518,5.3518,5.3518,5.3518,5.3518,5.3518,5.3518,5.3518,5.3518,5.3518,5.3518,5.3518,5.3518,5.3518,5.3518,5.3653,5.4296,5.5074,5.5716,5.5886,5.6089,5.6799,5.6867,5.7002,5.7746,5.7881,5.7881,5.7881,5.7814,5.7509,5.69,5.6089,5.5344,5.4668,5.3957,5.3518,5.3518,5.4803,5.5683,5.5547,5.5649,5.5716,5.5716,5.4465,5.4262,5.5649,5.5818,5.5886,5.5886,5.7814,5.9201,5.9945,6.1332,6.211,6.2245,6.2347,6.2381,6.2381,6.2516,6.2516,6.2381,6.2516,6.3328,6.4613,6.4613,6.5459,6.6812,6.6812,6.6029,6.4778,6.3671,6.2291,6.0815,5.7881,5.7408,5.6968,5.6968,5.575,5.4769,5.4769,5.4059,5.3518,5.3518,5.3518,5.3518,5.3518,5.3518,5.3518,5.3518,5.3518,5.3518,5.3518,5.3518,5.3518,5.3518,5.3518,5.3518,5.3518,5.3518,5.3518,5.3518,5.3518,5.3518,5.3518,5.3518,5.3518,5.3518,5.3518,5.3518,5.3518,5.3518,5.3518,5.3518,5.3518,5.3518,5.3518,5.3518,5.3518,5.3518,5.3518,5.3518,5.3518,5.3518,5.3518,5.3518,5.3518,5.3518,5.3518,5.3518,5.3518,5.3653,5.4262,5.5412,5.6494,5.6596,5.663,5.6833,5.7543,5.7239,5.7002,5.7746,5.7881,5.7881,5.7881,5.7374,5.6934,5.6833,5.5649,5.4735,5.46,5.3957,5.3518,5.3518,5.4803,5.548,5.4837,5.5344,5.5716,5.5716,5.4905,5.4803,5.5683,5.6292,5.663,5.663,5.7577,5.8423,5.9167,6.0047,6.0791,6.1467,6.211,6.2381,6.2415,6.3057,6.299,6.2415,6.3057,6.3802,6.4613,6.4613,6.5459,6.6812,6.6812,6.6029,6.4869,6.4688,6.3036,6.0989,5.7881,5.7611,5.7273,5.6867,5.5919,5.5074,5.4668,5.3957,5.3518,5.3518,5.3518,5.3518,5.3518,5.3518,5.3518,5.3518,5.3518,5.3518,5.3518,5.3518,5.3518,5.3518,5.3518,5.3518,5.3518,5.3518,5.3518,5.3518,5.3518,5.3518,5.3518,5.3518,5.3518,5.3518,5.3518,5.3518,5.3518,5.3518,5.3518,5.3518,5.3518,5.3518,5.3518,5.3518,5.3518,5.3518,5.3518,5.3518,5.3518,5.3518,5.3518,5.3518,5.3518,5.3518,5.3518,5.3518,5.3518,5.3754,5.4871,5.5683,5.6393,5.7171,5.7374,5.7476,5.7814,5.7645,5.7476,5.7814,5.7881,5.7881,5.7881,5.7611,5.7273,5.6867,5.5919,5.504,5.4668,5.4296,5.4093,5.4093,5.5378,5.6156,5.5818,5.6089,5.6292,5.6292,5.5615,5.5513,5.6258,5.663,5.6968,5.7374,5.8118,5.9066,6.025,6.0588,6.1129,6.1907,6.2245,6.2381,6.2415,6.2753,6.2719,6.2415,6.2753,6.3565,6.4613,6.4613,6.5222,6.6237,6.6643,6.617,6.5287,6.5038,6.4105,6.294,5.7881,5.7746,5.7408,5.6664,5.5953,5.5209,5.4465,5.3856,5.3518,5.3518,5.3518,5.3518,5.3518,5.3518,5.3518,5.3518,5.3518,5.3518,5.3518,5.3518,5.3518,5.3518,5.3518,5.3518,5.3518,5.3518,5.3518,5.3518,5.3518,5.3518,5.3518,5.3518,5.3518,5.3518,5.3518,5.3518,5.3518,5.3518,5.3518,5.3518,5.3518,5.3518,5.3518,5.3518,5.3518,5.3518,5.3518,5.3518,5.3518,5.3518,5.3518,5.3518,5.3518,5.3518,5.3518,5.3518,5.3518,5.3822,5.531,5.5953,5.6494,5.7611,5.7881,5.7881,5.7881,5.7881,5.7881,5.7881,5.7881,5.7881,5.7881,5.7746,5.7442,5.69,5.6055,5.5243,5.4668,5.46,5.46,5.46,5.5886,5.6731,5.6562,5.6697,5.6799,5.6799,5.6292,5.6292,5.7036,5.707,5.7306,5.7881,5.8457,5.9404,6.0757,6.0926,6.14,6.2144,6.2313,6.2381,6.2381,6.2584,6.255,6.2415,6.2753,6.3531,6.4613,6.4783,6.529,6.6,6.6576,6.644,6.5917,6.5534,6.5171,6.4597,5.7881,5.734,5.6664,5.5919,5.5175,5.4431,5.3687,5.3551,5.3518,5.3518,5.3518,5.3518,5.3518,5.3518,5.3518,5.3518,5.3518,5.3518,5.3518,5.3518,5.3518,5.3518,5.3518,5.3518,5.3518,5.3518,5.3518,5.3518,5.3518,5.3518,5.3518,5.3518,5.3518,5.3518,5.3518,5.3518,5.3518,5.3518,5.3518,5.3518,5.3518,5.3518,5.3518,5.3518,5.3518,5.3518,5.3518,5.3518,5.3518,5.3518,5.3518,5.3518,5.3518,5.3518,5.3518,5.3518,5.3518,5.3822,5.531,5.6697,5.7746,5.7848,5.7881,5.7881,5.7881,5.7881,5.7881,5.7881,5.7881,5.7881,5.7881,5.734,5.6867,5.6799,5.5615,5.4668,5.46,5.46,5.46,5.46,5.5886,5.6528,5.5852,5.6393,5.6799,5.6799,5.6765,5.7036,5.778,5.7814,5.7814,5.7881,5.7949,5.8355,5.9167,5.9844,6.0588,6.14,6.2076,6.2381,6.2415,6.3125,6.3057,6.2482,6.3835,6.4512,6.4647,6.5324,6.6034,6.6745,6.6779,6.6779,6.6745,6.6694,6.5942,6.4869,5.7983,5.7306,5.6562,5.5852,5.5108,5.4329,5.3619,5.3518,5.3518,5.3518,5.3518,5.3518,5.3518,5.3518,5.3518,5.3518,5.3518,5.3518,5.3518,5.3518,5.3518,5.3518,5.3518,5.3518,5.3518,5.3518,5.3518,5.3518,5.3518,5.3518,5.3518,5.3518,5.3518,5.3518,5.3518,5.3518,5.3518,5.3518,5.3518,5.3518,5.3518,5.3518,5.3518,5.3518,5.3518,5.3518,5.3518,5.3518,5.3518,5.3518,5.3518,5.3518,5.3518,5.3822,5.416,5.416,5.4499,5.5006,5.5581,5.6122,5.6765,5.7679,5.7881,5.7881,5.7881,5.7881,5.7881,5.7881,5.7881,5.7881,5.7881,5.7679,5.7476,5.7476,5.663,5.5953,5.5953,5.5953,5.5953,5.5953,5.6867,5.7374,5.7103,5.7306,5.7476,5.7476,5.7476,5.7577,5.7881,5.7881,5.7881,5.7881,5.7881,5.8457,5.9674,5.9945,6.0723,6.1975,6.2245,6.2381,6.2415,6.2685,6.2651,6.2415,6.299,6.3734,6.458,6.441,6.5053,6.6102,6.6102,6.6102,6.617,6.6643,6.6525,6.5942,5.7983,5.7306,5.6562,5.5852,5.5108,5.4329,5.3619,5.3518,5.3518,5.3518,5.3518,5.3518,5.3518,5.3518,5.3518,5.3518,5.3518,5.3518,5.3518,5.3518,5.3518,5.3518,5.3518,5.3518,5.3518,5.3518,5.3518,5.3518,5.3518,5.3518,5.3518,5.3518,5.3518,5.3518,5.3518,5.3518,5.3518,5.3518,5.3518,5.3518,5.3518,5.3518,5.3518,5.3518,5.3518,5.3518,5.3518,5.3518,5.3518,5.3518,5.3518,5.3551,5.3788,5.4194,5.4532,5.4329,5.4769,5.5412,5.5649,5.5886,5.6359,5.7577,5.7881,5.7881,5.7881,5.7881,5.7881,5.7881,5.7881,5.7881,5.7881,5.7881,5.7814,5.7577,5.7137,5.6731,5.6494,5.6664,5.6799,5.6799,5.7442,5.7881,5.7881,5.7881,5.7881,5.7881,5.7881,5.7881,5.7881,5.7881,5.7881,5.7881,5.7881,5.849,5.9742,5.9979,6.0858,6.2381,6.2381,6.2381,6.2381,6.2381,6.2381,6.2415,6.2651,6.3328,6.4241,6.3971,6.4444,6.5358,6.5595,6.5696,6.5764,6.6542,6.6812,6.6728,5.7881,5.7306,5.6562,5.5852,5.5108,5.4329,5.3619,5.3518,5.3518,5.3518,5.3518,5.3518,5.3518,5.3518,5.3518,5.3518,5.3518,5.3518,5.3518,5.3518,5.3518,5.3518,5.3518,5.3518,5.3518,5.3518,5.3518,5.3518,5.3518,5.3518,5.3518,5.3518,5.3518,5.3518,5.3518,5.3518,5.3518,5.3518,5.3518,5.3518,5.3518,5.3518,5.3518,5.3518,5.3518,5.3518,5.3518,5.3518,5.3518,5.3518,5.3518,5.3619,5.4363,5.46,5.4431,5.3721,5.4025,5.4769,5.5513,5.6258,5.6968,5.7712,5.7881,5.7881,5.7881,5.7881,5.7881,5.7881,5.7881,5.7881,5.7881,5.7881,5.7645,5.6934,5.6799,5.6562,5.5852,5.6359,5.6799,5.6799,5.7442,5.7881,5.7881,5.7881,5.7881,5.7881,5.7881,5.7881,5.7881,5.7881,5.7881,5.7881,5.7881,5.8254,5.8998,5.9742,6.0858,6.2381,6.2381,6.2381,6.2381,6.2381,6.2381,6.2415,6.3193,6.3497,6.3565,6.4275,6.458,6.4681,6.5392,6.5662,6.5764,6.6542,6.6812,6.6812,5.7983,5.7306,5.6562,5.5852,5.5108,5.4329,5.3619,5.3518,5.3518,5.3518,5.3518,5.3518,5.3518,5.3518,5.3518,5.3518,5.3518,5.3518,5.3518,5.3518,5.3518,5.3518,5.3518,5.3518,5.3518,5.3518,5.3518,5.3518,5.3518,5.3518,5.3518,5.3518,5.3518,5.3518,5.3518,5.3518,5.3518,5.3518,5.3518,5.3518,5.3518,5.3518,5.3518,5.3518,5.3518,5.3518,5.3518,5.3518,5.3518,5.3518,5.3518,5.3619,5.4363,5.4228,5.3991,5.4803,5.5209,5.5547,5.6292,5.7002,5.7611,5.7848,5.7881,5.7881,5.7881,5.7881,5.7881,5.7881,5.7881,5.7881,5.7881,5.7881,5.7814,5.7611,5.7577,5.7476,5.7273,5.7442,5.7577,5.7577,5.7746,5.7881,5.7881,5.7881,5.7881,5.7881,5.7881,5.7881,5.7881,5.7881,5.7881,5.7881,5.7881,5.8254,5.8998,5.9742,6.0622,6.1637,6.2144,6.2381,6.2381,6.2381,6.2381,6.2415,6.2618,6.3024,6.3497,6.3193,6.3666,6.4613,6.485,6.5222,6.5764,6.6542,6.6812,6.6812,5.7983,5.7306,5.6664,5.6224,5.5277,5.4431,5.3991,5.3687,5.3518,5.3518,5.3518,5.3518,5.3518,5.3518,5.3518,5.3518,5.3518,5.3518,5.3518,5.3518,5.3518,5.3518,5.3518,5.3518,5.3518,5.3518,5.3518,5.3518,5.3518,5.3518,5.3518,5.3518,5.3518,5.3518,5.3518,5.3518,5.3518,5.3518,5.3518,5.3518,5.3518,5.3518,5.3518,5.3518,5.3518,5.3518,5.3518,5.3518,5.3518,5.3518,5.3687,5.3957,5.4126,5.4059,5.4126,5.5006,5.548,5.5886,5.6596,5.734,5.7881,5.7881,5.7881,5.7881,5.7881,5.7881,5.7881,5.7881,5.7881,5.7881,5.7881,5.7881,5.7881,5.7881,5.7881,5.7881,5.7881,5.7881,5.7881,5.7881,5.7881,5.7881,5.7881,5.7881,5.7881,5.7881,5.7881,5.7881,5.7881,5.7881,5.7881,5.7881,5.7881,5.8118,5.8558,5.9302,6.0216,6.1298,6.1738,6.211,6.2381,6.2381,6.2381,6.2381,6.2381,6.2651,6.3057,6.2888,6.3193,6.3802,6.4681,6.5121,6.5392,6.644,6.6812,6.6812,5.7881,5.734,5.6867,5.6799,5.5683,5.4735,5.46,5.4025,5.3585,5.3518,5.3518,5.3518,5.3518,5.3518,5.3518,5.3518,5.3518,5.3518,5.3518,5.3518,5.3518,5.3518,5.3518,5.3518,5.3518,5.3518,5.3518,5.3518,5.3518,5.3518,5.3518,5.3518,5.3518,5.3518,5.3518,5.3518,5.3518,5.3518,5.3518,5.3518,5.3518,5.3518,5.3518,5.3518,5.3518,5.3518,5.3518,5.3518,5.3518,5.3518,5.3957,5.4363,5.3721,5.4025,5.46,5.4668,5.5209,5.5987,5.6697,5.7374,5.7881,5.7881,5.7881,5.7881,5.7881,5.7881,5.7881,5.7881,5.7881,5.7881,5.7881,5.7881,5.7881,5.7881,5.7881,5.7881,5.7881,5.7881,5.7881,5.7881,5.7881,5.7881,5.7881,5.7881,5.7881,5.7881,5.7881,5.7881,5.7881,5.7881,5.7881,5.7881,5.7881,5.7881,5.7881,5.8626,5.9742,6.1197,6.1264,6.167,6.2381,6.2381,6.2381,6.2381,6.2381,6.2381,6.2448,6.3125,6.3024,6.2584,6.4749,6.5189,6.4783,6.6271,6.6812,6.6812,5.7881,5.7746,5.7476,5.69,5.6528,5.5919,5.4769,5.4465,5.416,5.3585,5.3518,5.3518,5.3518,5.3518,5.3518,5.3518,5.3518,5.3518,5.3518,5.3518,5.3518,5.3518,5.3518,5.3518,5.3518,5.3518,5.3518,5.3518,5.3518,5.3518,5.3518,5.3518,5.3518,5.3518,5.3518,5.3518,5.3518,5.3518,5.3518,5.3518,5.3518,5.3518,5.3518,5.3518,5.3518,5.3518,5.3518,5.3518,5.3518,5.3518,5.3619,5.3721,5.3551,5.4025,5.4702,5.531,5.5987,5.6731,5.7442,5.778,5.7881,5.7881,5.7881,5.7881,5.7881,5.7881,5.7881,5.7881,5.7881,5.7881,5.7881,5.7881,5.7881,5.7881,5.7881,5.7881,5.7881,5.7881,5.7881,5.7881,5.7881,5.7881,5.7881,5.7881,5.7881,5.7881,5.7881,5.7881,5.7881,5.7881,5.7881,5.7881,5.7881,5.7881,5.7881,5.8626,5.9471,6.0385,6.0994,6.167,6.2381,6.2381,6.2381,6.2381,6.2381,6.2381,6.2415,6.255,6.2516,6.255,6.4208,6.4749,6.4783,6.6271,6.6812,6.6812,5.7949,5.7881,5.778,5.7374,5.6731,5.6021,5.5243,5.4532,5.3923,5.3551,5.3518,5.3518,5.3518,5.3518,5.3518,5.3518,5.3518,5.3518,5.3518,5.3518,5.3518,5.3518,5.3518,5.3518,5.3518,5.3518,5.3518,5.3518,5.3518,5.3518,5.3518,5.3518,5.3518,5.3518,5.3518,5.3518,5.3518,5.3518,5.3518,5.3518,5.3518,5.3518,5.3518,5.3518,5.3518,5.3518,5.3518,5.3518,5.3518,5.3518,5.3518,5.3518,5.3518,5.4025,5.4735,5.548,5.6224,5.6968,5.7679,5.7881,5.7881,5.7881,5.7881,5.7881,5.7881,5.7881,5.7881,5.7881,5.8186,5.8321,5.7949,5.8186,5.8423,5.8423,5.8118,5.8017,5.8389,5.8118,5.8017,5.8389,5.8118,5.8017,5.8389,5.8423,5.8423,5.8423,5.8423,5.8254,5.7915,5.7881,5.7881,5.7881,5.8254,5.8423,5.8423,5.9167,5.9911,6.0689,6.1095,6.167,6.2381,6.2381,6.2381,6.2381,6.2381,6.2381,6.2415,6.2787,6.2719,6.2584,6.441,6.4918,6.4783,6.6271,6.6812,6.6812,5.8017,5.7881,5.7881,5.7881,5.69,5.6021,5.575,5.4668,5.3788,5.3551,5.3518,5.3518,5.3518,5.3518,5.3518,5.3518,5.3518,5.3518,5.3518,5.3518,5.3518,5.3518,5.3518,5.3518,5.3518,5.3518,5.3518,5.3518,5.3518,5.3518,5.3518,5.3518,5.3518,5.3518,5.3518,5.3518,5.3518,5.3518,5.3518,5.3518,5.3518,5.3518,5.3518,5.3518,5.3518,5.3518,5.3518,5.3518,5.3518,5.3518,5.3518,5.3518,5.3653,5.4194,5.4938,5.5683,5.6427,5.7137,5.7712,5.7881,5.7881,5.7881,5.7881,5.7881,5.7881,5.7881,5.7915,5.8051,5.8592,5.8829,5.8186,5.8693,5.9133,5.8863,5.8389,5.8254,5.8761,5.8389,5.8321,5.893,5.8558,5.8524,5.9133,5.9201,5.9167,5.9032,5.9032,5.8693,5.7915,5.7881,5.7881,5.7881,5.8626,5.9032,5.9032,5.9877,6.0655,6.1298,6.1434,6.1806,6.2381,6.2381,6.2381,6.2381,6.2381,6.2381,6.2448,6.3057,6.2956,6.2584,6.4681,6.5121,6.4783,6.6271,6.6812,6.6812,5.8017,5.7881,5.7881,5.7881,5.7712,5.7171,5.5919,5.5547,5.4938,5.3687,5.3518,5.3518,5.3518,5.3518,5.3518,5.3518,5.3518,5.3518,5.3518,5.3518,5.3518,5.3518,5.3518,5.3518,5.3518,5.3518,5.3518,5.3518,5.3518,5.3518,5.3518,5.3518,5.3518,5.3518,5.3518,5.3518,5.3518,5.3518,5.3518,5.3518,5.3518,5.3518,5.3518,5.3518,5.3518,5.3518,5.3518,5.3518,5.3518,5.3518,5.3518,5.3619,5.4262,5.4972,5.5716,5.6427,5.7171,5.7746,5.7848,5.7881,5.7881,5.7881,5.7881,5.7881,5.7881,5.7881,5.8084,5.8727,5.893,5.8998,5.8896,5.9471,5.9539,5.8254,5.849,5.866,5.8118,5.8524,5.8896,5.8998,5.9471,5.9844,5.9945,5.9945,5.9708,5.9066,5.9032,5.8693,5.7915,5.7881,5.7881,5.7881,5.8626,5.9032,5.9032,6.0419,6.1197,6.1298,6.1941,6.2279,6.2381,6.2381,6.2381,6.2381,6.2381,6.2381,6.2381,6.2516,6.2482,6.255,6.414,6.4681,6.4783,6.6271,6.6812,6.6812,5.8592,5.8186,5.7881,5.7881,5.7543,5.6934,5.5886,5.5344,5.4702,5.3653,5.3518,5.3518,5.3518,5.3518,5.3518,5.3518,5.3518,5.3518,5.3518,5.3518,5.3518,5.3518,5.3518,5.3518,5.3518,5.3518,5.3518,5.3518,5.3518,5.3518,5.3518,5.3518,5.3518,5.3518,5.3518,5.3518,5.3518,5.3518,5.3518,5.3518,5.3518,5.3518,5.3518,5.3518,5.3518,5.3518,5.3518,5.3518,5.3551,5.3991,5.4126,5.4228,5.4972,5.5716,5.6393,5.6697,5.7306,5.7881,5.7881,5.7881,5.7881,5.7881,5.822,5.8524,5.8524,5.8829,5.9099,5.9032,5.9336,5.9607,5.9607,6.025,6.0554,5.9911,5.937,5.9201,5.9708,5.9336,5.9167,5.9573,5.9539,5.9844,6.0689,6.0013,5.9539,5.9607,5.9235,5.8863,5.8524,5.8524,5.8693,5.9099,5.9877,6.0283,6.0283,6.1366,6.1907,6.1907,6.2245,6.2381,6.2381,6.2381,6.2381,6.2381,6.2381,6.2381,6.2381,6.2381,6.2381,6.2482,6.3565,6.4478,6.529,6.5933,6.644,6.6812]},{"header":{"parameterUnit":"m.s-1","parameterCategory":1,"la1":30.6,"la2":28.766,"lo1":-90.7593,"lo2":-88.6598,"dy":0.0162,"dx":0.0183,"nx":116,"ny":114,"refTime":"2024-03-31T12:00:00:Z","depth":0,"parameterNumber":3,"parameterNumberName":"V-component_of_WINDS"},"data":[0.0,0.0,0.0,0.0,0.0,0.0,0.0,0.0,0.0,0.0,0.0,0.0,0.0,0.0,0.0,0.0,0.0,0.0,0.0,0.0,0.0,0.0,0.0,0.0,0.0,0.0,0.0,0.0,0.0,0.0,0.0,0.0,0.0,0.0,0.0,0.0,0.0,0.0,0.0,0.0,0.0,0.0,0.0,0.0,0.0,0.0,0.0,0.0,0.0,0.0,0.0,0.0,0.0,0.0,0.0,0.0,0.0,0.0,0.0,0.0,0.0,0.0,0.0,0.0,0.0,0.0,0.0,0.0,0.0,0.0,0.0,0.0,0.0,0.0,0.0,0.0,0.0,0.0,0.0,0.0,0.0,0.0,0.0,0.0,0.0,0.0,0.0,0.0,0.0,0.0,0.0,0.0,0.0,0.0,0.0,0.0,0.0,0.0,0.0,0.0,0.0,0.0,0.0,0.0,0.0,0.0,0.0,0.0,0.0,0.0,0.0,0.0,0.0,0.0,0.0,0.0,0.0,0.0,0.0,0.0,0.0,0.0,0.0,0.0,0.0,0.0,0.0,0.0,0.0,0.0,0.0,0.0,0.0,0.0,0.0,0.0,0.0,0.0,0.0,0.0,0.0,0.0,0.0,0.0,0.0,0.0,0.0,0.0,0.0,0.0,0.0,0.0,0.0,0.0,0.0,0.0,0.0,0.0,0.0,0.0,0.0,0.0,0.0,0.0,0.0,0.0,0.0,0.0,0.0,0.0,0.0,0.0,0.0,0.0,0.0,0.0,0.0,0.0,0.0,0.0,0.0,0.0,0.0,0.0,0.0,0.0,0.0,0.0,0.0,0.0,0.0,0.0,0.0,0.0,0.0,0.0,0.0,0.0,0.0,0.0,0.0,0.0,0.0,0.0,0.0,0.0,0.0,0.0,0.0,0.0,0.0,0.0,0.0,0.0,0.0,0.0,0.0,0.0,0.0,0.0,0.0,0.0,0.0,0.0,0.0,0.0,0.0,0.0,0.0,0.0,0.0,0.0,0.0,0.0,0.0,0.0,0.0,0.0,0.0,0.0,0.0,0.0,0.0,0.0,0.0,0.0,0.0,0.0,0.0,0.0,0.0,0.0,0.0,0.0,0.0,0.0,0.0,0.0,0.0,0.0,0.0,0.0,0.0,0.0,0.0,0.0,0.0,0.0,0.0,0.0,0.0,0.0,0.0,0.0,0.0,0.0,0.0,0.0,0.0,0.0,0.0,0.0,0.0,0.0,0.0,0.0,0.0,0.0,0.0,0.0,0.0,0.0,0.0,0.0,0.0,0.0,0.0,0.0,0.0,0.0,0.0,0.0,0.0,0.0,0.0,0.0,0.0,0.0,0.0,0.0,0.0,0.0,0.0,0.0,0.0,0.0,0.0,0.0,0.0,0.0,0.0,0.0,0.0,0.0,0.0,0.0,0.0,0.0,0.0,0.0,0.0,0.0,0.0,0.0,0.0,0.0,0.0,0.0,0.0,0.0,0.0,0.0,0.0,0.0,0.0,0.0,0.0,0.0,0.0,0.0,0.0,0.0,0.0,0.0,0.0,0.0,0.0,0.0,0.0,0.0,0.0,0.0,0.0,0.0,0.0,0.0,0.0,0.0,0.0,0.0,0.0,0.0,0.0,0.0,0.0,0.0,0.0,0.0,0.0,0.0,0.0,0.0,0.0,0.0,0.0,0.0,0.0,0.0,0.0,0.0,0.0,0.0,0.0,0.0,0.0,0.0,0.0,0.0,0.0,0.0,0.0,0.0,0.0,0.0,0.0,0.0,0.0,0.0,0.0,0.0,0.0,0.0,0.0,0.0,0.0,0.0,0.0,0.0,0.0,0.0,0.0,0.0,0.0,0.0,0.0,0.0,0.0,0.0,0.0,0.0,0.0,0.0,0.0,0.0,0.0,0.0,0.0,0.0,0.0,0.0,0.0,0.0,0.0,0.0,0.0,0.0,0.0,0.0,0.0,0.0,0.0,0.0,0.0,0.0,0.0,0.0,0.0,0.0,0.0,0.0,0.0,0.0,0.0,0.0,0.0,0.0,0.0,0.0,0.0,0.0,0.0,0.0,0.0,0.0,0.0,0.0,0.0,0.0,0.0,0.0,0.0,0.0,0.0,0.0,0.0,0.0,0.0,0.0,0.0,0.0,0.0,0.0,0.0,0.0,0.0,0.0,0.0,0.0,0.0,0.0,0.0,0.0,0.0,0.0,0.0,0.0,0.0,0.0,0.0,0.0,0.0,0.0,0.0,0.0,0.0,0.0,0.0,0.0,0.0,0.0,0.0,0.0,0.0,0.0,0.0,0.0,0.0,0.0,0.0,0.0,0.0,0.0,0.0,0.0,0.0,0.0,0.0,0.0,0.0,0.0,0.0,0.0,0.0,0.0,0.0,0.0,0.0,0.0,0.0,0.0,0.0,0.0,0.0,0.0,0.0,0.0,0.0,0.0,0.0,0.0,0.0,0.0,0.0,0.0,0.0,0.0,0.0,0.0,0.0,0.0,0.0,0.0,0.0,0.0,0.0,0.0,0.0,0.0,0.0,0.0,0.0,0.0,0.0,0.0,0.0,0.0,0.0,0.0,0.0,0.0,0.0,0.0,0.0,0.0,0.0,0.0,0.0,0.0,0.0,0.0,0.0,0.0,0.0,0.0,0.0,0.0,0.0,0.0,0.0,0.0,0.0,0.0,0.0,0.0,0.0,0.0,0.0,0.0,0.0,0.0,0.0,0.0,0.0,0.0,0.0,0.0,0.0,0.0,0.0,0.0,0.0,0.0,0.0,0.0,0.0,0.0,0.0,0.0,0.0,0.0,0.0,0.0,0.0,0.0,0.0,0.0,0.0,0.0,0.0,0.0,0.0,0.0,0.0,0.0,0.0,0.0,0.0,0.0,0.0,0.0,0.0,0.0,0.0,0.0,0.0,0.0,0.0,0.0,0.0,0.0,0.0,0.0,0.0,0.0,0.0,0.0,0.0,0.0,0.0,0.0,0.0,0.0,0.0,0.0,0.0,0.0,0.0,0.0,0.0,0.0,0.0,0.0,0.0,0.0,0.0,0.0,0.0,0.0,0.0,0.0,0.0,0.0,0.0,0.0,0.0,0.0,0.0,0.0,0.0,0.0,0.0,0.0,0.0,0.0,0.0,0.0,0.0,0.0,0.0,0.0,0.0,0.0,0.0,0.0,0.0,0.0,0.0,0.0,0.0,0.0,0.0,0.0,0.0,0.0,0.0,0.0,0.0,0.0,0.0,0.0,0.0,0.0,0.0,0.0,0.0,0.0,0.0,0.0,0.0,0.0,0.0,0.0,0.0,0.0,0.0,0.0,0.0,0.0,0.0,0.0,0.0,0.0,0.0,0.0,0.0,0.0,0.0,0.0,0.0,0.0,0.0,0.0,0.0,0.0,0.0,0.0,0.0,0.0,0.0,0.0,0.0,0.0,0.0,0.0,0.0,0.0,0.0,0.0,0.0,0.0,0.0,0.0,0.0,0.0,0.0,0.0,0.0,0.0,0.0,0.0,0.0,0.0,0.0,0.0,0.0,0.0,0.0,0.0,0.0,0.0,0.0,0.0,0.0,0.0,0.0,0.0,0.0,0.0,0.0,0.0,0.0,0.0,0.0,0.0,0.0,0.0,0.0,0.0,0.0,0.0,0.0,0.0,0.0,0.0,0.0,0.0,0.0,0.0,0.0,0.0,0.0,0.0,0.0,0.0,0.0,0.0,0.0,0.0,0.0,0.0,0.0,0.0,0.0,0.0,0.0,0.0,0.0,0.0,0.0,0.0,0.0,0.0,0.0,0.0,0.0,0.0,0.0,0.0,0.0,0.0,0.0,0.0,0.0,0.0,0.0,0.0,0.0,0.0,0.0,0.0,0.0,0.0,0.0,0.0,0.0,0.0,0.0,0.0,0.0,0.0,0.0,0.0,0.0,0.0,0.0,0.0,0.0,0.0,0.0,0.0,0.0,0.0,0.0,0.0,0.0,0.0,0.0,0.0,0.0,0.0,0.0,0.0,0.0,0.0,0.0,0.0,0.0,0.0,0.0,0.0,0.0,0.0,0.0,0.0,0.0,0.0,0.0,0.0,0.0,0.0,0.0,0.0,0.0,0.0,0.0,0.0,0.0,0.0,0.0,0.0,0.0,0.0,0.0,0.0,0.0,0.0,0.0,0.0,0.0,0.0,0.0,0.0,0.0,0.0,0.0,0.0,0.0,0.0,0.0,0.0,0.0,0.0,0.0,0.0,0.0,0.0,0.0,0.0,0.0,0.0,0.0,0.0,0.0,0.0,0.0,0.0,0.0,0.0,0.0,0.0,0.0,0.0,0.0,0.0,0.0,0.0,0.0,0.0,0.0,0.0,0.0,0.0,0.0,0.0,0.0,0.0,0.0,0.0,0.0,0.0,0.0,0.0,0.0,0.0,0.0,0.0,0.0,0.0,0.0,0.0,0.0,0.0,0.0,0.0,0.0,0.0,0.0,0.0,0.0,0.0,0.0,0.0,0.0,0.0,0.0,0.0,0.0,0.0,0.0,0.0,0.0,0.0,0.0,0.0,0.0,0.0,0.0,0.0,0.0,0.0,0.0,0.0,0.0,0.0,0.0,0.0,0.0,0.0,0.0,0.0,0.0,0.0,0.0,0.0,0.0,0.0,0.0,0.0,0.0,0.0,0.0,0.0,0.0,0.0,0.0,0.0,0.0,0.0,0.0,0.0,0.0,0.0,0.0,0.0,0.0,0.0,0.0,0.0,0.0,0.0,0.0,0.0,0.0,0.0,0.0,0.0,0.0,0.0,0.0,0.0,0.0,0.0,0.0,0.0,0.0,0.0,0.0,0.0,0.0,0.0,0.0,0.0,0.0,0.0,0.0,0.0,0.0,0.0,0.0,0.0,0.0,0.0,0.0,0.0,0.0,0.0,0.0,0.0,0.0,0.0,0.0,0.0,0.0,0.0,0.0,0.0,0.0,0.0,0.0,0.0,0.0,0.0,0.0,0.0,0.0,0.0,0.0,0.0,0.0,0.0,0.0,0.0,0.0,0.0,0.0,0.0,0.0,0.0,0.0,0.0,0.0,0.0,0.0,0.0,0.0,0.0,0.0,0.0,0.0,0.0,0.0,0.0,0.0,0.0,0.0,0.0,0.0,0.0,0.0,0.0,0.0,0.0,0.0,0.0,0.0,0.0,0.0,0.0,0.0,0.0,0.0,0.0,0.0,0.0,0.0,0.0,0.0,0.0,0.0,0.0,0.0,0.0,0.0,0.0,0.0,0.0,0.0,0.0,0.0,0.0,0.0,0.0,0.0,0.0,0.0,0.0,0.0,0.0,0.0,0.0,0.0,0.0,0.0,0.0,0.0,0.0,0.0,0.0,0.0,0.0,0.0,0.0,0.0,0.0,0.0,0.0,0.0,0.0,0.0,0.0,0.0,0.0,0.0,0.0,0.0,0.0,0.0,0.0,0.0,0.0,0.0,0.0,0.0,0.0,0.0,0.0,0.0,0.0,0.0,0.0,0.0,0.0,0.0,0.0,0.0,0.0,0.0,0.0,0.0,0.0,0.0,0.0,0.0,0.0,0.0,0.0,0.0,0.0,0.0,0.0,0.0,0.0,0.0,0.0,0.0,0.0,0.0,0.0,0.0,0.0,0.0,0.0,0.0,0.0,0.0,0.0,0.0,0.0,0.0,0.0,0.0,0.0,0.0,0.0,0.0,0.0,0.0,0.0,0.0,0.0,0.0,0.0,0.0,0.0,0.0,0.0,0.0,0.0,0.0,0.0,0.0,0.0,0.0,0.0,0.0,0.0,0.0,0.0,0.0,0.0,0.0,0.0,0.0,0.0,0.0,0.0,0.0,0.0,0.0,0.0,0.0,0.0,0.0,0.0,0.0,0.0,0.0,0.0,0.0,0.0,0.0,0.0,0.0,0.0,0.0,0.0,0.0,0.0,0.0,0.0,0.0,0.0,0.0,0.0,0.0,0.0,0.0,0.0,0.0,0.0,0.0,0.0,0.0,0.0,0.0,0.0,0.0,0.0,0.0,0.0,0.0,0.0,0.0,0.0,0.0,0.0,0.0,0.0,0.0,0.0,-4.1629,-4.0531,0.0,0.0,0.0,0.0,0.0,0.0,0.0,0.0,0.0,0.0,0.0,0.0,0.0,0.0,0.0,0.0,0.0,0.0,0.0,0.0,0.0,0.0,0.0,-3.5723,-3.5898,-3.6328,-3.6348,-3.6543,-3.6973,0.0,0.0,0.0,0.0,0.0,-3.7012,-3.7422,-3.7734,-3.7969,-3.8379,-3.8359,-3.791,-3.7695,-3.7246,-3.6641,0.0,0.0,0.0,0.0,0.0,0.0,0.0,0.0,0.0,0.0,0.0,0.0,0.0,0.0,0.0,0.0,0.0,0.0,0.0,0.0,0.0,0.0,0.0,0.0,0.0,0.0,0.0,0.0,0.0,0.0,0.0,0.0,0.0,0.0,0.0,0.0,0.0,0.0,0.0,0.0,0.0,0.0,0.0,0.0,0.0,0.0,0.0,0.0,0.0,0.0,0.0,0.0,0.0,0.0,0.0,0.0,0.0,0.0,0.0,0.0,0.0,0.0,0.0,0.0,0.0,0.0,0.0,0.0,0.0,0.0,-4.3219,-4.2571,0.0,0.0,0.0,0.0,0.0,0.0,0.0,0.0,0.0,0.0,0.0,0.0,0.0,0.0,0.0,0.0,0.0,0.0,0.0,0.0,0.0,-3.5293,-3.5391,-3.5391,-3.5566,-3.5976,-3.6016,-3.6172,-3.6543,-3.623,0.0,0.0,0.0,0.0,-3.6133,-3.6894,-3.7324,-3.7402,-3.8184,-3.8418,-3.8144,-3.8066,-3.7891,-3.7617,-3.7402,0.0,0.0,0.0,0.0,0.0,0.0,0.0,0.0,0.0,0.0,0.0,0.0,0.0,0.0,0.0,0.0,0.0,0.0,0.0,0.0,0.0,0.0,0.0,0.0,0.0,0.0,0.0,0.0,0.0,0.0,0.0,0.0,0.0,0.0,0.0,0.0,0.0,0.0,0.0,0.0,0.0,0.0,0.0,0.0,0.0,0.0,0.0,0.0,0.0,0.0,0.0,0.0,0.0,0.0,0.0,0.0,0.0,0.0,0.0,0.0,0.0,0.0,0.0,-4.8426,-4.8474,-4.845,-4.6393,-4.6341,-4.7617,-4.5471,-4.5302,-4.6299,-4.4032,0.0,0.0,0.0,0.0,0.0,0.0,0.0,0.0,0.0,0.0,0.0,0.0,0.0,0.0,0.0,0.0,0.0,0.0,0.0,-3.4941,-3.5351,-3.5391,-3.5566,-3.5976,-3.6016,-3.6035,-3.6094,-3.6055,0.0,0.0,0.0,-3.6191,-3.6582,-3.7051,-3.748,-3.7851,-3.834,-3.873,-3.9023,-3.8652,-3.8652,-3.8906,-3.7793,-3.7305,-3.7406,0.0,0.0,0.0,0.0,0.0,0.0,0.0,0.0,0.0,0.0,0.0,0.0,0.0,0.0,0.0,0.0,0.0,0.0,0.0,0.0,0.0,0.0,0.0,0.0,0.0,0.0,0.0,0.0,0.0,0.0,0.0,0.0,0.0,0.0,0.0,0.0,0.0,0.0,0.0,0.0,0.0,-4.9916,-4.8887,0.0,0.0,0.0,0.0,0.0,0.0,0.0,0.0,0.0,0.0,0.0,0.0,0.0,-4.8496,-4.9587,-4.9818,-4.9999,-4.9999,-5.063,-5.088,-5.0855,-5.0017,-5.0017,-5.073,-4.9892,0.0,-4.8178,-4.603,0.0,0.0,0.0,0.0,0.0,0.0,0.0,0.0,0.0,0.0,0.0,0.0,0.0,0.0,0.0,0.0,0.0,0.0,0.0,0.0,0.0,-3.5,-3.5273,-3.5957,-3.6465,-3.6523,-3.6055,-3.6465,0.0,0.0,-3.6016,-3.6113,-3.6289,-3.6719,-3.7383,-3.8281,-3.8711,-3.916,-3.959,-3.9394,-3.9414,-3.957,-3.9004,-3.8476,-3.7969,-3.8107,0.0,0.0,0.0,0.0,0.0,0.0,0.0,0.0,0.0,0.0,0.0,0.0,0.0,0.0,0.0,0.0,0.0,0.0,0.0,0.0,0.0,0.0,0.0,0.0,0.0,0.0,0.0,0.0,0.0,0.0,0.0,0.0,0.0,0.0,0.0,0.0,0.0,0.0,0.0,-4.9464,-4.9665,-4.8862,-4.8761,-4.8335,0.0,0.0,0.0,0.0,0.0,0.0,0.0,0.0,0.0,-4.9213,-4.9841,-5.0419,-5.0896,-5.1523,-5.1825,-5.1825,-5.2076,-5.2201,-5.2201,-5.195,-5.1975,-5.2201,-5.1925,-5.1373,-5.0544,-4.854,-4.7273,-4.6336,0.0,0.0,0.0,0.0,-4.6502,-4.6778,0.0,0.0,0.0,0.0,0.0,0.0,0.0,0.0,0.0,0.0,0.0,0.0,-3.4648,-3.4902,-3.5351,-3.6113,-3.6777,-3.6875,-3.623,-3.668,-3.668,-3.6055,-3.6016,-3.6016,-3.6016,-3.666,-3.7559,-3.873,-3.916,-3.9609,-4.0059,-3.9941,-3.9961,-4.0059,-3.9941,-3.9473,-3.8691,-3.8482,-3.9048,0.0,0.0,0.0,0.0,0.0,0.0,0.0,0.0,0.0,0.0,0.0,0.0,0.0,0.0,0.0,0.0,0.0,0.0,0.0,0.0,0.0,0.0,0.0,0.0,0.0,0.0,0.0,0.0,0.0,0.0,0.0,0.0,0.0,0.0,0.0,0.0,0.0,0.0,-4.9314,-4.9715,-4.8862,-4.9289,-4.9088,0.0,0.0,0.0,0.0,0.0,0.0,-4.9163,-4.9866,-5.0293,-5.0444,-5.1398,-5.1975,-5.2126,-5.2929,-5.3356,-5.3356,-5.3356,-5.3281,-5.313,-5.313,-5.3055,-5.2929,-5.2929,-5.2703,-5.2201,-5.067,-4.9364,-4.8284,-4.7757,-4.7205,-4.6728,-4.6728,-4.6979,-4.733,0.0,0.0,0.0,0.0,0.0,0.0,0.0,0.0,0.0,0.0,0.0,-3.4238,-3.4648,-3.5449,-3.6133,-3.6601,-3.668,-3.668,-3.6641,-3.6289,-3.6074,-3.6016,-3.6016,-3.6016,-3.6016,-3.7226,-3.8301,-3.916,-3.9629,-4.0078,-4.0488,-4.0078,-4.0098,-4.0469,-4.0078,-3.9629,-3.9288,-4.0515,-4.0891,-4.0709,0.0,0.0,0.0,0.0,0.0,0.0,0.0,0.0,0.0,0.0,0.0,0.0,0.0,0.0,0.0,0.0,0.0,0.0,0.0,0.0,0.0,0.0,0.0,0.0,0.0,0.0,0.0,0.0,0.0,0.0,0.0,0.0,0.0,0.0,0.0,0.0,0.0,0.0,0.0,-4.8962,-5.0645,0.0,0.0,0.0,0.0,-4.8736,-4.969,-5.0293,-5.0343,-5.1373,-5.2226,-5.2754,-5.3281,-5.3833,-5.4386,-5.4461,-5.4486,-5.4486,-5.4486,-5.4185,-5.3658,-5.3658,-5.3381,-5.2929,-5.2929,-5.2904,-5.2804,-5.1674,-5.0519,-4.9464,-4.8912,-4.8335,-4.7832,-4.7832,-4.7857,-4.7857,0.0,0.0,0.0,0.0,0.0,-3.3418,-3.3418,-3.3418,-3.3418,-3.3418,-3.3809,-3.4355,-3.5078,-3.5664,-3.6406,-3.7402,-3.7734,-3.7773,-3.75,-3.7324,-3.7012,-3.6465,-3.6172,-3.6269,-3.6836,-3.7559,-3.8496,-3.9648,-4.0078,-4.0527,-4.0937,-4.0781,-4.0801,-4.0957,-4.1074,-4.1609,-4.2426,-4.0666,-4.0965,-4.2842,-4.3039,-4.4233,0.0,0.0,0.0,0.0,0.0,0.0,0.0,0.0,0.0,0.0,0.0,0.0,0.0,0.0,0.0,0.0,0.0,0.0,0.0,0.0,0.0,0.0,0.0,0.0,0.0,0.0,0.0,0.0,0.0,0.0,0.0,0.0,0.0,0.0,0.0,0.0,0.0,-5.1398,-5.2452,0.0,-5.1548,-5.1297,-5.1122,-5.0921,-5.1925,-5.2528,-5.2528,-5.3607,-5.431,-5.4511,-5.4687,-5.5064,-5.5616,-5.5265,-5.5089,-5.5089,-5.4361,-5.3909,-5.3683,-5.3356,-5.3105,-5.2929,-5.2929,-5.2929,-5.2904,-5.2503,-5.1674,-5.0594,-4.9665,-4.8962,-4.841,-4.8033,-4.8134,-4.846,0.0,0.0,0.0,0.0,-3.3418,-3.3418,-3.3418,-3.3418,-3.3476,-3.3633,-3.4023,-3.4668,-3.5723,-3.6328,-3.7109,-3.8262,-3.8496,-3.8398,-3.7949,-3.7656,-3.7187,-3.6484,-3.6309,-3.6641,-3.748,-3.8066,-3.8926,-4.0098,-4.0527,-4.0898,-4.1172,-4.1308,-4.1465,-4.1621,-4.2031,-4.3275,-4.4726,-4.2485,-4.3151,-4.5622,-4.5096,-4.6489,-4.8987,0.0,0.0,0.0,0.0,0.0,0.0,0.0,0.0,0.0,0.0,0.0,0.0,0.0,0.0,0.0,0.0,0.0,0.0,0.0,0.0,0.0,0.0,0.0,0.0,0.0,0.0,0.0,0.0,0.0,0.0,0.0,0.0,0.0,0.0,-5.0243,-5.18,-5.2553,-5.3934,-5.4461,-5.3557,-5.3482,-5.3406,-5.3231,-5.421,-5.4813,-5.4813,-5.5717,-5.6244,-5.6244,-5.6244,-5.6319,-5.6495,-5.6118,-5.5842,-5.5641,-5.4712,-5.4185,-5.3984,-5.3432,-5.308,-5.2929,-5.2929,-5.2929,-5.2929,-5.2929,-5.2503,-5.1724,-5.0594,-4.9816,-4.9264,-4.8686,-4.8711,-4.9012,0.0,0.0,0.0,-3.3418,-3.3418,-3.3418,-3.3418,-3.3418,-3.3574,-3.4004,-3.4434,-3.5215,-3.6523,-3.7441,-3.8301,-3.916,-3.8848,-3.8418,-3.7988,-3.7168,-3.6504,-3.6055,0.0,0.0,-3.7949,-3.8789,-3.9648,-4.0547,-4.0976,-4.1191,-4.1211,-4.1641,-4.2051,-4.2441,-4.2891,-4.4321,-4.6311,-4.6332,-4.7547,-4.9388,-4.8267,-4.9255,-5.1122,0.0,0.0,0.0,0.0,0.0,0.0,0.0,0.0,0.0,0.0,0.0,0.0,0.0,0.0,0.0,0.0,0.0,0.0,0.0,0.0,0.0,0.0,0.0,0.0,0.0,0.0,0.0,0.0,0.0,0.0,0.0,0.0,0.0,-4.8033,-5.1297,-5.3331,-5.2377,-5.5114,-5.647,-5.4863,-5.5666,-5.6068,-5.5541,-5.6495,-5.7097,-5.7072,-5.7625,-5.7951,-5.7951,-5.7926,-5.7625,-5.7072,-5.7047,-5.6746,-5.6168,-5.5616,-5.5064,-5.4511,-5.3934,-5.3406,-5.2929,-5.2929,-5.2929,-5.2929,-5.2929,-5.2929,-5.2829,-5.1724,-5.0946,-5.0368,-4.9816,-4.9615,-4.9515,0.0,0.0,-3.3418,-3.3418,-3.3418,-3.3418,-3.3418,-3.3418,-3.3457,-3.3594,-3.4531,-3.5586,-3.6562,-3.7695,-3.8867,-4.0059,-3.9473,-3.8984,-3.8867,-3.7773,-3.6934,-3.6504,0.0,0.0,-3.8828,-3.9414,-4.0117,-4.0996,-4.1426,-4.1621,-4.1641,-4.2383,-4.2617,-4.2461,-4.3203,-4.5553,-4.914,-4.9006,-5.1208,-5.4546,-5.0792,-5.0336,-5.1749,0.0,0.0,0.0,0.0,0.0,0.0,0.0,0.0,0.0,0.0,0.0,0.0,0.0,0.0,0.0,0.0,0.0,0.0,0.0,0.0,0.0,0.0,0.0,0.0,0.0,0.0,0.0,0.0,0.0,0.0,0.0,-4.9289,-5.0494,-5.0896,-5.2553,-5.4185,-5.5516,-5.7173,-5.8202,-5.8152,-5.8077,-5.7976,-5.7801,-5.8428,-5.8654,-5.8252,-5.8755,-5.9056,-5.9056,-5.8303,-5.7826,-5.765,-5.7248,-5.657,-5.5616,-5.5064,-5.4486,-5.3909,-5.3381,-5.3055,-5.2929,-5.2929,-5.2929,-5.2929,-5.2929,-5.2929,-5.2854,-5.2151,-5.1548,-5.0971,-5.0393,-4.9941,-4.9515,0.0,-3.3418,-3.3418,-3.3418,-3.3418,-3.3418,-3.3418,-3.3418,-3.3555,-3.3906,-3.4805,-3.5859,-3.707,-3.8184,-3.9219,-4.0176,-3.9609,-3.9043,-3.8691,-3.7812,-3.7266,0.0,0.0,-3.8613,-3.9726,-4.0195,-4.084,-4.1699,-4.1953,-4.207,-4.207,-4.293,-4.3301,-4.3281,-4.5098,-4.7869,-5.1063,-5.1875,-5.43,-5.7074,-5.4156,-5.3118,-5.3306,-5.1724,-5.0921,-5.0544,-4.9741,-4.9314,-4.9012,-4.8385,0.0,0.0,0.0,0.0,0.0,0.0,0.0,0.0,0.0,0.0,0.0,0.0,0.0,0.0,0.0,0.0,0.0,0.0,0.0,0.0,0.0,0.0,0.0,0.0,-5.0619,-5.2151,-5.3607,-5.4561,-5.5666,-5.7223,-5.8554,-5.9382,-5.9483,-5.9433,-5.9382,-5.9382,-5.9458,-5.9558,-5.9709,-5.9583,-5.9608,-5.9834,-5.8805,-5.8127,-5.7901,-5.7097,-5.6244,-5.539,-5.4587,-5.4034,-5.3683,-5.3155,-5.2929,-5.2929,-5.2929,-5.2929,-5.2929,-5.2929,-5.2779,-5.2528,0.0,0.0,0.0,0.0,-4.9515,-4.9163,0.0,-3.3418,-3.3418,-3.3418,-3.3418,-3.3418,-3.3418,-3.3418,-3.3691,-3.4453,-3.5039,-3.5976,-3.7539,-3.8516,-3.9277,-3.9844,-3.9375,-3.873,-3.7969,-3.7539,0.0,-3.8125,-3.8926,-3.9785,-4.0723,-4.1152,-4.1777,-4.2578,-4.2617,-4.2656,-4.2676,-4.3516,-4.4288,-4.4996,-4.7753,-5.0278,-5.2759,-5.4709,-5.661,-5.8127,-5.7549,-5.662,-5.534,-5.3256,-5.2477,-5.2327,-5.1272,-5.0569,-5.0142,-5.0017,0.0,0.0,0.0,0.0,0.0,0.0,0.0,0.0,0.0,0.0,0.0,0.0,0.0,0.0,0.0,0.0,0.0,0.0,0.0,0.0,0.0,0.0,0.0,0.0,-5.195,-5.3306,-5.5942,-5.6846,-5.7424,-5.7926,-5.9357,-6.0136,-5.9633,-6.0085,-6.0412,-6.0412,-6.001,-6.0211,-6.1215,-6.0261,0.0,0.0,0.0,-5.8453,-5.7901,-5.6771,-5.5917,-5.529,-5.421,-5.3658,-5.3607,-5.313,-5.2929,-5.2929,-5.2929,-5.2929,-5.2929,-5.2929,-5.2603,-5.2051,-5.1423,-5.1197,-5.0996,-4.9439,-4.8862,-4.8786,0.0,-3.3418,-3.3418,-3.3418,-3.3418,-3.3418,-3.3418,-3.3418,-3.3476,-3.3652,-3.4668,-3.5644,-3.6309,-3.7461,-3.8633,-3.9805,-3.8848,-3.8105,-3.793,-3.7539,-3.7969,-3.9453,-4.0,-4.082,-4.2031,-4.248,-4.2949,-4.3457,-4.3828,-4.4023,-4.4043,-4.4902,-4.6116,-4.7672,-4.8547,-5.1444,-5.5569,-5.6049,-5.7558,-5.9809,-5.9257,-5.8102,-5.657,-5.5265,-5.4762,-5.4662,-5.4009,-5.3683,-5.3457,-5.2578,-5.1925,-5.1272,-5.0243,0.0,0.0,0.0,0.0,0.0,0.0,0.0,0.0,0.0,0.0,0.0,0.0,0.0,0.0,0.0,0.0,0.0,0.0,0.0,0.0,-5.1574,-5.3155,-5.4737,-5.662,-5.775,-5.8428,-5.8554,-5.9608,-6.0286,-6.0161,-6.0688,-6.1014,-6.1014,-6.1341,-6.1617,-6.1843,-6.1215,-6.0914,-6.1014,-5.9533,-5.8453,-5.7901,-5.6771,-5.5717,-5.4712,-5.4034,0.0,-5.308,-5.298,-5.2929,-5.2929,-5.2929,-5.2929,-5.2929,-5.2929,-5.2603,-5.2,-5.0971,-5.0569,-5.0494,-4.9715,-4.9439,-4.9289,0.0,-3.3418,-3.3418,-3.3418,-3.3418,-3.3418,-3.3418,-3.3418,-3.3496,-3.3711,-3.4512,-3.5215,-3.5664,-3.666,-3.748,-3.791,-3.7559,-3.7383,-3.7598,-3.8008,-3.8926,-4.0469,-4.1133,-4.1973,-4.3047,-4.3516,-4.3945,-4.4355,-4.459,-4.4707,-4.4726,-4.5371,-4.6214,-4.7162,-4.9741,-5.2502,-5.5253,-5.7421,-5.9069,-6.0286,-6.001,-5.9257,-5.8102,-5.6746,-5.6219,-5.6143,-5.5591,-5.539,-5.529,-5.4762,-5.421,-5.3557,-5.2427,-5.1322,-5.0167,0.0,0.0,0.0,0.0,0.0,0.0,0.0,0.0,0.0,0.0,0.0,0.0,0.0,0.0,-4.7807,-4.8636,0.0,-5.1172,-5.3381,-5.4662,-5.5968,-5.765,-5.8579,-5.9207,-5.9483,-5.9985,-6.0437,-6.0713,-6.1014,-6.119,-6.119,-6.1441,-6.1718,-6.1994,-6.1215,-6.0889,-6.1165,-5.9583,-5.8453,-5.7901,-5.6495,-5.539,-5.4561,-5.3708,-5.3181,-5.2929,-5.2929,-5.2929,-5.2929,-5.2929,-5.2929,-5.2904,-5.2628,-5.2176,-5.1599,-5.0745,-5.0419,-5.0318,-4.949,-4.9188,-4.9113,0.0,-3.3418,-3.3418,-3.3418,-3.3418,-3.3418,-3.3418,-3.3418,-3.3555,-3.3906,-3.4316,-3.4726,-3.5098,-3.582,-3.6152,-3.5801,-3.6387,-3.6973,0.0,-3.8633,-4.0,-4.1484,-4.2266,-4.3125,-4.4062,-4.4531,-4.4941,-4.5273,-4.543,-4.5469,-4.541,-4.5762,-4.6418,-4.741,-5.1151,-5.3686,-5.5273,-5.8791,-6.0311,-6.0311,-6.0311,-5.9985,-5.9332,-5.7901,-5.7374,-5.7298,-5.6872,-5.642,-5.6068,-5.6168,-5.5691,-5.4913,-5.411,-5.3206,-5.1975,-4.9741,-4.8937,0.0,0.0,0.0,0.0,0.0,0.0,0.0,0.0,0.0,-4.6577,-4.7556,-4.8661,-4.969,-5.0569,-5.1749,-5.3231,-5.5214,-5.6118,-5.7072,-5.8654,-5.9332,-5.991,-6.0563,-6.0638,-6.0788,-6.114,-6.1391,-6.1466,-6.1341,-6.1441,-6.1692,-6.2144,-6.109,-6.0688,-6.1165,-5.9583,-5.8453,-5.7901,-5.6244,-5.5114,-5.4561,-5.3457,-5.2929,-5.2929,-5.2929,-5.2929,-5.2929,-5.2929,-5.2929,-5.2904,-5.2452,-5.195,-5.1398,-5.082,-5.0519,-5.0293,-4.9289,-4.8937,-4.8912,0.0,-3.3418,-3.3418,-3.3418,-3.3418,-3.3418,-3.3418,-3.3418,-3.3437,-3.3496,-3.3867,-3.416,-3.4219,-3.4648,-3.4902,-3.4844,-3.6309,-3.7402,-3.7832,-3.9082,-4.0723,-4.2773,-4.332,-4.416,-4.543,-4.5879,-4.6113,-4.6152,-4.6914,-4.709,-4.6719,-4.6777,-4.88,-5.2645,-5.2769,-5.5346,-5.9632,-6.0154,-6.0311,-6.0311,-6.0311,-5.9985,-5.9433,-5.878,-5.8529,-5.8529,-5.8453,-5.7173,-5.5541,-5.6043,-5.5164,-5.3959,-5.4336,-5.4034,-5.308,-5.087,-4.954,-4.8159,-4.5372,-4.4367,-4.4518,-4.6301,-4.6451,-4.6903,0.0,0.0,-4.9314,-4.9916,-5.0946,-5.1774,-5.19,-5.3206,-5.4687,-5.5917,-5.7022,-5.8102,-5.9257,-5.9885,-6.0613,-6.1692,-6.1818,-6.1642,-6.1215,-6.2069,-6.2446,-6.1943,-6.237,-6.2672,-6.2722,-6.1692,-6.1115,-6.119,-5.9583,-5.8453,-5.7901,-5.6244,-5.5114,-5.4561,-5.3457,-5.2929,-5.2929,-5.2929,-5.2929,-5.2929,-5.2929,-5.2929,-5.2929,-5.2854,-5.2503,-5.195,-5.1398,-5.087,-5.0343,-4.9715,-4.9515,-4.9439,0.0,0.0,-3.3418,-3.3418,-3.3418,-3.3418,-3.3418,-3.3418,-3.3418,-3.3418,-3.3574,-3.3691,-3.3691,-3.3848,-3.3945,-3.3945,-3.5547,-3.6836,-3.7519,-3.9492,-4.1367,-4.3008,-4.4219,-4.5234,-4.6016,-4.6699,-4.7051,-4.7051,-4.7402,-4.748,-4.7305,-4.7305,-4.8193,-4.9791,-5.2287,-5.4454,-5.6628,-5.9133,-6.0311,-6.0311,-6.0311,-5.9608,-5.8554,-5.8328,-5.7424,-5.6344,-5.6671,-5.5968,0.0,-5.4787,-5.4511,-5.4235,-5.4486,-5.3959,-5.2879,-5.0971,-4.9866,-4.8862,-4.7029,-4.615,-4.5974,0.0,-4.7682,-4.8661,-5.0393,-5.067,-5.0896,-5.2076,-5.298,-5.3733,-5.4386,-5.5064,-5.5993,0.0,-5.8077,-5.8755,-5.9809,-6.0161,-6.0487,-6.0964,-6.1316,-6.1692,-6.2094,-6.227,-6.2119,-6.1567,-6.2044,-6.2069,-6.1416,-6.0939,-6.0688,-6.0688,-5.9709,-5.8755,-5.7901,-5.6545,-5.544,-5.4561,-5.3457,-5.2929,-5.2929,-5.2929,-5.2929,-5.2929,-5.2929,-5.2929,-5.2929,-5.2929,-5.2603,-5.2051,-5.1498,-5.0921,-5.0343,-4.9791,-4.959,-4.9565,0.0,0.0,0.0,-3.3418,-3.3418,-3.3418,-3.3418,-3.3418,-3.3418,-3.3418,-3.3418,-3.3418,-3.3418,-3.3418,-3.3418,-3.3418,-3.4785,-3.6074,0.0,-3.9316,-4.1367,-4.3008,-4.4512,-4.5683,-4.6465,-4.709,-4.7461,-4.7578,-4.7695,-4.7754,-4.7754,-4.7754,-4.7917,-4.8293,-5.1936,-5.3995,-5.4779,-5.8485,-6.0085,-6.006,-5.9759,-5.8956,-5.7826,-5.7223,-5.5792,-5.4185,-5.4737,-5.4185,-5.3155,-5.2879,-5.2754,-5.2779,-5.3105,-5.2653,-5.1674,-4.9992,-4.8786,-4.7933,-4.7556,-4.7205,-4.7079,-4.7857,-4.9163,-5.0469,-5.1172,-5.1774,-5.2553,-5.3884,-5.4511,-5.5089,-5.6043,-5.647,-5.7072,-5.8303,-5.8755,-5.9307,-6.0412,-6.0412,-6.0387,-6.0537,-6.0663,-6.109,-6.2044,-6.1918,-6.1617,-6.1215,-6.1542,-6.1416,-6.0613,-6.0412,-6.0311,-6.0311,-5.9659,-5.883,-5.7901,-5.662,-5.5516,-5.4561,-5.3457,-5.2929,-5.2929,-5.2929,-5.2929,-5.2929,-5.2929,-5.2929,-5.2929,-5.2754,-5.2377,-5.1825,-5.1272,-5.0695,-5.0142,-4.9741,-4.959,-4.959,0.0,0.0,0.0,0.0,-3.3418,-3.3418,-3.3418,-3.3418,-3.3418,-3.3418,-3.3418,-3.3418,-3.3418,-3.3418,-3.3418,-3.3418,-3.4219,-3.5293,-3.6601,-3.8301,-4.041,-4.2969,-4.3945,-4.5215,-4.6875,-4.6933,-4.7148,-4.7578,-4.7988,-4.8183,-4.8183,-4.8183,-4.9392,-5.1412,-5.29,-5.4848,-5.6976,-5.8772,-5.9508,-5.9433,-5.8403,-5.7951,-5.7675,-5.5491,-5.3959,-5.3055,-5.3557,-5.2026,-4.9816,-5.0343,-4.9439,-4.8309,-4.9389,-4.9715,-4.9364,-4.7707,-4.5698,-4.4317,-4.5924,-4.6351,-4.6979,-4.964,-5.1172,-5.2302,-5.3356,-5.4059,-5.4637,-5.5214,-5.534,-5.5541,-5.6118,-5.7097,-5.7876,-5.7926,-5.8805,-5.9859,-6.0989,-6.0663,-6.0537,-6.109,-6.0211,-5.9759,-6.0337,-6.0889,-6.119,-6.119,-6.119,-6.119,-6.1165,-6.0613,-6.0311,-6.0311,-5.9307,-5.8478,-5.7901,-5.6244,-5.5139,-5.4561,-5.3457,-5.2929,-5.2929,-5.2929,-5.2929,-5.2929,-5.2929,-5.2929,-5.2879,-5.2352,-5.18,-5.1247,-5.067,-5.0117,-4.9615,-4.9615,-4.959,-4.959,0.0,0.0,0.0,0.0,0.0,0.0,-3.3418,-3.3418,-3.3418,-3.3418,-3.3418,0.0,0.0,0.0,0.0,0.0,-3.4199,-3.5019,-3.5781,-3.8242,-4.0176,-4.1328,-4.3594,-4.5215,-4.6074,-4.6641,-4.7148,-4.7578,-4.8008,-4.8203,-4.8223,-4.8496,-4.8823,-4.9392,-5.1022,-5.2961,-5.4779,-5.6232,-5.7671,-5.888,-5.7775,-5.6897,-5.6043,-5.4185,-5.2327,-5.0594,0.0,-4.8736,-4.7883,-4.733,-4.7004,-4.6979,-4.7732,-4.7707,-4.723,-4.6326,-4.5773,-4.5748,-4.7029,0.0,-4.9916,-5.1222,-5.2929,-5.4486,-5.5214,-5.5516,-5.5717,-5.5892,-5.5039,-5.4336,-5.4511,-5.5164,-5.5917,-5.6671,-5.8303,-5.9759,-6.0512,-6.0437,-6.0136,-5.9608,-5.9207,-5.8905,-5.873,-5.9533,-6.0211,-6.0588,-6.0613,-6.0437,-6.0085,-5.9885,-5.9608,-5.9257,-5.8905,-5.8278,-5.7323,-5.6394,-5.5465,-5.4561,-5.3457,-5.2929,-5.2929,-5.2929,-5.2929,-5.2929,-5.2929,-5.2929,-5.2879,-5.2327,-5.2,-5.1724,-5.0795,-5.0293,-5.0092,-4.9715,-4.959,-4.959,0.0,0.0,0.0,0.0,0.0,0.0,0.0,0.0,0.0,0.0,0.0,0.0,0.0,0.0,0.0,0.0,0.0,-3.4492,-3.5098,-3.7109,-3.875,-3.9785,-4.1836,-4.3359,-4.4277,-4.4668,-4.5234,-4.5976,-4.625,-4.6543,-4.6855,-4.7285,-4.7344,-4.7228,-4.8962,-5.042,-5.1576,-5.3697,-5.5323,-5.6449,-5.5776,-5.4913,-5.3708,-5.185,-4.9992,0.0,-4.6753,-4.61,-4.5874,-4.5347,-4.5146,-4.5221,-4.5773,-4.5573,-4.5171,-4.5422,-4.5748,-4.6476,-4.856,-5.0167,-5.1548,-5.2703,-5.4336,-5.5767,-5.6118,-5.6369,-5.652,-5.652,-5.5013,-5.3708,-5.3708,-5.3858,-5.421,-5.4913,-5.6545,-5.8152,-5.9282,-5.9106,-5.888,-5.8981,-5.8478,-5.8127,-5.8177,-5.8453,-5.893,-5.9684,-5.991,-5.9709,-5.8956,-5.9106,-5.8981,-5.8453,-5.8227,-5.7775,-5.7047,-5.6294,-5.5365,-5.4235,-5.3356,-5.2929,-5.2929,-5.2929,-5.2929,-5.2929,-5.2729,-5.2628,-5.2578,-5.1825,-5.1498,-5.1423,-5.0494,-5.0117,-5.0067,-4.9715,-4.959,-4.959,0.0,0.0,0.0,0.0,0.0,0.0,0.0,0.0,0.0,0.0,0.0,0.0,0.0,0.0,0.0,0.0,0.0,0.0,-3.459,0.0,0.0,-3.832,-3.8867,-3.9922,-4.1601,-4.1289,-4.1719,-4.2949,-4.2988,-4.3437,-4.4277,-4.4687,-4.4902,-4.4863,-4.666,-4.7391,-4.7835,-5.1424,-5.2624,-5.2325,-5.2569,-5.2176,-5.0996,-4.8761,-4.7255,-4.62,-4.507,-4.4317,-4.3915,-4.4392,-4.389,-4.3162,-4.374,-4.3564,-4.3489,-4.5171,-4.5673,-4.6527,-5.0293,-5.1373,-5.1975,-5.411,-5.5491,-5.6294,-5.6294,-5.6671,-5.6997,-5.6872,-5.5089,-5.3507,0.0,0.0,-5.2829,-5.2879,-5.3934,-5.5491,-5.7675,-5.7097,-5.7223,0.0,0.0,0.0,0.0,0.0,-5.7575,-5.8629,-5.9182,-5.9006,-5.7951,-5.8453,-5.8478,-5.7876,-5.7349,-5.7047,-5.6997,-5.5892,-5.4787,-5.3683,-5.3181,-5.2929,-5.2929,-5.2929,-5.2929,-5.2904,-5.2377,-5.2126,-5.2026,-5.0921,-5.0444,-5.0368,-4.9816,-4.959,-4.959,-4.959,-4.959,-4.959,0.0,0.0,0.0,0.0,0.0,0.0,0.0,0.0,0.0,0.0,0.0,0.0,0.0,0.0,0.0,0.0,0.0,0.0,0.0,0.0,0.0,0.0,0.0,0.0,0.0,0.0,0.0,-4.1172,-4.1816,-4.2246,-4.2461,-4.2891,-4.3086,-4.3066,-4.326,-4.429,-4.5884,-4.7314,-4.8933,-5.0314,-5.085,-5.0896,-5.0444,-4.8611,-4.7506,-4.6778,-4.5673,0.0,0.0,0.0,0.0,0.0,0.0,-4.5573,-4.5799,-4.7456,-4.8234,-4.9038,-5.1297,-5.2804,-5.4059,-5.544,-5.6646,-5.7474,-5.7474,-5.7248,-5.657,-5.4888,-5.2804,-5.0745,0.0,0.0,0.0,-5.2176,-5.4988,0.0,-5.8905,-5.9558,0.0,-5.9006,0.0,-5.883,-5.873,-5.8453,-5.8403,-5.8704,-5.8855,-5.8629,-5.7926,-5.878,-5.8679,-5.7298,-5.7524,-5.7273,-5.642,-5.5315,-5.4411,-5.3683,-5.3181,-5.2929,-5.2929,-5.2929,-5.2929,-5.2929,-5.2779,-5.2477,-5.2051,-5.1348,-5.082,-5.0368,-4.9816,-4.959,-4.959,-4.959,-4.959,-4.959,0.0,0.0,0.0,0.0,0.0,0.0,0.0,0.0,0.0,0.0,0.0,0.0,0.0,0.0,0.0,0.0,0.0,0.0,0.0,0.0,0.0,0.0,0.0,0.0,0.0,0.0,0.0,0.0,0.0,0.0,-4.0391,-4.0625,-4.0742,-4.0723,-4.0488,-4.1111,-4.2385,-4.443,-4.5916,0.0,0.0,-4.9038,-4.8485,-4.7305,-4.6502,-4.5949,0.0,0.0,0.0,0.0,0.0,-4.5547,-4.6652,-4.7004,-4.738,-4.9314,0.0,-5.0795,-5.2955,-5.4411,-5.5491,-5.6369,-5.7248,-5.77,-5.6972,-5.6344,-5.5315,-5.3105,-5.1071,-4.9238,-4.7757,-4.8686,-5.0067,0.0,0.0,0.0,-5.8504,-5.9131,-5.9382,0.0,-5.9458,0.0,-5.9081,-5.8629,-5.8353,-5.8353,-5.8579,-5.8478,-5.7926,-5.8227,-5.8001,-5.7072,-5.7123,-5.6746,-5.5867,-5.4737,-5.4034,-5.3683,-5.3181,-5.2929,-5.2929,-5.2929,-5.2929,-5.2904,-5.2678,-5.2251,-5.1699,-5.1147,-5.0569,-5.0017,-4.9715,-4.959,-4.959,-4.959,-4.959,-4.9565,0.0,0.0,0.0,0.0,0.0,0.0,0.0,0.0,0.0,0.0,-3.3418,-3.3418,0.0,0.0,0.0,0.0,0.0,0.0,0.0,0.0,0.0,0.0,0.0,0.0,0.0,0.0,0.0,0.0,0.0,0.0,0.0,0.0,0.0,0.0,-3.8242,-3.8242,-3.8511,-4.2224,-4.3466,-4.3308,-4.6426,-4.7129,-4.625,0.0,0.0,0.0,0.0,0.0,0.0,0.0,-4.7104,-4.6853,-4.8083,-4.846,-4.8912,-5.1172,-5.1774,-5.2277,-5.4888,-5.5968,-5.6445,-5.7022,-5.7474,-5.7349,-5.5666,-5.4787,-5.3708,-5.1423,-4.9715,-4.8435,-4.7732,-4.8159,-4.9063,-5.0318,0.0,-5.421,-5.7625,-5.775,-5.8177,-6.0085,-5.996,-5.9659,-5.9508,-5.8654,-5.8102,-5.8102,-5.8504,-5.8403,-5.77,-5.7424,-5.7148,-5.6922,-5.6394,-5.5792,-5.5164,-5.4185,-5.3658,-5.3582,-5.313,-5.2929,-5.2929,-5.2929,-5.2929,-5.2904,-5.2427,-5.185,-5.1247,-5.0745,-5.0167,-4.959,-4.959,-4.959,-4.959,-4.9822,-4.995,-4.9874,0.0,0.0,0.0,0.0,0.0,0.0,0.0,0.0,0.0,0.0,-3.3418,-3.3418,0.0,0.0,0.0,0.0,0.0,0.0,0.0,0.0,0.0,0.0,0.0,0.0,0.0,-3.4531,-3.5,-3.5625,-3.5957,0.0,0.0,0.0,0.0,-3.6465,-3.6465,-3.6465,-3.672,-4.0255,-4.1629,-4.182,-4.5207,-4.6476,-4.6301,0.0,0.0,0.0,0.0,0.0,0.0,0.0,-4.8812,-4.8711,-5.0745,-5.1373,-5.1825,-5.4034,-5.4361,-5.4386,-5.6244,-5.6821,-5.7022,-5.76,-5.7474,-5.6746,-5.5089,-5.3934,0.0,0.0,-4.8586,-4.7631,-4.6175,-4.7079,-4.8736,-5.0795,0.0,0.0,-5.8679,-5.9533,-5.9885,0.0,-6.0663,-6.0537,-5.9583,-5.9332,-5.9207,-5.9207,-5.8905,-5.8077,-5.657,-5.7725,-5.7801,-5.6394,-5.5817,-5.5039,-5.4009,-5.3808,-5.3482,-5.3055,-5.298,-5.2929,-5.2929,-5.2929,-5.2929,-5.2929,-5.2829,-5.2226,-5.1272,-5.1172,-5.0519,-4.959,-4.959,-4.959,-4.9719,-5.1142,-5.1616,-5.1741,0.0,0.0,0.0,0.0,0.0,0.0,0.0,-3.3574,-3.3574,-3.4023,-3.3887,-3.3672,-3.3437,-3.3418,-3.3418,0.0,0.0,0.0,0.0,0.0,0.0,0.0,0.0,0.0,0.0,-3.4277,-3.4824,-3.5723,0.0,-3.5918,-3.6348,-3.6133,-3.6016,-3.6016,-3.6016,-3.6016,-3.6152,-3.8729,-4.0408,-4.1437,-4.4003,-4.5525,0.0,0.0,0.0,0.0,0.0,0.0,0.0,0.0,-4.9113,-4.9967,-5.1925,-5.2528,-5.2904,-5.4838,-5.5189,-5.5365,-5.7022,-5.77,-5.7901,-5.7901,-5.7474,-5.6369,-5.3858,0.0,0.0,0.0,-4.728,-4.6828,-4.605,0.0,0.0,0.0,0.0,0.0,0.0,-5.8704,0.0,-6.0211,-6.0311,-5.9985,-5.9156,-5.8554,-5.8202,-5.8202,-5.7976,-5.775,-5.7524,-5.7725,-5.7349,-5.6244,-5.539,-5.4838,-5.4587,-5.3733,-5.3306,-5.3331,-5.3055,-5.2929,-5.2929,-5.2929,-5.2929,-5.2929,-5.2929,-5.2477,-5.1674,-5.1398,-5.1448,-5.1717,-5.1149,-5.1575,-5.2633,-5.3052,-5.3308,-5.3254,0.0,0.0,0.0,0.0,0.0,0.0,-3.4004,-3.3789,-3.3828,-3.4609,-3.4414,-3.4043,-3.3613,-3.3555,-3.3516,0.0,0.0,0.0,0.0,0.0,0.0,0.0,0.0,0.0,0.0,0.0,0.0,-3.6016,-3.5684,0.0,0.0,0.0,0.0,0.0,-3.6016,-3.6016,-3.6152,-3.7822,-3.9366,0.0,0.0,-4.4251,0.0,0.0,0.0,0.0,0.0,0.0,0.0,0.0,-4.8686,-5.0142,-5.1574,-5.2528,-5.3381,-5.4787,-5.5465,-5.6093,-5.7775,-5.8554,-5.8755,-5.8202,-5.7449,-5.5993,-5.2678,-5.1046,0.0,-4.6853,-4.6301,-4.6301,-4.6301,0.0,-4.7983,0.0,-5.0619,-5.2779,-5.6194,-5.7273,-5.8328,0.0,-5.9859,0.0,-5.878,-5.7926,-5.7349,-5.7223,-5.7097,-5.7424,-5.8328,-5.7298,-5.642,-5.5867,-5.4888,-5.4536,-5.4863,-5.3582,-5.313,-5.3532,-5.313,-5.2929,-5.2929,-5.2929,-5.2929,-5.2929,-5.2929,-5.2628,-5.2076,-5.1649,-5.2251,-5.3267,-5.2576,-5.3466,-5.5017,-5.5297,-5.5165,-5.5116,0.0,0.0,0.0,0.0,0.0,0.0,-3.4004,-3.4043,-3.418,-3.4629,-3.4668,-3.4473,-3.4062,-3.4023,-3.3848,0.0,0.0,0.0,0.0,0.0,0.0,0.0,0.0,0.0,0.0,0.0,0.0,-3.6016,-3.5976,0.0,0.0,0.0,0.0,0.0,0.0,-3.6016,-3.6152,-3.7822,0.0,0.0,0.0,0.0,0.0,0.0,0.0,0.0,0.0,0.0,0.0,0.0,0.0,-4.8259,-4.8937,-5.1222,-5.3758,-5.4436,0.0,0.0,-5.8905,-5.9382,-5.9282,-5.873,-5.7424,-5.5415,-5.2101,0.0,-4.9038,-4.6778,-4.6301,-4.6301,-4.6301,0.0,0.0,0.0,0.0,-5.1172,-5.4988,-5.6445,-5.7725,-5.9382,0.0,0.0,-5.883,-5.8629,-5.8353,-5.7851,-5.7323,-5.7072,-5.7173,-5.6143,-5.529,-5.4737,-5.411,-5.3582,-5.3155,-5.3005,-5.2955,-5.3005,-5.2955,-5.2929,-5.2929,-5.2929,-5.2929,-5.2929,-5.2929,-5.2628,-5.2101,-5.2051,-5.1859,-5.162,-5.3112,-5.3827,-5.436,-5.7225,-5.7944,-5.7571,0.0,0.0,0.0,0.0,0.0,0.0,-3.4004,-3.4082,-3.4316,-3.5019,-3.5117,-3.5059,-3.4883,-3.4609,-3.4277,-3.3848,0.0,0.0,0.0,0.0,0.0,0.0,0.0,0.0,0.0,0.0,-3.5605,-3.6016,-3.6016,0.0,0.0,0.0,0.0,0.0,0.0,-3.6016,-3.6016,-3.6809,0.0,0.0,0.0,0.0,0.0,0.0,0.0,0.0,0.0,0.0,0.0,0.0,0.0,0.0,-4.6928,-4.8611,0.0,0.0,-5.4511,-5.6043,-5.8378,-5.9232,-5.9357,-5.883,-5.7198,-5.4938,-5.195,0.0,-4.856,-4.6702,-4.6301,-4.6301,-4.6301,-4.6301,-4.6527,0.0,-4.7757,0.0,-5.1548,-5.2553,-5.416,-5.7173,-5.7424,-5.7575,-5.8177,-5.7901,-5.7474,-5.6922,-5.6043,-5.5691,-5.6018,-5.5616,-5.5139,-5.4587,-5.4009,-5.3758,-5.3909,-5.3256,-5.308,-5.3381,-5.308,-5.2929,-5.2929,-5.2929,-5.2929,-5.2929,-5.2929,-5.2804,-5.2578,-5.2251,-5.28,-5.3815,-5.4861,-5.6032,-5.751,-5.9394,-5.9964,-5.9782,0.0,0.0,0.0,0.0,0.0,-3.3574,-3.4004,-3.4082,-3.4336,-3.5098,-3.5195,-3.5195,-3.5195,-3.4785,-3.4492,-3.4473,-3.4609,0.0,0.0,0.0,0.0,0.0,0.0,0.0,0.0,0.0,-3.5723,-3.6016,-3.6016,-3.6016,0.0,0.0,-3.6016,-3.6016,0.0,0.0,0.0,0.0,0.0,0.0,0.0,0.0,0.0,0.0,0.0,0.0,0.0,0.0,0.0,0.0,0.0,0.0,0.0,0.0,0.0,0.0,-5.2929,-5.4888,-5.7474,-5.8604,-5.8981,-5.8755,-5.6771,-5.426,0.0,0.0,-4.8109,-4.6627,-4.6301,-4.6301,-4.6301,-4.6301,-4.6301,-4.6301,-4.6778,-4.7657,-4.9138,-4.9967,-5.1548,-5.4637,0.0,-5.5265,-5.6771,-5.6696,-5.6319,-5.5767,-5.5013,-5.4662,-5.4888,-5.4888,-5.4712,-5.4336,-5.3758,-5.3658,-5.4084,-5.3306,-5.3105,-5.3457,-5.3105,-5.2929,-5.2929,-5.2929,-5.2929,-5.2929,-5.2929,-5.2929,-5.2904,-5.2503,-5.3561,-5.5472,-5.644,-5.7969,-5.9908,-6.1223,-6.1583,-6.1313,0.0,0.0,0.0,0.0,0.0,-3.3574,-3.4004,-3.4082,-3.4219,-3.4648,-3.4707,-3.4707,-3.4707,-3.4336,-3.4434,-3.5293,-3.4961,0.0,0.0,0.0,0.0,0.0,0.0,0.0,0.0,0.0,-3.6016,-3.6016,-3.6016,-3.6016,-3.6016,-3.6016,-3.6016,-3.6016,0.0,0.0,0.0,0.0,0.0,0.0,0.0,0.0,0.0,0.0,0.0,0.0,0.0,0.0,0.0,0.0,0.0,0.0,0.0,-4.5045,-4.5949,0.0,-5.1147,-5.421,-5.6445,-5.7474,-5.8027,-5.8554,-5.6168,-5.3281,0.0,0.0,-4.7606,-4.6527,-4.6301,-4.6301,-4.6301,-4.6301,-4.6301,-4.6301,-4.6778,-4.7531,-4.8636,-4.9715,-5.0845,0.0,-5.2628,-5.3381,-5.4486,-5.5089,-5.5164,-5.4637,-5.4587,-5.431,-5.3758,-5.3708,-5.3708,-5.3708,-5.3206,-5.2929,-5.2955,-5.2929,-5.2929,-5.2929,-5.2929,-5.2929,-5.2929,-5.2929,-5.2929,-5.2929,-5.2929,-5.2929,-5.2929,-5.2929,-5.392,-5.5551,-5.7341,-5.898,-6.0721,-6.2409,-6.266,-6.2002,0.0,0.0,0.0,0.0,0.0,0.0,-3.3613,-3.3887,-3.4121,-3.4258,-3.4531,-3.4707,-3.4707,-3.459,-3.4746,-3.5351,-3.4961,0.0,0.0,0.0,0.0,0.0,0.0,0.0,0.0,-3.6016,-3.6016,-3.6016,-3.6309,-3.6309,-3.6035,-3.6328,-3.6309,-3.6016,-3.6016,-3.6016,0.0,0.0,0.0,0.0,0.0,0.0,0.0,0.0,0.0,0.0,0.0,0.0,0.0,0.0,0.0,0.0,0.0,0.0,0.0,-4.62,-4.8862,-5.1774,-5.3256,-5.4612,-5.5491,-5.4888,-5.3381,-5.1624,-4.9941,0.0,0.0,-4.6451,-4.6301,-4.6301,-4.6301,-4.6301,-4.6426,-4.6803,-4.7029,-4.7255,-4.7606,-4.8611,0.0,-5.1875,-5.3909,-5.5164,-5.5139,-5.4587,-5.4336,-5.4536,-5.3858,-5.3507,-5.3683,-5.3356,-5.3181,-5.3181,-5.3005,-5.2929,-5.2929,-5.2929,-5.2929,-5.2929,-5.2929,-5.2929,-5.2929,-5.2929,-5.2929,-5.2929,-5.2929,-5.2929,-5.2929,-5.2929,-5.392,-5.5551,-5.7341,-5.898,-6.0692,-6.1934,-6.2271,-6.1942,0.0,0.0,0.0,0.0,0.0,0.0,-3.3418,-3.3652,-3.3828,-3.3828,-3.4043,-3.4277,-3.4434,-3.4453,-3.4707,-3.5351,-3.5137,0.0,0.0,0.0,0.0,0.0,0.0,0.0,-3.5781,-3.5781,-3.5937,-3.6269,-3.6543,-3.6621,-3.6504,-3.6621,-3.6523,-3.625,-3.6094,-3.6016,0.0,0.0,0.0,0.0,0.0,0.0,-3.8861,0.0,0.0,0.0,0.0,0.0,0.0,0.0,0.0,0.0,0.0,0.0,0.0,0.0,-4.7079,-4.9565,-5.1322,-5.2854,-5.3833,-5.3331,-5.1925,-5.0368,-4.9314,0.0,0.0,0.0,0.0,-4.6301,-4.6301,-4.6301,-4.6426,-4.6753,-4.6828,-4.6954,-4.7355,-4.8008,0.0,-5.0946,-5.3231,-5.4436,-5.3909,-5.3758,-5.3758,-5.3934,-5.3306,-5.308,-5.3381,-5.3105,-5.2929,-5.2929,-5.2929,-5.2929,-5.2929,-5.2929,-5.2929,-5.2929,-5.2929,-5.2929,-5.2929,-5.2929,-5.2929,-5.2929,-5.2703,-5.2628,0.0,-5.2402,-5.3679,-5.5794,-5.6938,-5.8814,-6.1204,-6.157,-6.1882,-6.1912,0.0,0.0,0.0,0.0,0.0,0.0,0.0,-3.3418,-3.3418,-3.3418,-3.3418,-3.3574,-3.3984,-3.4082,-3.4453,-3.5273,-3.541,0.0,0.0,0.0,0.0,0.0,0.0,0.0,-3.5391,-3.5391,-3.5801,-3.6621,-3.666,-3.6855,-3.7207,-3.6836,-3.666,-3.6601,-3.6211,-3.6016,0.0,0.0,0.0,0.0,-3.6016,-3.6904,0.0,0.0,0.0,0.0,0.0,0.0,0.0,0.0,0.0,0.0,0.0,0.0,0.0,0.0,0.0,0.0,0.0,-5.18,-5.2729,-5.313,-5.1348,-4.9464,-4.9364,0.0,0.0,0.0,0.0,0.0,-4.6301,-4.6301,-4.6326,-4.6351,-4.6376,-4.6753,-4.7807,-4.8109,0.0,0.0,-5.1222,-5.1975,-5.1398,-5.2729,-5.3457,-5.2955,-5.2929,-5.2929,-5.2929,-5.2929,-5.2929,-5.2929,-5.2929,-5.2929,-5.2929,-5.2929,-5.2929,-5.2929,-5.2929,-5.2929,-5.2929,-5.2929,-5.2929,-5.2904,-5.2377,-5.2151,-5.2076,-5.1548,-5.3295,-5.6209,-5.6237,-5.8684,-6.1942,-6.1343,-6.1463,-6.1762,0.0,0.0,0.0,0.0,0.0,0.0,0.0,0.0,0.0,0.0,-3.3418,-3.3457,-3.3555,-3.416,-3.4629,0.0,0.0,0.0,0.0,0.0,0.0,0.0,0.0,0.0,-3.5391,-3.5391,-3.5644,-3.6172,-3.6504,-3.6543,-3.6328,-3.6562,-3.6484,-3.6172,-3.6074,-3.6016,0.0,0.0,0.0,0.0,-3.6016,-3.6091,0.0,0.0,0.0,0.0,-4.1986,-4.319,0.0,0.0,0.0,0.0,0.0,0.0,0.0,0.0,-4.5824,-4.728,-4.7933,0.0,-4.9565,-4.8862,-4.8485,-4.8083,0.0,0.0,0.0,0.0,0.0,0.0,0.0,-4.6301,-4.6451,-4.6878,-4.6928,-4.733,-4.841,-5.0042,0.0,-5.1473,-5.2578,-5.2955,-5.2,-5.2628,-5.3055,-5.2929,-5.2929,-5.2929,-5.2929,-5.2929,-5.2929,-5.2929,-5.2929,-5.2929,-5.2929,-5.2929,-5.2929,-5.2929,-5.2929,-5.2929,-5.2929,-5.2929,-5.2929,-5.2929,-5.2779,-5.2503,-5.2101,-5.1975,-5.3661,-5.6237,-5.6707,-5.8799,-6.1313,-6.1164,-6.0894,-6.0446,0.0,0.0,0.0,0.0,0.0,0.0,0.0,0.0,0.0,0.0,-3.3418,-3.3418,-3.3418,-3.418,-3.4707,0.0,0.0,0.0,0.0,0.0,0.0,0.0,0.0,-3.498,-3.4785,-3.498,-3.5391,-3.6016,-3.6465,-3.6641,-3.6601,-3.666,-3.6543,-3.6309,-3.6113,-3.5918,0.0,0.0,0.0,-3.5996,-3.5801,0.0,0.0,0.0,0.0,0.0,-3.9582,-4.0569,0.0,-4.2031,-4.2708,-4.3118,0.0,0.0,0.0,0.0,-4.5648,-4.6803,-4.7054,-4.7732,-4.8234,-4.7631,-4.7531,-4.7405,-4.6828,0.0,0.0,0.0,0.0,0.0,0.0,0.0,-4.6702,-4.6753,-4.738,-4.8284,0.0,0.0,0.0,-5.2076,-5.2628,-5.2829,-5.2528,-5.2754,-5.2929,-5.2929,-5.2929,-5.2929,-5.2929,-5.2929,-5.2929,-5.2929,-5.2929,-5.2929,-5.2929,-5.2929,-5.2929,-5.2929,-5.2929,-5.2929,-5.2929,-5.2929,-5.2929,-5.2904,-5.2653,-5.2226,-5.1699,-5.1448,-5.2981,-5.5408,-5.574,-5.7883,-6.0595,-6.0296,-6.0146,-5.9997,0.0,0.0,0.0,0.0,0.0,0.0,0.0,0.0,0.0,0.0,0.0,0.0,0.0,0.0,0.0,0.0,0.0,0.0,0.0,0.0,0.0,0.0,-3.4707,-3.4531,-3.418,-3.4512,-3.5137,-3.6016,-3.6465,-3.6855,-3.7187,-3.6894,-3.6738,-3.666,-3.6289,-3.5879,-3.5488,-3.5488,-3.5664,-3.5898,-3.5605,0.0,0.0,0.0,0.0,0.0,0.0,0.0,0.0,-3.9825,-4.0763,-4.1659,-4.2559,0.0,0.0,0.0,0.0,0.0,-4.6878,-4.7456,-4.7883,-4.7807,-4.7456,-4.7104,-4.7029,0.0,0.0,0.0,0.0,0.0,0.0,0.0,0.0,0.0,-4.7807,0.0,-5.0393,-5.1122,-5.1674,-5.2051,-5.2176,-5.2377,-5.2754,-5.2879,-5.2929,-5.2929,-5.2929,-5.2929,-5.2929,-5.2929,-5.2929,-5.2929,-5.2854,-5.2804,-5.2804,-5.2879,-5.2879,-5.2804,-5.2879,-5.2879,-5.2804,-5.2804,-5.2804,-5.2779,-5.2226,-5.1674,-5.1096,-5.0619,-5.1788,-5.4057,-5.4139,-5.6449,-5.9517,-5.9071,-5.9299,-5.9847,0.0,0.0,0.0,0.0,0.0,0.0,0.0,0.0,0.0,0.0,0.0,0.0,0.0,0.0,0.0,0.0,0.0,0.0,0.0,0.0,0.0,-3.4726,-3.4707,-3.4668,-3.4609,-3.4668,-3.5137,-3.6016,-3.6465,-3.6699,-3.6777,-3.707,-3.7012,-3.668,-3.6601,-3.6328,-3.5918,-3.5918,-3.5762,-3.5508,-3.5801,0.0,0.0,0.0,0.0,0.0,0.0,0.0,0.0,-3.8163,-4.0171,-4.209,-4.1777,0.0,0.0,0.0,0.0,0.0,-4.6426,-4.7154,-4.7807,-4.7355,-4.7205,-4.7004,0.0,0.0,0.0,0.0,0.0,0.0,0.0,0.0,0.0,0.0,0.0,-4.9866,0.0,0.0,-5.2528,-5.2151,-5.2528,-5.2653,-5.2277,-5.2653,-5.2929,-5.2929,-5.2929,-5.2929,-5.2929,-5.2929,-5.2929,-5.2929,-5.2477,-5.2226,-5.2226,-5.2703,-5.2703,-5.2226,-5.2703,-5.2678,-5.2226,-5.2226,-5.2226,-5.2201,-5.1649,-5.1071,-5.0544,-5.0444,-5.1177,-5.2385,-5.3041,-5.4884,-5.7278,-5.7712,-5.8444,-5.9249,0.0,0.0,0.0,0.0,0.0,0.0,0.0,0.0,0.0,0.0,0.0,0.0,0.0,0.0,0.0,0.0,0.0,0.0,0.0,0.0,-3.4824,-3.4375,-3.4355,-3.4473,-3.4687,-3.4941,-3.5508,-3.6367,-3.6797,-3.7246,-3.7695,-3.7187,-3.6738,-3.6309,-3.6074,-3.5859,-3.5664,-3.541,-3.5332,-3.5371,0.0,0.0,0.0,0.0,0.0,0.0,0.0,0.0,0.0,0.0,-3.7967,-3.9331,-3.9556,0.0,0.0,0.0,0.0,0.0,-4.6301,-4.6677,-4.7129,-4.7456,-4.8008,-4.8234,0.0,0.0,0.0,0.0,0.0,0.0,0.0,0.0,0.0,0.0,0.0,-5.0444,-5.1574,-5.19,-5.2051,-5.2101,-5.2327,-5.2503,-5.2553,-5.2779,-5.2929,-5.2929,-5.2929,-5.2929,-5.2929,-5.2653,-5.2477,-5.2477,-5.195,-5.1649,-5.1649,-5.1925,-5.19,-5.1649,-5.1925,-5.19,-5.1649,-5.1649,-5.1649,-5.1649,-5.1398,-5.0946,-5.0419,-5.0419,-5.1049,-5.2015,-5.2279,-5.3673,-5.5588,-5.6709,-5.7927,-5.9159,0.0,0.0,0.0,0.0,0.0,0.0,0.0,0.0,0.0,0.0,0.0,0.0,0.0,0.0,0.0,0.0,0.0,0.0,0.0,-3.4551,-3.4414,-3.4082,-3.416,-3.4375,-3.4687,-3.5156,-3.5859,-3.6816,-3.7344,-3.7988,-3.8691,-3.7519,-3.668,-3.6152,-3.5723,-3.543,-3.5215,-3.4961,-3.4941,-3.5039,0.0,0.0,0.0,0.0,0.0,0.0,0.0,0.0,0.0,0.0,0.0,0.0,0.0,0.0,0.0,-4.1939,-4.3482,-4.5445,-4.5569,-4.6059,-4.6702,-4.7531,0.0,0.0,0.0,0.0,0.0,0.0,0.0,0.0,0.0,0.0,0.0,-5.1222,-5.1021,-5.1021,-5.2151,-5.1925,-5.1825,-5.2251,-5.2302,-5.2477,-5.2879,-5.2929,-5.2929,-5.2929,-5.2929,-5.2879,-5.2729,-5.2327,-5.2051,-5.1925,-5.1373,-5.1071,-5.1071,-5.0946,-5.0946,-5.1071,-5.1222,-5.1222,-5.1071,-5.1071,-5.1071,-5.1071,-5.0946,-5.0645,-5.0218,-5.0218,-5.0691,-5.1367,-5.1367,-5.2455,-5.4029,-5.6022,-5.744,-5.8694,0.0,0.0,0.0,0.0,0.0,0.0,0.0,0.0,0.0,0.0,0.0,0.0,0.0,0.0,0.0,0.0,0.0,0.0,0.0,-3.4121,-3.4101,-3.4082,-3.4453,-3.4668,-3.4707,-3.5156,-3.5996,-3.7246,-3.8086,-3.8711,-3.9141,-3.8242,-3.7402,-3.6601,-3.6172,-3.5527,-3.4766,-3.5176,-3.4883,-3.4199,-3.4531,0.0,0.0,0.0,0.0,0.0,0.0,0.0,0.0,0.0,0.0,0.0,0.0,0.0,-4.0185,-4.0513,-4.1614,-4.2664,-4.3142,-4.5135,-4.7104,0.0,0.0,0.0,0.0,0.0,0.0,0.0,0.0,0.0,0.0,0.0,-4.8987,-4.9665,-5.0594,-5.1599,-5.2703,-5.2829,-5.2829,-5.2854,-5.2879,-5.2879,-5.2929,-5.2929,-5.2929,-5.2929,-5.2929,-5.2703,-5.2201,-5.2126,-5.1875,-5.1348,-5.077,-5.0469,-5.0469,-4.9967,-4.9967,-5.0494,-5.1021,-5.0996,-5.0469,-5.0469,-5.0469,-5.0444,-4.9941,-4.969,-4.9665,-4.9665,-4.9744,-4.9719,-4.9719,-5.079,-5.2578,-5.5532,-5.6736,-5.7075,0.0,0.0,0.0,0.0,0.0,0.0,0.0,0.0,0.0,0.0,0.0,0.0,0.0,0.0,0.0,0.0,0.0,0.0,0.0,-3.3672,-3.3672,-3.3672,-3.3828,-3.4043,-3.4297,-3.5547,-3.6953,-3.8476,-3.9355,-3.9453,-3.8789,-3.7676,-3.668,-3.584,-3.5137,-3.4922,-3.5098,-3.4726,-3.4531,-3.4453,-3.4355,-3.3945,0.0,0.0,0.0,0.0,0.0,0.0,0.0,0.0,-3.4021,-3.4664,-3.4825,-3.629,-3.7919,-3.8092,-3.9343,-4.0831,-4.1038,-4.2218,0.0,0.0,0.0,0.0,0.0,0.0,0.0,0.0,0.0,0.0,0.0,0.0,-5.0393,-5.0594,-5.1574,-5.2452,-5.2879,-5.2929,-5.2929,-5.2929,-5.2929,-5.2929,-5.2929,-5.2929,-5.2929,-5.2929,-5.2929,-5.2678,-5.2126,-5.1774,-5.1322,-5.077,-5.0193,-4.9916,-4.9916,-4.969,-4.969,-4.9916,-5.0117,-5.0117,-4.9916,-4.9916,-4.9916,-4.9891,-4.969,-4.959,-4.959,-4.959,-4.959,-4.959,-4.959,-5.0537,-5.2209,-5.4505,-5.5907,-5.702,0.0,0.0,0.0,0.0,0.0,0.0,0.0,0.0,0.0,0.0,0.0,0.0,0.0,0.0,0.0,0.0,0.0,0.0,-3.3418,-3.3418,-3.3418,-3.3418,-3.3418,-3.3691,-3.4258,-3.5723,-3.7168,-3.8594,-3.9609,-3.9453,-3.8144,-3.7012,-3.6074,-3.5351,-3.4473,-3.4414,-3.4941,-3.4336,-3.416,-3.4277,-3.3984,-3.3691,0.0,0.0,0.0,0.0,0.0,0.0,0.0,0.0,-3.3418,-3.3476,-3.373,-3.4699,-3.5748,-3.6036,-3.7337,-3.8861,-3.9015,-3.9922,0.0,0.0,0.0,0.0,0.0,0.0,0.0,0.0,0.0,0.0,0.0,0.0,0.0,-5.1222,-5.2201,-5.2929,-5.2929,-5.2929,-5.2929,-5.2929,-5.2929,-5.2929,-5.2929,-5.2779,-5.2678,-5.2678,-5.2503,-5.2176,-5.1599,-5.1222,-5.0745,-5.0167,-4.9791,-4.959,-4.959,-4.959,-4.959,-4.959,-4.959,-4.959,-4.959,-4.9414,-4.9439,-4.959,-4.959,-4.959,-4.959,-4.959,-4.959,-4.959,-4.959,-5.0308,-5.1518,-5.367,-5.4741,-5.5588,0.0,0.0,0.0,0.0,0.0,0.0,0.0,0.0,-3.3418,-3.3418,-3.3418,0.0,0.0,0.0,0.0,0.0,0.0,0.0,-3.3418,-3.3418,-3.3418,-3.3418,-3.3418,-3.3809,-3.4668,-3.5547,-3.6426,-3.7305,-3.8574,-3.8535,-3.7266,-3.6406,-3.5781,-3.5332,-3.4473,-3.4082,-3.4082,-3.4082,-3.3828,-3.3437,-3.3437,-3.3418,-3.3418,0.0,0.0,0.0,0.0,0.0,0.0,0.0,-3.3418,-3.3574,-3.4434,-3.4101,-3.3594,-3.4453,-3.5517,-3.6645,-3.7065,-3.8434,0.0,0.0,0.0,0.0,0.0,0.0,0.0,0.0,0.0,0.0,0.0,0.0,0.0,-5.1096,-5.2201,-5.2929,-5.2929,-5.2929,-5.2929,-5.2929,-5.2929,-5.2929,-5.2929,-5.2427,-5.2101,-5.2101,-5.1599,-5.1021,-5.0444,-5.0419,-5.0167,-4.9615,-4.959,-4.959,-4.959,-4.959,-4.959,-4.9565,-4.9565,-4.9565,-4.9565,-4.9038,-4.9088,-4.959,-4.959,-4.959,-4.959,-4.959,-4.959,-4.959,-4.959,-4.959,-4.995,-5.3214,-5.3308,-5.27,0.0,0.0,0.0,0.0,0.0,0.0,0.0,0.0,-3.332,-3.3027,-3.3242,0.0,0.0,0.0,0.0,0.0,0.0,0.0,-3.3418,-3.3144,-3.2988,-3.2988,-3.2988,-3.3105,-3.3359,-3.4492,-3.5957,-3.7734,-3.8125,-3.75,-3.5957,-3.5703,-3.5019,-3.4023,-3.4355,-3.4355,-3.4082,-3.4082,-3.4004,-3.3887,-3.3887,-3.3691,-3.3457,0.0,0.0,0.0,0.0,0.0,0.0,0.0,0.0,0.0,-3.4082,-3.3867,-3.3535,-3.4101,-3.4329,-3.4372,-3.4492,0.0,0.0,0.0,0.0,0.0,0.0,0.0,0.0,0.0,0.0,-5.0393,-5.1147,-5.1322,-5.1348,-5.1297,-5.2201,-5.2929,-5.2929,-5.2929,-5.2929,-5.2929,-5.2578,-5.2352,-5.2352,-5.185,-5.1523,-5.1523,-5.1373,-5.1021,-5.0444,-5.0042,-4.9766,-4.9615,-4.9213,-4.9012,-4.9012,-4.9012,-4.8812,-4.841,-4.8033,-4.8485,-4.959,-4.9414,-4.9439,-4.959,-4.959,-4.959,-4.959,-4.959,-4.959,-4.959,-4.959,-4.959,-4.9822,-5.1989,-5.2455,-5.2332,0.0,0.0,0.0,0.0,0.0,0.0,0.0,0.0,-3.2891,-3.2812,-3.3008,-3.3066,0.0,0.0,0.0,0.0,0.0,0.0,-3.3418,-3.3184,-3.3047,-3.3047,-3.3047,-3.3125,-3.3301,-3.4219,-3.5254,-3.6387,-3.6738,-3.6211,-3.4883,-3.5234,-3.4961,-3.4238,-3.4922,-3.498,-3.459,-3.4394,-3.4219,-3.4082,-3.4082,-3.3906,-3.3711,0.0,0.0,0.0,0.0,0.0,0.0,0.0,0.0,0.0,-3.3945,-3.3769,-3.3496,-3.3945,-3.3887,-3.3711,-3.3887,0.0,0.0,0.0,0.0,0.0,0.0,0.0,0.0,0.0,0.0,-5.0996,-5.18,-5.185,-5.1749,-5.1624,-5.2176,-5.2528,-5.2302,-5.2277,-5.2277,-5.2277,-5.1975,-5.1774,-5.1774,-5.1272,-5.0845,-5.0619,-5.0419,-5.0142,-4.9791,-4.9439,-4.9364,-4.959,-4.9063,-4.8761,-4.8761,-4.8761,-4.8485,-4.7908,-4.8033,-4.851,-4.9264,-4.9038,-4.9163,-4.959,-4.959,-4.9464,-4.9289,-4.9515,-4.9464,-4.9289,-4.9515,-4.9464,-4.9544,-5.1288,-5.1616,-5.1393,0.0,0.0,-3.1582,-3.1582,0.0,0.0,0.0,0.0,-3.2344,-3.2695,-3.2773,-3.2773,0.0,0.0,0.0,0.0,0.0,0.0,0.0,-3.332,-3.3301,-3.3301,-3.334,-3.3574,-3.4004,-3.4355,-3.4336,-3.3965,-3.4883,-3.4883,-3.4023,-3.4922,-3.5332,-3.5351,-3.582,-3.5762,-3.5293,-3.4883,-3.4434,-3.4023,-3.4062,-3.4082,-3.4082,-3.4082,0.0,0.0,0.0,0.0,0.0,0.0,0.0,0.0,-3.3945,-3.3809,-3.3555,-3.3945,-3.4043,-3.4101,0.0,0.0,0.0,0.0,0.0,0.0,0.0,0.0,0.0,0.0,0.0,-5.1565,-5.2678,-5.2076,-5.1548,-5.1975,-5.2076,-5.1925,-5.1348,-5.1247,-5.1222,-5.1272,-5.1197,-5.1122,-5.1122,-5.0594,-5.0042,-4.949,-4.8962,-4.8686,-4.8686,-4.8661,-4.8862,-4.9414,-4.8912,-4.8636,-4.8636,-4.8636,-4.8335,-4.7782,-4.8812,-4.9063,-4.8611,-4.8234,-4.8586,-4.9515,-4.9515,-4.9213,-4.8736,-4.9289,-4.9188,-4.8761,-4.9314,-4.9213,-4.9065,-5.1059,-5.0916,-5.0078,0.0,0.0,-3.2031,-3.2031,0.0,0.0,0.0,0.0,0.0,0.0,0.0,0.0,0.0,0.0,0.0,0.0,0.0,0.0,0.0,-3.2617,-3.2441,-3.2441,-3.2754,-3.3125,-3.3555,-3.332,-3.3164,-3.3066,-3.4258,-3.4414,-3.3574,-3.4453,-3.4844,-3.4883,-3.5664,-3.5586,-3.4844,-3.4746,-3.4258,-3.3594,-3.3945,-3.4082,-3.4082,-3.4082,-3.4023,0.0,0.0,0.0,0.0,0.0,0.0,0.0,-3.4043,-3.4004,-3.3945,-3.4043,-3.3828,-3.3652,0.0,0.0,0.0,0.0,0.0,0.0,0.0,0.0,0.0,0.0,-4.8615,-5.0749,-5.2029,-5.2452,-5.2327,-5.1574,-5.1825,-5.1925,-5.1348,-5.0896,-5.077,-5.1222,-5.0494,-4.9967,-4.9967,-4.9464,-4.8887,-4.8309,-4.8159,-4.8083,-4.8083,-4.7707,-4.7732,-4.8259,-4.7757,-4.7481,-4.7481,-4.7481,-4.7205,-4.6652,-4.6903,-4.7179,-4.7531,-4.8686,-4.9138,-4.8962,-4.8962,-4.8611,-4.8134,-4.8711,-4.8611,-4.8159,-4.8711,-4.8887,-4.8964,-4.9748,-4.995,-4.9719,0.0,0.0,0.0,0.0,0.0,0.0,0.0,0.0,0.0,0.0,0.0,0.0,0.0,0.0,0.0,0.0,0.0,0.0,0.0,-3.2519,-3.2168,-3.2168,-3.2383,-3.2695,-3.3105,-3.291,-3.2793,-3.2793,-3.3672,-3.375,-3.3144,-3.4199,-3.4824,-3.5059,-3.5723,-3.5644,-3.5019,-3.4785,-3.4453,-3.4062,-3.4277,-3.4375,-3.4375,-3.4375,-3.4121,-3.373,-3.3496,0.0,0.0,0.0,0.0,0.0,0.0,0.0,-3.375,-3.375,-3.3594,-3.3516,0.0,0.0,0.0,0.0,0.0,0.0,0.0,0.0,0.0,-4.3939,-4.7156,-4.9719,-5.0206,-5.1358,-5.1875,-5.1021,-5.1096,-5.1021,-5.0193,-4.9816,-4.964,-4.9665,-4.9138,-4.8786,-4.8786,-4.8535,-4.8134,-4.7581,-4.7531,-4.7531,-4.7531,-4.728,-4.738,-4.7883,-4.7405,-4.7129,-4.7129,-4.7129,-4.6853,-4.6326,-4.6828,-4.723,-4.7531,-4.8385,-4.8485,-4.8008,-4.8259,-4.8033,-4.7581,-4.8134,-4.8184,-4.7958,-4.8535,-4.8761,-4.8837,-4.9389,-4.959,-4.959,0.0,0.0,0.0,0.0,0.0,0.0,0.0,0.0,0.0,0.0,0.0,0.0,0.0,0.0,0.0,0.0,0.0,0.0,0.0,0.0,0.0,-3.2051,-3.2129,-3.2344,-3.2676,-3.2617,-3.2578,-3.2578,-3.3008,-3.3066,-3.2832,-3.4023,-3.4824,-3.5293,-3.5644,-3.5605,-3.5234,-3.4785,-3.4551,-3.4492,-3.4551,-3.459,-3.459,-3.459,-3.4141,-3.3516,-3.3457,-3.3418,-3.3418,-3.3418,0.0,0.0,0.0,0.0,-3.3516,-3.3437,-3.3418,-3.3516,0.0,0.0,0.0,0.0,0.0,0.0,0.0,0.0,0.0,-4.1915,-4.5246,-4.8146,-4.8368,-4.978,-5.0622,-5.0368,-5.0268,-4.9916,-4.8912,-4.8611,-4.8335,-4.7958,-4.7832,-4.7782,-4.7782,-4.7782,-4.7556,-4.7029,-4.7004,-4.7004,-4.7004,-4.7004,-4.7179,-4.7631,-4.7205,-4.7004,-4.7004,-4.7004,-4.6753,-4.6326,-4.7205,-4.7631,-4.7631,-4.7631,-4.7456,-4.7154,-4.7581,-4.7481,-4.7029,-4.7556,-4.7732,-4.7682,-4.8259,-4.8535,-4.8686,-4.9238,-4.9515,-4.959,0.0,0.0,0.0,0.0,0.0,0.0,0.0,0.0,0.0,0.0,-3.2168,-3.1875,0.0,0.0,0.0,0.0,0.0,0.0,-3.1797,0.0,0.0,-3.1601,-3.1973,-3.2207,-3.2246,-3.1875,-3.168,-3.168,-3.2129,-3.25,-3.2812,-3.373,-3.4394,-3.4785,-3.4844,-3.4844,-3.4766,-3.4336,-3.3945,-3.3633,-3.4004,-3.416,-3.416,-3.416,-3.4082,-3.3945,-3.3555,-3.3418,-3.3418,-3.3418,-3.3672,0.0,0.0,0.0,-3.3906,-3.3535,-3.3418,0.0,0.0,0.0,0.0,0.0,0.0,0.0,0.0,0.0,-3.9935,0.0,-4.1771,-4.4507,-4.7252,-4.8379,-4.9082,-4.9606,-4.9715,-4.949,-4.8862,-4.7958,-4.7481,-4.7857,-4.7506,-4.723,-4.723,-4.723,-4.7004,-4.6451,-4.6426,-4.6426,-4.6426,-4.6426,-4.6451,-4.6527,-4.6451,-4.6426,-4.6426,-4.6426,-4.6376,-4.6301,-4.6451,-4.6527,-4.6527,-4.6527,-4.6753,-4.7129,-4.7205,-4.6928,-4.6451,-4.7004,-4.6954,-4.6577,-4.7129,-4.7631,-4.8083,-4.8661,-4.9188,-4.959,0.0,0.0,0.0,0.0,0.0,0.0,0.0,0.0,0.0,0.0,0.0,-3.1562,0.0,0.0,0.0,-3.1504,-3.1484,-3.1367,-3.1172,-3.1387,-3.1406,-3.1172,-3.1348,-3.1562,-3.1797,-3.1621,-3.1523,-3.1523,-3.2187,-3.25,0.0,-3.3555,-3.4297,-3.4687,-3.4453,-3.4336,-3.4316,-3.3887,-3.375,-3.3809,-3.4004,-3.4082,-3.4082,-3.4082,-3.3926,-3.3691,-3.3496,-3.3418,-3.3418,-3.3418,-3.3555,-3.3672,-3.3476,0.0,0.0,0.0,0.0,0.0,0.0,0.0,0.0,0.0,0.0,0.0,0.0,0.0,-3.9101,-3.8887,-3.9699,-4.1193,-4.3617,-4.5965,-4.7542,-4.7613,-4.8447,-4.8837,-4.7983,-4.7431,-4.7104,-4.7029,-4.6527,-4.6326,-4.6652,-4.6401,-4.6225,-4.6301,-4.6301,-4.6301,-4.6301,-4.6024,-4.5999,-4.6301,-4.6024,-4.5999,-4.6301,-4.6301,-4.6301,-4.6301,-4.6301,-4.6301,-4.6301,-4.6301,-4.6451,-4.6677,-4.6677,-4.6527,-4.6326,-4.6577,-4.6702,-4.6803,-4.7029,-4.7657,-4.8435,-4.8686,-4.9113,-4.959,0.0,0.0,0.0,0.0,0.0,0.0,0.0,0.0,0.0,0.0,0.0,0.0,0.0,0.0,0.0,0.0,-3.1074,-3.0898,-3.0898,-3.1191,-3.1211,-3.0898,-3.0898,-3.1035,-3.1348,-3.1367,-3.1367,-3.1367,-3.2109,0.0,-3.2519,-3.3574,-3.4355,0.0,-3.4434,-3.418,-3.4043,-3.373,-3.3769,-3.4062,-3.3828,-3.3809,-3.3887,-3.3789,-3.3613,-3.3418,-3.3418,-3.3418,-3.3418,-3.3418,-3.3418,-3.3418,-3.3418,-3.3418,0.0,0.0,0.0,0.0,0.0,0.0,0.0,0.0,0.0,0.0,0.0,0.0,-3.8437,-3.8555,-3.8574,-3.8991,-4.0371,-4.3244,-4.5564,-4.5893,-4.7029,-4.7681,-4.7132,-4.7004,-4.6728,-4.6175,-4.5723,-4.5598,-4.5849,-4.5648,-4.5673,-4.6075,-4.6225,-4.625,-4.61,-4.5723,-4.5673,-4.6075,-4.5573,-4.5598,-4.6301,-4.6301,-4.6301,-4.6301,-4.6301,-4.6301,-4.6301,-4.6301,-4.6301,-4.6301,-4.6301,-4.6301,-4.6301,-4.6301,-4.6552,-4.6928,-4.6928,-4.7581,-4.856,-4.856,-4.8987,-4.959,0.0,0.0,0.0,0.0,0.0,0.0,0.0,0.0,0.0,0.0,0.0,0.0,-3.0937,-3.0898,-3.0898,-3.0918,-3.0898,-3.0898,-3.0898,-3.0918,-3.0918,-3.0898,-3.0898,0.0,-3.0918,-3.0918,-3.0918,-3.0918,-3.1367,-3.2187,-3.3359,-3.3848,-3.4531,-3.5332,-3.4883,-3.4453,-3.4082,0.0,0.0,-3.4004,-3.3184,-3.3105,-3.3418,-3.3008,-3.3086,-3.3418,-3.3418,0.0,0.0,0.0,-3.3418,-3.3418,-3.3418,-3.3418,-3.3418,0.0,0.0,0.0,0.0,0.0,0.0,0.0,0.0,0.0,0.0,0.0,-3.8086,-3.8496,-3.8574,-3.8574,-3.872,-4.0371,-4.2557,-4.5474,-4.5657,-4.5797,-4.6959,-4.6677,-4.615,-4.5598,-4.5497,-4.5271,-4.4769,-4.5171,-4.5497,-4.5522,-4.6024,-4.6075,-4.5573,-4.5497,-4.5497,-4.5522,-4.497,-4.5196,-4.6301,-4.6301,-4.6301,-4.6301,-4.6301,-4.6301,-4.6301,-4.6301,-4.6301,-4.6301,-4.6301,-4.6301,-4.6301,-4.6301,-4.6326,-4.6351,-4.6351,-4.7004,-4.7958,-4.7958,-4.8661,-4.959,0.0,0.0,0.0,0.0,0.0,0.0,0.0,0.0,0.0,0.0,0.0,0.0,0.0,-3.0898,-3.0898,-3.0898,-3.0898,-3.0898,-3.0898,-3.0898,-3.0898,-3.0898,-3.0898,-3.0898,-3.0898,-3.0898,-3.0898,-3.0898,-3.1309,-3.1758,-3.2207,-3.293,-3.3418,-3.375,-3.4414,-3.4473,-3.4062,-3.3769,0.0,-3.3613,-3.3027,-3.2891,-3.2969,-3.2559,-3.2656,0.0,0.0,0.0,0.0,0.0,-3.3418,-3.3418,-3.3418,-3.3418,-3.3418,-3.3418,-3.3418,0.0,0.0,0.0,0.0,0.0,0.0,-3.6582,-3.7031,-3.7324,-3.7637,-3.8066,-3.8164,-3.8242,-3.8516,-4.0085,-4.1495,-4.1961,-4.3831,-4.5119,-4.4908,-4.5673,-4.6225,-4.605,-4.5372,-4.4995,-4.5171,-4.502,-4.5095,-4.5472,-4.5673,-4.5698,-4.5497,-4.4794,-4.4568,-4.492,-4.4392,-4.4644,-4.5773,-4.5773,-4.5773,-4.5773,-4.5773,-4.5773,-4.5773,-4.5773,-4.5974,-4.6301,-4.6301,-4.6301,-4.6301,-4.6301,-4.6301,-4.6301,-4.6301,-4.6753,-4.7456,-4.7782,-4.841,-4.9113,0.0,0.0,0.0,0.0,0.0,-3.1211,-3.0937,-3.0898,-3.0898,-3.0898,0.0,0.0,0.0,0.0,-3.0898,-3.0898,-3.0898,-3.0898,-3.0898,-3.0898,-3.0898,-3.0898,-3.0898,-3.0898,-3.0898,-3.0898,-3.0898,-3.0898,-3.1172,-3.1445,-3.1758,-3.2324,-3.2812,-3.3242,-3.3809,-3.4062,0.0,0.0,0.0,-3.3594,-3.3027,-3.2871,-3.2969,0.0,0.0,0.0,0.0,0.0,0.0,0.0,-3.3418,-3.3418,-3.3418,-3.3418,-3.3418,-3.3418,-3.3418,-3.3496,-3.3769,0.0,0.0,0.0,0.0,-3.5723,-3.6328,-3.666,-3.6992,-3.7422,-3.7734,-3.8008,-3.8301,-3.9309,-4.0041,-3.9971,-4.1705,-4.3272,-4.36,-4.4767,-4.5597,-4.593,-4.5196,-4.4694,-4.4895,-4.4568,-4.4518,-4.4895,-4.5095,-4.5121,-4.492,-4.4217,-4.389,-4.4066,-4.4066,-4.4342,-4.492,-4.5095,-4.5196,-4.5196,-4.5196,-4.5296,-4.5497,-4.5497,-4.5799,-4.6301,-4.6301,-4.6301,-4.6301,-4.6301,-4.6301,-4.6301,-4.6301,-4.6753,-4.7431,-4.7782,-4.8385,-4.9113,0.0,0.0,-2.892,-3.0528,-3.0879,-3.0898,-3.0898,-3.0898,-3.0898,-3.0898,0.0,0.0,0.0,0.0,0.0,-3.0898,-3.0898,-3.0898,-3.0898,-3.0898,-3.0898,-3.0898,-3.0898,-3.0898,-3.0898,-3.0898,-3.0898,-3.0898,-3.0898,-3.1309,-3.2129,-3.2129,-3.2793,-3.3965,-3.3144,-3.3242,-3.4043,0.0,-3.4414,-3.4004,0.0,-3.3027,-3.3418,0.0,0.0,0.0,-3.4043,-3.4043,0.0,-3.3555,-3.3437,-3.3437,-3.3437,-3.3437,-3.3418,-3.3418,-3.3418,-3.3418,0.0,0.0,0.0,0.0,0.0,-3.4883,-3.5742,-3.5957,-3.6094,-3.6562,-3.7305,-3.7871,-3.791,-3.7891,-3.8303,-3.9633,-3.9448,-4.0277,-4.3153,-4.3606,-4.4181,-4.531,-4.4995,-4.4418,-4.389,-4.3815,-4.3815,-4.3815,-4.4292,-4.4367,-4.384,-4.379,-4.3539,-4.2986,-4.4016,-4.4317,-4.3815,-4.4342,-4.4593,-4.4593,-4.4593,-4.4895,-4.5472,-4.5472,-4.5773,-4.6301,-4.6301,-4.6301,-4.6301,-4.6301,-4.6301,-4.6301,-4.6301,-4.6954,-4.7883,-4.7908,-4.8611,-4.9565,0.0,-2.892,-3.002,-2.9157,-3.0138,-3.0898,-3.0898,-3.0898,-3.0898,0.0,0.0,0.0,-3.0898,-3.0898,-3.0898,-3.0898,-3.0898,-3.0898,-3.0898,-3.0898,-3.0898,-3.0898,-3.0898,-3.0898,-3.0898,-3.0898,-3.0898,-3.0898,-3.0898,-3.1016,-3.125,-3.125,-3.1601,-3.2226,-3.2305,-3.248,-3.2695,-3.2812,0.0,-3.3965,-3.2812,-3.2773,0.0,0.0,0.0,0.0,0.0,-3.334,-3.3574,0.0,-3.3633,-3.3887,-3.3887,-3.3672,-3.3418,-3.3418,-3.3418,-3.3418,-3.3418,0.0,0.0,0.0,0.0,0.0,-3.4082,-3.4394,-3.4922,-3.5976,-3.6387,-3.6738,-3.7363,-3.7226,-3.7112,-3.753,-3.8446,-3.9368,-3.9953,-4.2178,-4.3807,-4.4181,-4.4462,-4.4719,-4.4995,-4.4292,-4.3966,-4.4367,-4.4166,-4.3966,-4.3815,-4.3413,-4.3137,-4.2986,-4.3263,-4.3564,-4.379,-4.394,-4.4041,-4.4041,-4.4041,-4.4317,-4.4869,-4.4869,-4.5397,-4.6301,-4.6301,-4.6301,-4.6301,-4.6301,-4.6301,-4.6301,-4.6301,-4.6728,-4.738,-4.7782,-4.836,-4.9063,-2.5984,-2.7572,-2.8801,-2.8426,-2.9785,-3.0898,-3.0898,-3.0898,-3.0898,0.0,0.0,0.0,-3.0898,-3.0898,-3.0898,-3.0898,-3.0898,-3.0898,-3.0898,-3.0898,-3.0898,-3.0898,-3.0898,-3.0898,-3.0898,-3.0898,-3.0898,-3.0898,-3.0898,-3.0898,-3.0898,-3.0898,-3.1113,-3.1523,-3.1601,-3.1836,-3.2148,-3.1777,0.0,0.0,-3.291,0.0,0.0,-3.3086,-3.3105,0.0,0.0,0.0,-3.3906,-3.3535,-3.3711,0.0,0.0,-3.375,-3.3652,-3.3476,-3.3418,-3.3418,-3.3418,-3.3418,-3.3398,-3.334,0.0,0.0,-3.3379,-3.3613,-3.4023,-3.4785,-3.5371,-3.5918,-3.6406,-3.6309,-3.6191,-3.6367,-3.7029,-3.7924,-3.8486,-4.0278,-4.2051,-4.3458,-4.3869,-4.4363,-4.5447,-4.4468,-4.394,-4.4242,-4.3765,-4.3463,-4.3463,-4.3162,-4.2986,-4.2986,-4.2986,-4.3137,-4.3463,-4.3463,-4.3463,-4.3463,-4.3463,-4.3865,-4.4618,-4.4618,-4.5246,-4.6301,-4.6301,-4.6301,-4.6301,-4.6301,-4.6301,-4.6326,-4.6577,-4.6979,-4.7531,-4.8058,-4.8636,-4.9163,0.0,-2.5863,-2.6712,-2.7931,-2.9648,-3.0898,-3.0898,-3.0898,-3.0898,0.0,-3.0898,-3.0898,-3.0898,-3.0898,-3.0898,-3.0898,-3.0898,-3.0898,-3.0898,-3.0898,-3.0898,-3.0898,-3.0898,-3.0898,-3.0898,-3.0898,-3.0898,-3.0898,-3.0898,-3.0898,-3.0898,-3.0898,-3.1094,-3.1426,-3.1055,-3.1309,-3.1992,-3.1269,-3.1482,-3.2428,-3.2922,-3.332,0.0,0.0,-3.3965,-3.4004,-3.4004,-3.4238,-3.4453,-3.373,-3.3711,0.0,0.0,-3.373,-3.3926,-3.3535,-3.3418,-3.3418,-3.3418,-3.3418,-3.3496,-3.3848,-3.3398,0.0,-3.3223,-3.3359,-3.3418,-3.3418,-3.4394,-3.5254,-3.5312,-3.5312,-3.543,-3.582,-3.5605,-3.6043,-3.8026,-3.8465,-3.9758,-4.2832,-4.3009,-4.3481,-4.5191,-4.4377,-4.3815,-4.389,-4.3313,-4.2986,-4.2986,-4.2986,-4.2986,-4.2986,-4.2986,-4.2986,-4.2986,-4.2986,-4.2986,-4.2986,-4.2986,-4.3564,-4.4618,-4.4618,-4.5246,-4.6301,-4.6301,-4.6301,-4.6301,-4.6301,-4.6301,-4.6376,-4.6928,-4.7456,-4.7983,-4.856,-4.9113,-4.959,-2.2215,-2.5253,-2.7572,-2.6591,-2.892,-3.0898,-3.0898,-3.0898,-3.0898,-3.0898,-3.0898,-3.0898,-3.0898,-3.0898,-3.0898,-3.0898,-3.0898,-3.0898,-3.0898,-3.0898,-3.0898,-3.0898,-3.0898,-3.0898,-3.0898,-3.0898,-3.0898,-3.0898,-3.0898,-3.0898,-3.0898,-3.0898,-3.0937,-3.1016,-3.0918,-3.0976,-3.1152,-3.1328,-3.0787,-2.9886,-3.1353,0.0,-3.3887,-3.3281,-3.3262,-3.3555,-3.3555,-3.3594,-3.3711,-3.3887,-3.3769,-3.3594,-3.3867,-3.3769,-3.3535,-3.3437,-3.3418,-3.3418,-3.3418,-3.3418,-3.3359,-3.3105,-3.3164,0.0,-3.2559,-3.293,-3.3418,-3.3418,-3.3906,-3.4434,-3.4766,-3.4824,-3.4863,-3.4941,-3.5195,-3.5661,-3.6344,-3.7709,-3.8861,-3.9497,-4.1491,-4.3235,-4.3911,-4.385,-4.3991,-4.4418,-4.3539,-4.2986,-4.2986,-4.2986,-4.2986,-4.2986,-4.2986,-4.2986,-4.2986,-4.2986,-4.2986,-4.2986,-4.2986,-4.3564,-4.4618,-4.4618,-4.5246,-4.6301,-4.6301,-4.6301,-4.6301,-4.6301,-4.6301,-4.6376,-4.6928,-4.7456,-4.7983,-4.856,-4.9113,-4.959,-2.3668,-2.6227,-2.817,-2.7314,-2.9294,-3.0898,-3.0898,-3.0898,-3.0898,-3.0898,-3.0898,-3.0898,-3.0898,-3.0898,-3.0898,-3.0898,-3.0898,-3.0898,-3.0898,-3.0898,-3.0898,-3.0898,-3.0898,-3.0898,-3.0898,-3.0898,-3.0898,-3.0898,-3.0898,-3.0898,-3.0898,-3.0898,-3.0392,-2.9648,-3.0509,-3.0392,-2.9667,-3.0741,-3.0834,-3.0408,-3.1378,0.0,-3.2308,-3.2467,-3.2734,-3.3086,-3.2871,-3.293,-3.3203,-3.3848,-3.4062,-3.4023,-3.3809,-3.3887,-3.3965,-3.3555,-3.3418,-3.3418,-3.3418,-3.3418,-3.3418,-3.3437,-3.3262,0.0,0.0,-3.2793,-3.2851,-3.3066,-3.3125,-3.3262,-3.3672,-3.375,-3.3809,-3.4023,-3.4434,-3.4883,-3.5312,-3.6509,-3.7575,-3.8465,-3.993,-4.1433,-4.308,-4.3119,-4.3234,-4.3701,-4.2559,-4.215,-4.2986,-4.2986,-4.2986,-4.2986,-4.2986,-4.2986,-4.2986,-4.2986,-4.2986,-4.2986,-4.2986,-4.3564,-4.4618,-4.4618,-4.5095,-4.5899,-4.5899,-4.5899,-4.5899,-4.5899,-4.6075,-4.6401,-4.7205,-4.7682,-4.8008,-4.8862,-4.9364,-4.959,-2.6106,-2.7314,-2.8426,-2.8426,-2.9785,-3.0898,-3.0898,-3.0898,-3.0898,-3.0898,-3.0898,-3.0898,-3.0898,-3.0898,-3.0918,-3.0996,-3.0937,-3.0918,-3.0996,-3.0937,-3.0898,-3.0898,-3.0898,-3.0898,-3.0898,-3.0898,-3.0898,-3.0898,-3.0898,-3.0898,-3.0898,-3.0898,-3.0157,0.0,-3.002,-2.9903,0.0,0.0,0.0,-3.0553,0.0,-3.1191,-3.0821,-3.17,-3.2305,-3.2637,-3.2285,-3.2441,-3.291,-3.3594,-3.4101,-3.4336,-3.3633,-3.3906,-3.4316,-3.3633,-3.3418,-3.3418,-3.3418,-3.3476,-3.3613,-3.3887,-3.3555,-3.3184,0.0,0.0,0.0,-3.2754,-3.2598,-3.2519,-3.2851,-3.2851,-3.293,-3.3359,-3.3711,-3.4101,-3.4512,-3.5254,-3.6321,-3.7831,-3.8256,-3.9239,-4.1715,-4.1626,-4.1614,-4.2086,-4.1191,-4.1076,-4.2012,-4.2625,-4.2849,-4.2513,-4.2849,-4.2986,-4.2986,-4.2986,-4.2986,-4.2986,-4.2986,-4.3564,-4.4618,-4.4518,-4.4844,-4.5497,-4.5497,-4.5497,-4.5497,-4.5598,-4.5899,-4.6426,-4.7481,-4.7908,-4.8033,-4.9188,-4.959,-4.959,-2.6591,-2.7314,-2.8426,-2.8426,-2.9785,-3.0898,-3.0898,-3.0898,-3.0898,-3.0898,-3.0898,-3.0898,-3.0898,0.0,0.0,0.0,0.0,-3.1055,-3.1426,-3.1094,-3.0898,-3.0898,-3.0898,-3.0898,-3.0898,-3.0898,-3.0898,-3.0898,-3.0898,-3.0898,-3.0898,-3.0898,-3.0762,0.0,-2.9275,0.0,0.0,0.0,-2.7829,0.0,-2.8295,-3.0129,-3.1944,-3.1638,-3.1855,-3.2226,-3.2187,-3.2441,-3.2812,-3.291,-3.3223,-3.3555,-3.3457,-3.3496,-3.3555,-3.3457,-3.3418,-3.3418,-3.3418,-3.3711,-3.3926,-3.3574,-3.3984,-3.4199,-3.3105,0.0,-3.3652,-3.2949,0.0,-3.3301,-3.334,0.0,0.0,-3.3359,-3.3457,-3.3652,-3.4082,-3.4551,-3.5132,-3.5677,-3.6746,-3.7741,-3.838,-3.8971,-3.9168,-3.8744,-3.9873,-4.0105,-3.8817,-4.1419,-4.2375,-4.0937,-4.2263,-4.2986,-4.2986,-4.2986,-4.2986,-4.2986,-4.2986,-4.3564,-4.4593,-4.4116,-4.4468,-4.5497,-4.5497,-4.5497,-4.5522,-4.6024,-4.625,-4.6426,-4.7481,-4.7908,-4.8033,-4.9188,-4.959,-4.959,-2.9157,-2.9412,-2.9903,-2.9903,-3.0392,-3.0898,-3.0898,-3.0898,-3.0898,-3.0898,-3.0898,-3.0898,0.0,0.0,0.0,0.0,0.0,-3.0957,0.0,0.0,-3.0898,-3.0898,-3.0898,-3.0898,-3.0898,-3.0898,-3.0898,-3.0898,-3.0898,-3.0898,-3.0898,-3.0898,-3.0392,0.0,-2.8664,0.0,-2.8068,0.0,-2.7452,0.0,0.0,-2.8487,-2.8653,-2.9471,-3.0401,-3.1465,-3.1699,-3.1894,-3.209,-3.2344,-3.2871,-3.334,-3.2851,-3.3203,-3.3711,-3.3203,-3.3223,-3.3418,-3.3418,-3.3555,-3.3711,-3.3789,-3.3887,-3.3887,-3.3594,-3.3437,-3.3301,-3.3184,0.0,0.0,0.0,0.0,0.0,0.0,-3.3262,-3.3496,-3.3672,-3.3633,-3.3945,-3.4883,-3.544,-3.6167,-3.7001,-3.7121,-3.7461,-3.8127,-3.7963,-3.7963,-3.8223,-3.9522,-4.0361,-4.0592,-4.1305,-4.2037,-4.2986,-4.2986,-4.2986,-4.2986,-4.2986,-4.3388,-4.4141,-4.3915,-4.4066,-4.4518,-4.4518,-4.4694,-4.4995,-4.5246,-4.5723,-4.6426,-4.7481,-4.7908,-4.8033,-4.9188,-4.959,-4.959,-3.0898,-3.0898,-3.0898,-3.0898,-3.0898,-3.0898,-3.0898,-3.0898,-3.0898,-3.0898,0.0,0.0,-3.0898,-3.0996,0.0,0.0,-3.1133,-3.1113,0.0,0.0,-3.0898,-3.0898,0.0,0.0,0.0,-3.0898,-3.0898,-3.0898,-3.0898,-3.0898,-3.0898,-3.0898,-3.0274,-2.9039,0.0,-2.7811,-2.6712,0.0,-2.6832,-2.5497,-2.7073,-2.7073,-2.6227,-2.7811,-2.9412,-3.0937,-3.123,-3.1426,-3.1562,-3.1875,-3.248,-3.2969,-3.2363,-3.2793,-3.3437,-3.2812,-3.293,-3.3242,-3.3242,-3.3418,-3.3652,-3.3848,-3.375,-3.3652,-3.3848,-3.3516,-3.3203,-3.3379,-3.3027,0.0,0.0,0.0,-3.2832,-3.2949,0.0,-3.3281,-3.3398,-3.3066,-3.3223,-3.4394,-3.4629,-3.5072,-3.5886,-3.556,-3.5706,-3.6803,-3.6046,-3.5982,-3.6708,-3.7546,-3.8444,-3.9265,-4.0129,-4.1191,-4.2375,-4.2737,-4.2986,-4.2986,-4.2986,-4.3263,-4.379,-4.3639,-4.3664,-4.3815,-4.3966,-4.4242,-4.4644,-4.497,-4.5573,-4.6401,-4.733,-4.7782,-4.8033,-4.9188,-4.959,-4.959,-3.0898,-3.0898,0.0,-3.0898,-3.0898,-3.0898,-3.0898,-3.0898,0.0,0.0,0.0,0.0,0.0,0.0,0.0,0.0,0.0,-3.168,-3.209,0.0,-3.0898,0.0,0.0,-3.0898,0.0,-3.0898,-3.0898,-3.0898,-3.0898,-3.0898,-3.0898,-3.0898,-3.0879,-3.0762,-2.9157,-2.8408,-2.817,-2.6712,-2.5146,-2.3822,-2.5375,-2.6106,-2.6227,-2.7811,-2.9412,-3.0898,-3.0898,-3.1172,-3.1523,-3.1543,-3.1836,-3.2207,-3.2168,-3.2207,-3.2226,-3.2207,-3.248,-3.2812,-3.2812,-3.3418,-3.3945,-3.3535,-3.375,-3.3945,-3.3535,-3.375,-3.3906,-3.3496,-3.373,-3.3887,-3.3476,-3.3066,-3.293,-3.334,-3.3066,0.0,0.0,-3.3066,-3.3125,-3.3984,-3.4453,-3.4687,-3.4799,-3.4426,-3.3995,-3.3564,-3.4575,-3.4572,-3.304,-3.5875,-3.714,-3.603,-3.903,-4.0592,-4.0707,-4.2263,-4.2986,-4.2986,-4.2986,-4.3263,-4.379,-4.3237,-4.3288,-4.384,-4.4367,-4.4593,-4.4719,-4.5799,-4.6276,-4.6376,-4.6928,-4.7456,-4.8033,-4.9188,-4.959,-4.959,-3.0898,-3.0898,0.0,0.0,0.0,0.0,0.0,-3.0898,0.0,0.0,0.0,0.0,0.0,-3.2285,-3.2305,0.0,0.0,-3.1894,-3.1758,-3.1465,0.0,0.0,0.0,-3.0898,0.0,0.0,-3.0898,-3.0898,-3.0898,-3.0898,0.0,0.0,-3.0898,-3.0879,0.0,-2.7811,0.0,0.0,0.0,0.0,-2.2577,-2.3569,-2.4844,-2.6327,-2.7811,-2.9394,-3.0528,-3.0976,-3.1094,-3.1094,-3.1387,-3.1699,-3.1406,-3.1719,-3.2109,-3.1816,-3.2031,-3.2441,-3.2715,-3.3008,-3.3262,-3.3379,-3.3535,-3.3613,-3.3457,-3.375,-3.3945,-3.3516,-3.3769,-3.3945,-3.3496,-3.3301,-3.3262,-3.3398,-3.3301,-3.3164,0.0,-3.2891,-3.291,-3.3184,-3.3594,-3.3848,-3.3848,-3.373,-3.3457,-3.3047,-3.3089,-3.2953,-3.2383,-3.37,-3.4755,-3.5365,-3.6729,-3.8439,-4.0592,-4.1191,-4.1899,-4.2986,-4.2986,-4.3087,-4.3237,-4.3062,-4.3087,-4.3288,-4.384,-4.4292,-4.4694,-4.5447,-4.5974,-4.6376,-4.6928,-4.7456,-4.8008,-4.8761,-4.9289,-4.959,-3.0898,-3.0898,0.0,0.0,0.0,0.0,0.0,0.0,0.0,0.0,-3.207,0.0,-3.2539,0.0,-3.2695,0.0,-3.2383,-3.2207,-3.1777,-3.1601,0.0,-3.0918,-3.0898,0.0,0.0,0.0,-3.0898,-3.0898,-3.0898,-3.0898,-3.0898,-3.0898,-3.0898,-3.0879,0.0,-2.8051,-2.5984,-2.5984,-2.4163,0.0,-2.1109,-2.2216,-2.3983,-2.4857,-2.6554,-2.8745,-3.0332,-3.0898,-3.0898,-3.0898,-3.1074,-3.125,-3.0976,-3.1269,-3.166,-3.1387,-3.1601,-3.1992,-3.2266,-3.2461,-3.2676,-3.3086,-3.3203,-3.3242,-3.3379,-3.375,-3.3945,-3.3516,-3.3769,-3.3887,-3.3301,-3.332,-3.3379,-3.3223,-3.332,-3.3223,0.0,-3.2441,-3.2402,-3.2559,-3.3203,-3.3652,-3.3652,-3.3652,-3.3359,-3.2617,-3.2324,-3.2109,-3.1953,-3.2344,-3.3109,-3.4308,-3.5331,-3.676,-3.8912,-3.9405,-4.0245,-4.1305,-4.1899,-4.215,-4.215,-4.2737,-4.3087,-4.3288,-4.384,-4.4418,-4.497,-4.5547,-4.5999,-4.6351,-4.6702,-4.728,-4.7983,-4.856,-4.9113,-4.959,-3.0898,-3.0898,0.0,0.0,-3.0898,0.0,0.0,0.0,-3.1543,0.0,-3.1953,-3.2246,-3.2266,-3.2617,-3.2851,-3.2832,-3.2832,-3.2656,-3.2226,-3.1816,0.0,0.0,-3.0918,-3.0918,-3.0898,0.0,0.0,-3.0898,-3.0898,-3.0898,-3.0898,-3.0898,0.0,0.0,-3.0898,0.0,-2.5984,-2.5984,-2.4163,-2.1109,-2.1235,-2.2104,-2.3479,-2.3698,-2.5863,-2.8967,-3.031,-3.0879,-3.0898,-3.0898,-3.0898,-3.0898,-3.0898,-3.0898,-3.0898,-3.0898,-3.1172,-3.1484,-3.1504,-3.1816,-3.2226,-3.2656,-3.2773,-3.2871,-3.3301,-3.373,-3.3926,-3.3496,-3.3769,-3.3809,-3.2949,-3.3144,-3.3281,-3.2832,-3.3086,-3.3047,-3.2246,-3.1777,-3.168,-3.2109,-3.3242,-3.4004,-3.4043,-3.4023,-3.3496,-3.2266,-3.2129,-3.1934,-3.1504,-3.1914,-3.2344,-3.2754,-3.4615,-3.5683,-3.5806,-3.7385,-3.8104,-3.8223,-3.9756,-4.0476,-4.0592,-4.215,-4.3288,-4.384,-4.4392,-4.4945,-4.5522,-4.6075,-4.6301,-4.6301,-4.6301,-4.6979,-4.7983,-4.8586,-4.9138,-4.959,-3.0898,-3.0898,-3.0898,0.0,-3.0898,-3.0898,0.0,0.0,0.0,0.0,-3.2832,-3.3223,-3.3555,-3.3672,-3.3613,-3.3301,-3.3262,0.0,0.0,0.0,0.0,-3.1387,-3.1367,-3.1211,-3.0898,-3.0898,-3.0898,-3.0898,-3.0898,-3.0898,-3.0898,-3.0898,-3.0898,-3.0898,0.0,-2.9039,-2.5984,-2.5984,-2.4163,-2.1235,-2.2466,-2.2609,-2.2285,-2.4502,-2.6076,-2.7221,-2.8571,-2.9903,-3.0898,-3.0898,-3.0898,-3.0898,-3.0898,-3.0898,-3.0898,-3.0898,-3.0957,-3.1113,-3.1426,-3.1601,-3.1797,-3.2226,-3.2324,-3.2441,-3.2851,-3.3281,-3.3555,-3.3437,-3.3769,-3.3809,-3.2949,-3.3144,-3.3184,-3.2441,-3.2148,-3.1934,-3.1719,-3.1582,-3.168,-3.2109,-3.2461,-3.291,-3.3535,-3.3301,-3.2851,-3.2207,-3.1582,-3.1172,-3.1055,-3.1758,-3.2226,-3.2324,-3.3401,-3.4612,-3.5806,-3.6173,-3.7023,-3.8223,-3.858,-3.9405,-4.0592,-4.1076,-4.2193,-4.384,-4.4392,-4.4945,-4.5522,-4.6075,-4.6301,-4.6301,-4.6301,-4.6979,-4.8033,-4.9012,-4.9464,-4.959,-3.0898,-3.0898,0.0,-3.0898,0.0,0.0,-3.1034,-3.1367,0.0,-3.2441,-3.2891,0.0,-3.3476,-3.3672,-3.3691,-3.3437,-3.3418,0.0,-3.2832,0.0,0.0,-3.1562,-3.1523,-3.1328,-3.0898,-3.0898,0.0,-3.0898,-3.0898,-3.0898,-3.0898,-3.0898,-3.0898,-3.0898,0.0,-2.9412,-2.6953,-2.5497,-2.3435,-2.1235,-2.209,-2.2076,0.0,-2.326,-2.4888,-2.6371,-2.7021,-2.892,-3.0898,-3.0898,-3.0898,-3.0898,-3.0898,-3.0898,-3.0898,-3.0898,-3.0898,-3.0937,-3.1191,-3.125,-3.1348,-3.1777,-3.1875,-3.1992,-3.2422,-3.2851,-3.3144,-3.3144,-3.3496,-3.3594,-3.291,-3.3144,-3.3262,-3.2793,-3.2363,-3.207,-3.207,-3.1914,-3.1953,-3.2383,-3.2441,-3.2637,-3.3105,-3.2773,-3.2266,-3.166,-3.1504,-3.1289,-3.0918,-3.1875,-3.2363,-3.2168,-3.3164,-3.41,-3.4736,-3.4919,-3.5418,-3.6072,-3.6781,-3.7604,-3.8557,-3.94,-4.0622,-4.2112,-4.326,-4.4179,-4.4839,-4.591,-4.6301,-4.6326,-4.6577,-4.7179,-4.8008,-4.8912,-4.9389,-4.959,-3.0898,-3.0898,0.0,0.0,0.0,0.0,0.0,-3.1479,0.0,-3.2363,0.0,-3.2969,-3.2969,-3.3242,-3.3418,-3.3418,-3.3418,-3.3242,-3.2832,-3.2793,-3.2402,-3.1562,-3.1523,-3.1328,-3.0898,-3.0898,-3.0898,-3.0898,-3.0898,-3.0898,-3.0898,-3.0898,-3.0898,0.0,0.0,0.0,-2.7931,-2.4917,-2.2591,-2.1109,-2.1348,-2.1362,-2.1109,-2.1348,-2.3186,-2.5741,-2.5984,-2.8068,-3.0898,-3.0898,-3.0898,-3.0898,-3.0898,-3.0898,-3.0898,-3.0898,-3.0898,-3.0898,-3.0898,-3.0898,-3.0976,-3.1348,-3.1445,-3.1543,-3.1992,-3.2422,-3.2734,-3.2793,-3.3125,-3.3301,-3.2871,-3.3047,-3.3262,-3.3262,-3.2949,-3.2715,-3.2715,-3.2402,-3.2324,-3.2734,-3.2734,0.0,-3.2793,-3.2461,-3.1894,-3.1035,-3.166,-3.1738,-3.0937,-3.1992,-3.248,-3.2187,-3.3301,-3.3769,-3.3516,-3.3828,-3.3828,-3.3496,-3.4881,-3.556,-3.5806,-3.7767,-3.8987,-3.9848,-4.1707,-4.2985,-4.3855,-4.5281,-4.6059,-4.6376,-4.7004,-4.7506,-4.7983,-4.8636,-4.9188,-4.959,-3.0898,0.0,0.0,0.0,0.0,-3.1783,-3.2519,-3.169,-3.1668,-3.3544,-3.3809,-3.3848,-3.3848,-3.3594,-3.3418,-3.3418,-3.3418,0.0,-3.2832,-3.2793,-3.2402,-3.1562,-3.1523,-3.1328,-3.0898,-3.0898,-3.0898,-3.0898,-3.0898,-3.0898,-3.0898,-3.0898,-3.0898,-3.0898,0.0,-2.9294,-2.6349,-2.4425,-2.2591,-2.1235,-2.2591,-2.2341,-2.1235,-2.2591,-2.3574,-2.4178,-2.5497,-2.8068,-3.0898,-3.0898,-3.0898,-3.0898,-3.0898,-3.0898,-3.0898,-3.0898,-3.0898,-3.0898,-3.0898,-3.0898,-3.0918,-3.0976,-3.0996,-3.1113,-3.1543,-3.1973,-3.2383,-3.2715,-3.3125,-3.3301,-3.2871,-3.2578,-3.2383,-3.2383,-3.2324,-3.2285,-3.2285,-3.2207,-3.2324,-3.2734,-3.248,-3.2422,-3.2754,-3.2734,-3.2324,-3.1465,-3.1543,-3.1406,-3.0918,-3.1426,-3.1875,-3.2148,-3.2715,-3.332,-3.3945,-3.3672,-3.3672,-3.3965,-3.3828,-3.4487,-3.5827,-3.6558,-3.7898,-3.9725,-4.0468,-4.1844,-4.3731,-4.3979,-4.5013,-4.6401,-4.738,-4.7832,-4.8033,-4.9063,-4.9515,-4.959,0.0,0.0,0.0,0.0,0.0,-3.1418,-3.3194,-3.2169,-3.1746,-3.3475,-3.3555,-3.3418,-3.3418,-3.3418,-3.3418,-3.3418,-3.3418,-3.3242,-3.2832,-3.2793,-3.2402,-3.1562,-3.1523,-3.1328,-3.0898,-3.0898,-3.0898,-3.0898,-3.0898,-3.0898,-3.0898,-3.0898,-3.0898,-3.0898,-3.0898,-2.9039,-2.5984,-2.513,-2.3435,-2.1109,-2.1978,-2.2341,-2.2341,-2.2341,-2.3311,-2.4901,-2.5741,-2.7572,-2.9766,-3.0645,-3.0898,-3.0898,-3.0898,-3.0898,-3.0898,-3.0898,-3.0898,-3.0898,-3.0898,-3.0898,-3.0898,-3.0898,-3.0898,-3.0937,-3.1152,-3.1523,-3.1953,-3.2383,-3.2812,-3.3105,-3.3125,-3.2949,-3.2812,-3.2812,-3.2812,-3.2812,-3.2812,-3.2812,-3.2812,-3.2793,-3.2617,-3.2402,-3.2148,-3.2344,-3.2207,-3.1562,-3.1523,-3.1328,-3.0918,-3.1504,-3.1953,-3.2168,-3.2793,-3.332,-3.373,-3.375,-3.375,-3.373,-3.3516,-3.3895,-3.4977,-3.5315,-3.6275,-3.7482,-3.883,-4.0059,-4.1181,-4.3262,-4.5327,-4.7179,-4.7707,-4.8083,-4.841,-4.8962,-4.9339,-4.959,0.0,-3.1016,0.0,0.0,-3.0936,-3.1202,-3.3642,-3.2803,-3.2413,-3.3591,-3.3379,-3.3066,-3.3066,-3.3281,-3.3379,-3.3301,-3.3281,-3.3066,-3.2559,-3.2519,-3.2187,-3.1426,-3.1387,-3.123,-3.0898,-3.0898,-3.0898,-3.0898,-3.0898,-3.0898,-3.0898,-3.0898,-3.0898,-3.0898,-3.0898,-2.9294,-2.647,-2.647,-2.4763,-2.209,-2.1727,-2.2591,-2.3931,-2.2215,-2.3186,-2.5619,-2.6227,-2.7073,-2.817,-3.0274,-3.0898,-3.0898,-3.0898,-3.0898,-3.0898,-3.0898,-3.0898,-3.0898,-3.0898,-3.0898,-3.0898,-3.0898,-3.0898,-3.0898,-3.0898,-3.1211,-3.1621,-3.1953,-3.2363,-3.2734,-3.2969,-3.3164,-3.3262,-3.3164,-3.3301,-3.3418,-3.3418,-3.3418,-3.3262,-3.2851,-3.2793,-3.25,-3.1719,-3.1875,-3.1894,-3.1543,-3.1523,-3.1367,-3.1035,-3.166,-3.207,-3.2168,-3.2891,-3.3379,-3.3555,-3.3809,-3.3809,-3.3555,-3.3555,-3.375,-3.4082,-3.4609,-3.5039,-3.5544,-3.7258,-3.8528,-3.9558,-4.3183,-4.5862,-4.7908,-4.8033,-4.836,-4.8786,-4.8912,-4.9213,-4.959,0.0,0.0,-3.1601,-3.2031,-3.263,-3.3087,-3.3457,-3.3681,-3.4206,-3.5117,-3.4473,-3.3945,-3.3945,-3.3633,-3.3262,-3.2891,-3.2851,-3.25,-3.1699,-3.1641,-3.1426,-3.0976,-3.0957,-3.0937,-3.0898,-3.0898,-3.0898,-3.0898,-3.0898,-3.0898,-3.0898,-3.0898,-3.0898,-3.0898,-3.0898,-2.9903,-2.817,-2.817,-2.7194,-2.5375,-2.3931,-2.4286,-2.5619,-2.3931,-2.3574,-2.4178,-2.7091,-2.7314,-2.6712,-2.9903,-3.0898,-3.0898,-3.0898,-3.0898,-3.0898,-3.0898,-3.0898,-3.0898,-3.0898,-3.0898,-3.0898,-3.0898,-3.0898,-3.0898,-3.0898,-3.1211,-3.1523,-3.1562,-3.1914,-3.2129,-3.1758,-3.2324,-3.2734,-3.2344,-3.293,-3.3418,-3.3418,-3.3418,-3.3262,-3.2851,-3.2793,-3.2617,-3.2148,-3.1777,-3.1562,-3.1523,-3.1523,-3.1504,-3.1465,-3.1543,-3.1758,-3.2148,-3.2617,-3.3223,-3.4004,-3.3652,-3.3652,-3.4004,-3.4004,-3.4023,-3.4101,-3.4941,-3.5351,-3.541,-3.5955,-3.8316,-4.1853,-4.3729,-4.5862,-4.7958,-4.8485,-4.8711,-4.8837,-4.9339,-4.9565,-4.959,-3.1875,-3.1914,-3.2051,-3.248,-3.2832,-3.3223,-3.373,-3.373,-3.3906,-3.4512,-3.4062,-3.3594,-3.334,-3.3379,-3.3144,-3.248,-3.2656,-3.2422,-3.1582,-3.1523,-3.1328,-3.0918,-3.0898,-3.0898,-3.0898,-3.0898,-3.0898,-3.0898,-3.0898,-3.0898,-3.0898,-3.0898,-3.0898,-3.0898,-3.0898,-3.002,-2.8426,-2.8426,-2.7452,-2.5984,-2.5253,-2.5984,-2.7314,-2.5619,-2.5619,-2.6608,-2.7931,-2.7931,-2.7811,-3.0157,-3.0898,-3.0898,-3.0898,-3.0898,-3.0898,-3.0898,-3.0898,-3.0898,-3.0898,-3.0898,-3.0898,-3.0898,-3.0898,-3.0898,-3.0898,-3.1016,-3.1211,-3.1465,-3.207,-3.2422,-3.1992,-3.2383,-3.2734,-3.2578,-3.2832,-3.3125,-3.3379,-3.3203,-3.2891,-3.248,-3.2187,-3.1855,-3.1445,-3.125,-3.1348,-3.1875,-3.1426,-3.1133,-3.1133,-3.1133,-3.1465,-3.2148,-3.2344,-3.2832,-3.3672,-3.3516,-3.3633,-3.4082,-3.4082,-3.4355,-3.4883,-3.5234,-3.5527,-3.5801,-3.623,-3.8112,-4.106,-4.308,-4.5207,-4.7426,-4.8754,-4.9264,-4.9289,-4.9515,-4.959,-4.959,-3.2324,-3.2344,-3.248,-3.291,-3.2988,-3.3184,-3.3789,-3.3613,-3.3496,-3.3672,-3.3437,-3.3125,-3.2832,-3.3066,-3.2891,-3.2051,-3.2246,-3.2109,-3.1387,-3.1328,-3.1191,-3.0898,-3.0898,-3.0898,-3.0898,-3.0898,-3.0898,-3.0898,-3.0898,-3.0898,-3.0898,-3.0898,-3.0898,-3.0898,-3.0898,-3.0274,-2.9157,-2.9157,-2.8426,-2.7452,-2.6953,-2.7692,-2.892,-2.7331,-2.7434,-2.8426,-2.892,-2.8783,-2.8664,-3.0274,-3.0898,-3.0898,-3.0898,-3.0898,-3.0898,-3.0898,-3.0898,-3.0898,-3.0898,-3.0898,-3.0898,-3.0898,-3.0898,-3.0898,-3.0898,-3.0898,-3.0976,-3.1269,-3.1914,-3.2324,-3.2031,-3.2422,-3.2793,-3.2793,-3.2891,-3.3047,-3.3203,-3.2988,-3.2598,-3.2051,-3.1699,-3.1348,-3.0937,-3.0898,-3.1133,-3.1738,-3.123,-3.0996,-3.125,-3.1152,-3.1406,-3.2148,-3.2285,-3.2695,-3.3418,-3.3418,-3.3574,-3.3887,-3.4141,-3.459,-3.5195,-3.5469,-3.5742,-3.6035,-3.6484,-3.7984,-4.0298,-4.1978,-4.4323,-4.6931,-4.8191,-4.9177,-4.959,-4.959,-4.959,-4.959,-3.2695,-3.2793,-3.293,-3.334,-3.3418,-3.3418,-3.3437,-3.3418,-3.3281,-3.2871,-3.2812,-3.2793,-3.2793,-3.2793,-3.2461,-3.1601,-3.1523,-3.1348,-3.0918,-3.0898,-3.0898,-3.0898,-3.0898,-3.0898,-3.0898,-3.0898,-3.0898,-3.0898,-3.0898,-3.0898,-3.0898,-3.0898,-3.0898,-3.0898,-3.0898,-3.0898,-3.0879,-3.0879,-3.0898,-3.0645,-2.9039,-2.9394,-3.0645,-2.9039,-2.8426,-2.8664,-3.0274,-2.9785,-2.8664,-3.0274,-3.0898,-3.0898,-3.0898,-3.0898,-3.0898,-3.0898,-3.0898,-3.0898,-3.0898,-3.0898,-3.0898,-3.0898,-3.0898,-3.0898,-3.0898,-3.0898,-3.0898,-3.0898,-3.123,-3.1523,-3.1523,-3.2226,-3.2793,-3.2793,-3.3144,-3.3281,-3.2851,-3.2793,-3.248,-3.1621,-3.1523,-3.1348,-3.0937,-3.0898,-3.0898,-3.0898,-3.0898,-3.1269,-3.2109,-3.1738,-3.1719,-3.2148,-3.2578,-3.2988,-3.3418,-3.3418,-3.3418,-3.3437,-3.4277,-3.4707,-3.4746,-3.5605,-3.6016,-3.6035,-3.6484,-3.7984,-4.0161,-4.0604,-4.31,-4.6798,-4.6798,-4.7929,-4.959,-4.959,-4.959,-4.959,-3.3184,-3.3223,-3.3262,-3.3398,-3.3418,-3.332,-3.3047,-3.2988,-3.2851,-3.2422,-3.2363,-3.2246,-3.1953,-3.2187,-3.2031,-3.1172,-3.1348,-3.1348,-3.0918,-3.0898,-3.0898,-3.0898,-3.0898,-3.0898,-3.0898,-3.0898,-3.0898,-3.0898,-3.0898,-3.0898,-3.0898,-3.0898,-3.0898,-3.0898,-3.0898,-3.0898,-3.0898,-3.0898,-3.0898,-3.0879,-3.0274,-3.0392,-3.0898,-3.0274,-3.0138,-3.0157,-3.0762,-3.0528,-3.0157,-3.0762,-3.0898,-3.0898,-3.0898,-3.0898,-3.0898,-3.0898,-3.0898,-3.0898,-3.0898,-3.0898,-3.0898,-3.0898,-3.0898,-3.0898,-3.0898,-3.0898,-3.1055,-3.1641,-3.1875,-3.1953,-3.1953,-3.2422,-3.2793,-3.2793,-3.2676,-3.2617,-3.2773,-3.2285,-3.1816,-3.1543,-3.1269,-3.1035,-3.0898,-3.0898,-3.1016,-3.1289,-3.1055,-3.1016,-3.1289,-3.1426,-3.1719,-3.2148,-3.2578,-3.2988,-3.3418,-3.3418,-3.3711,-3.4297,-3.457,-3.5019,-3.5605,-3.5898,-3.6016,-3.6035,-3.6484,-3.7312,-3.8267,-4.0069,-4.1604,-4.3244,-4.5838,-4.7221,-4.7904,-4.9177,-4.959,-4.959,-3.3418,-3.3418,-3.3418,-3.3418,-3.3301,-3.3105,-3.2832,-3.2656,-3.2402,-3.1973,-3.1934,-3.1758,-3.1328,-3.1523,-3.1465,-3.0937,-3.1133,-3.1172,-3.0918,-3.0898,-3.0898,-3.0898,-3.0898,-3.0898,-3.0898,-3.0898,-3.0898,-3.0898,-3.0898,-3.0898,-3.0898,-3.0898,-3.0898,-3.0898,-3.0898,-3.0898,-3.0898,-3.0898,-3.0898,-3.0898,-3.0898,-3.0898,-3.0898,-3.0898,-3.0898,-3.0898,-3.0898,-3.0898,-3.0898,-3.0898,-3.0898,-3.0898,-3.0898,-3.0898,-3.0898,-3.0898,-3.0898,-3.0898,-3.0898,-3.0898,-3.0898,-3.0898,-3.0898,-3.0937,-3.1094,-3.1133,-3.1328,-3.2031,-3.2285,-3.2402,-3.2402,-3.2754,-3.3027,-3.3027,-3.2676,-3.2441,-3.2539,-3.1953,-3.1465,-3.1309,-3.1191,-3.1133,-3.1133,-3.1133,-3.123,-3.1504,-3.1133,-3.0957,-3.1113,-3.1367,-3.1719,-3.2148,-3.2578,-3.3086,-3.3652,-3.3672,-3.4004,-3.4707,-3.4883,-3.5332,-3.6016,-3.6016,-3.6016,-3.6035,-3.6484,-3.6914,-3.7465,-3.897,-4.0244,-4.1467,-4.3796,-4.5569,-4.6931,-4.806,-4.9023,-4.959,-3.3418,-3.3418,-3.3418,-3.3418,-3.3066,-3.2793,-3.2754,-3.2402,-3.1973,-3.1523,-3.1465,-3.1328,-3.0937,-3.0898,-3.0898,-3.0898,-3.0898,-3.0898,-3.0898,-3.0898,-3.0898,-3.0898,-3.0898,-3.0898,-3.0898,-3.0898,-3.0898,-3.0898,-3.0898,-3.0898,-3.0898,-3.0898,-3.0898,-3.0898,-3.0898,-3.0898,-3.0898,-3.0898,-3.0898,-3.0898,-3.0898,-3.0898,-3.0898,-3.0898,-3.0898,-3.0898,-3.0898,-3.0898,-3.0898,-3.0898,-3.0898,-3.0898,-3.0898,-3.0898,-3.0898,-3.0898,-3.0898,-3.0898,-3.0898,-3.0898,-3.0898,-3.0918,-3.0937,-3.1055,-3.1504,-3.1562,-3.166,-3.2148,-3.2539,-3.2812,-3.2832,-3.3164,-3.3418,-3.3379,-3.3027,-3.2598,-3.2187,-3.1758,-3.1328,-3.0937,-3.1269,-3.1523,-3.1523,-3.1523,-3.1523,-3.1523,-3.1133,-3.1055,-3.1445,-3.1523,-3.1758,-3.2207,-3.2617,-3.3223,-3.4023,-3.4062,-3.4297,-3.4746,-3.5215,-3.5644,-3.6016,-3.6016,-3.6016,-3.6035,-3.6445,-3.6875,-3.7324,-3.7715,-3.9109,-4.1205,-4.1184,-4.352,-4.6665,-4.6798,-4.806,-4.959,-3.3418,-3.3418,-3.3418,-3.3418,-3.3066,-3.2695,-3.2363,-3.1953,-3.1523,-3.1094,-3.1035,-3.0996,-3.0898,-3.0898,-3.0898,-3.0898,-3.0898,-3.0898,-3.0898,-3.0898,-3.0898,-3.0898,-3.0898,-3.0898,-3.0898,-3.0898,-3.0898,-3.0898,-3.0898,-3.0898,-3.0898,-3.0898,-3.0898,-3.0898,-3.0898,-3.0898,-3.0898,-3.0898,-3.0898,-3.0898,-3.0898,-3.0898,-3.0898,-3.0898,-3.0898,-3.0898,-3.0898,-3.0898,-3.0898,-3.0898,-3.0898,-3.0898,-3.0898,-3.0898,-3.0898,-3.0898,-3.0898,-3.0898,-3.0898,-3.0898,-3.0976,-3.1289,-3.1367,-3.1562,-3.2324,-3.1992,-3.1816,-3.291,-3.2949,-3.2891,-3.3223,-3.3359,-3.332,-3.2988,-3.2598,-3.2168,-3.1738,-3.1309,-3.0996,-3.0898,-3.1269,-3.1523,-3.1523,-3.1523,-3.1523,-3.1523,-3.1133,-3.0937,-3.1035,-3.166,-3.2207,-3.2637,-3.3066,-3.3379,-3.3574,-3.3906,-3.4453,-3.5234,-3.5664,-3.5918,-3.6016,-3.6016,-3.6016,-3.6035,-3.6133,-3.6601,-3.7305,-3.7402,-3.8157,-3.9405,-4.0779,-4.2709,-4.4914,-4.6264,-4.806,-4.959,-3.3418,-3.3418,-3.3418,-3.3418,-3.291,-3.2422,-3.2207,-3.1641,-3.1152,-3.0918,-3.0898,-3.0898,-3.0898,-3.0898,-3.0898,-3.0898,-3.0898,-3.0898,-3.0898,-3.0898,-3.0898,-3.0898,-3.0898,-3.0898,-3.0898,-3.0898,-3.0898,-3.0898,-3.0898,-3.0898,-3.0898,-3.0898,-3.0898,-3.0898,-3.0898,-3.0898,-3.0898,-3.0898,-3.0898,-3.0898,-3.0898,-3.0898,-3.0898,-3.0898,-3.0898,-3.0898,-3.0898,-3.0898,-3.0898,-3.0898,-3.0898,-3.0898,-3.0898,-3.0898,-3.0898,-3.0898,-3.0898,-3.0898,-3.0898,-3.1035,-3.1289,-3.1699,-3.1816,-3.1992,-3.2637,-3.2441,-3.2344,-3.3242,-3.3242,-3.3144,-3.3379,-3.3418,-3.3281,-3.2871,-3.2441,-3.2012,-3.1582,-3.1152,-3.0898,-3.0898,-3.1445,-3.1816,-3.1816,-3.1816,-3.1816,-3.1816,-3.125,-3.1055,-3.1445,-3.1914,-3.2266,-3.25,-3.3301,-3.3809,-3.4004,-3.4648,-3.5195,-3.5684,-3.5918,-3.6016,-3.6016,-3.6016,-3.6016,-3.6016,-3.6016,-3.6504,-3.7305,-3.7305,-3.7793,-3.872,-3.9674,-4.1205,-4.2988,-4.4914,-4.6689,-4.8477,-3.3418,-3.3379,-3.332,-3.332,-3.2637,-3.207,-3.207,-3.1406,-3.0898,-3.0898,-3.0898,-3.0898,-3.0898,-3.0898,-3.0898,-3.0898,-3.0898,-3.0898,-3.0898,-3.0898,-3.0898,-3.0898,-3.0898,-3.0898,-3.0898,-3.0898,-3.0898,-3.0898,-3.0898,-3.0898,-3.0898,-3.0898,-3.0898,-3.0898,-3.0898,-3.0898,-3.0898,-3.0898,-3.0898,-3.0898,-3.0898,-3.0898,-3.0898,-3.0898,-3.0898,-3.0898,-3.0898,-3.0898,-3.0898,-3.0898,-3.0898,-3.0898,-3.0898,-3.0898,-3.0898,-3.0898,-3.0898,-3.0898,-3.0976,-3.1348,-3.1797,-3.2168,-3.2266,-3.2383,-3.2793,-3.2832,-3.291,-3.334,-3.3418,-3.3418,-3.3418,-3.3379,-3.3203,-3.2851,-3.2383,-3.1953,-3.1562,-3.1152,-3.0898,-3.0898,-3.1641,-3.2148,-3.207,-3.2129,-3.2168,-3.2168,-3.1445,-3.1328,-3.2129,-3.2226,-3.2266,-3.2266,-3.3379,-3.418,-3.4609,-3.541,-3.5859,-3.5937,-3.5996,-3.6016,-3.6016,-3.6094,-3.6094,-3.6016,-3.6094,-3.6562,-3.7305,-3.7305,-3.7793,-3.8574,-3.8574,-3.9674,-4.1467,-4.3149,-4.505,-4.7088,-3.3418,-3.3144,-3.2891,-3.2891,-3.2187,-3.1621,-3.1621,-3.1211,-3.0898,-3.0898,-3.0898,-3.0898,-3.0898,-3.0898,-3.0898,-3.0898,-3.0898,-3.0898,-3.0898,-3.0898,-3.0898,-3.0898,-3.0898,-3.0898,-3.0898,-3.0898,-3.0898,-3.0898,-3.0898,-3.0898,-3.0898,-3.0898,-3.0898,-3.0898,-3.0898,-3.0898,-3.0898,-3.0898,-3.0898,-3.0898,-3.0898,-3.0898,-3.0898,-3.0898,-3.0898,-3.0898,-3.0898,-3.0898,-3.0898,-3.0898,-3.0898,-3.0898,-3.0898,-3.0898,-3.0898,-3.0898,-3.0898,-3.0976,-3.1328,-3.1992,-3.2617,-3.2676,-3.2695,-3.2812,-3.3223,-3.3047,-3.291,-3.334,-3.3418,-3.3418,-3.3418,-3.3125,-3.2871,-3.2812,-3.2129,-3.1601,-3.1523,-3.1152,-3.0898,-3.0898,-3.1641,-3.2031,-3.166,-3.1953,-3.2168,-3.2168,-3.1699,-3.1641,-3.2148,-3.25,-3.2695,-3.2695,-3.3242,-3.373,-3.416,-3.4668,-3.5098,-3.5488,-3.5859,-3.6016,-3.6035,-3.6406,-3.6367,-3.6035,-3.6406,-3.6836,-3.7305,-3.7305,-3.7793,-3.8574,-3.8574,-3.9674,-4.1326,-4.1608,-4.3934,-4.6798,-3.3418,-3.3262,-3.3066,-3.2832,-3.2285,-3.1797,-3.1562,-3.1152,-3.0898,-3.0898,-3.0898,-3.0898,-3.0898,-3.0898,-3.0898,-3.0898,-3.0898,-3.0898,-3.0898,-3.0898,-3.0898,-3.0898,-3.0898,-3.0898,-3.0898,-3.0898,-3.0898,-3.0898,-3.0898,-3.0898,-3.0898,-3.0898,-3.0898,-3.0898,-3.0898,-3.0898,-3.0898,-3.0898,-3.0898,-3.0898,-3.0898,-3.0898,-3.0898,-3.0898,-3.0898,-3.0898,-3.0898,-3.0898,-3.0898,-3.0898,-3.0898,-3.0898,-3.0898,-3.0898,-3.0898,-3.0898,-3.0898,-3.1035,-3.168,-3.2148,-3.2559,-3.3008,-3.3125,-3.3184,-3.3379,-3.3281,-3.3184,-3.3379,-3.3418,-3.3418,-3.3418,-3.3262,-3.3066,-3.2832,-3.2285,-3.1777,-3.1562,-3.1348,-3.123,-3.123,-3.1973,-3.2422,-3.2226,-3.2383,-3.25,-3.25,-3.2109,-3.2051,-3.248,-3.2695,-3.2891,-3.3125,-3.3555,-3.4101,-3.4785,-3.498,-3.5293,-3.5742,-3.5937,-3.6016,-3.6035,-3.623,-3.6211,-3.6035,-3.623,-3.6699,-3.7305,-3.7305,-3.7656,-3.8242,-3.8476,-3.8977,-3.9617,-4.0838,-4.243,-4.4071,-3.3418,-3.334,-3.3144,-3.2715,-3.2305,-3.1875,-3.1445,-3.1094,-3.0898,-3.0898,-3.0898,-3.0898,-3.0898,-3.0898,-3.0898,-3.0898,-3.0898,-3.0898,-3.0898,-3.0898,-3.0898,-3.0898,-3.0898,-3.0898,-3.0898,-3.0898,-3.0898,-3.0898,-3.0898,-3.0898,-3.0898,-3.0898,-3.0898,-3.0898,-3.0898,-3.0898,-3.0898,-3.0898,-3.0898,-3.0898,-3.0898,-3.0898,-3.0898,-3.0898,-3.0898,-3.0898,-3.0898,-3.0898,-3.0898,-3.0898,-3.0898,-3.0898,-3.0898,-3.0898,-3.0898,-3.0898,-3.0898,-3.1074,-3.1934,-3.2305,-3.2617,-3.3262,-3.3418,-3.3418,-3.3418,-3.3418,-3.3418,-3.3418,-3.3418,-3.3418,-3.3418,-3.334,-3.3164,-3.2851,-3.2363,-3.1894,-3.1562,-3.1523,-3.1523,-3.1523,-3.2266,-3.2754,-3.2656,-3.2734,-3.2793,-3.2793,-3.25,-3.25,-3.293,-3.2949,-3.3086,-3.3418,-3.375,-3.4297,-3.5078,-3.5176,-3.5449,-3.5879,-3.5976,-3.6016,-3.6016,-3.6133,-3.6113,-3.6035,-3.623,-3.668,-3.7305,-3.7402,-3.7695,-3.8105,-3.8437,-3.8359,-3.8249,-3.9963,-4.0921,-4.1749,-3.3418,-3.3105,-3.2715,-3.2285,-3.1855,-3.1426,-3.0996,-3.0918,-3.0898,-3.0898,-3.0898,-3.0898,-3.0898,-3.0898,-3.0898,-3.0898,-3.0898,-3.0898,-3.0898,-3.0898,-3.0898,-3.0898,-3.0898,-3.0898,-3.0898,-3.0898,-3.0898,-3.0898,-3.0898,-3.0898,-3.0898,-3.0898,-3.0898,-3.0898,-3.0898,-3.0898,-3.0898,-3.0898,-3.0898,-3.0898,-3.0898,-3.0898,-3.0898,-3.0898,-3.0898,-3.0898,-3.0898,-3.0898,-3.0898,-3.0898,-3.0898,-3.0898,-3.0898,-3.0898,-3.0898,-3.0898,-3.0898,-3.1074,-3.1934,-3.2734,-3.334,-3.3398,-3.3418,-3.3418,-3.3418,-3.3418,-3.3418,-3.3418,-3.3418,-3.3418,-3.3418,-3.3105,-3.2832,-3.2793,-3.2109,-3.1562,-3.1523,-3.1523,-3.1523,-3.1523,-3.2266,-3.2637,-3.2246,-3.2559,-3.2793,-3.2793,-3.2773,-3.293,-3.3359,-3.3379,-3.3379,-3.3418,-3.3457,-3.3691,-3.416,-3.4551,-3.498,-3.5449,-3.584,-3.6016,-3.6035,-3.6445,-3.6406,-3.6074,-3.6855,-3.7246,-3.7324,-3.7715,-3.8125,-3.8535,-3.8555,-3.8555,-3.8535,-3.87,-3.9818,-4.1326,-3.3476,-3.3086,-3.2656,-3.2246,-3.1816,-3.1367,-3.0957,-3.0898,-3.0898,-3.0898,-3.0898,-3.0898,-3.0898,-3.0898,-3.0898,-3.0898,-3.0898,-3.0898,-3.0898,-3.0898,-3.0898,-3.0898,-3.0898,-3.0898,-3.0898,-3.0898,-3.0898,-3.0898,-3.0898,-3.0898,-3.0898,-3.0898,-3.0898,-3.0898,-3.0898,-3.0898,-3.0898,-3.0898,-3.0898,-3.0898,-3.0898,-3.0898,-3.0898,-3.0898,-3.0898,-3.0898,-3.0898,-3.0898,-3.0898,-3.0898,-3.0898,-3.0898,-3.0898,-3.1074,-3.1269,-3.1269,-3.1465,-3.1758,-3.209,-3.2402,-3.2773,-3.3301,-3.3418,-3.3418,-3.3418,-3.3418,-3.3418,-3.3418,-3.3418,-3.3418,-3.3418,-3.3301,-3.3184,-3.3184,-3.2695,-3.2305,-3.2305,-3.2305,-3.2305,-3.2305,-3.2832,-3.3125,-3.2969,-3.3086,-3.3184,-3.3184,-3.3184,-3.3242,-3.3418,-3.3418,-3.3418,-3.3418,-3.3418,-3.375,-3.4453,-3.4609,-3.5059,-3.5781,-3.5937,-3.6016,-3.6035,-3.6191,-3.6172,-3.6035,-3.6367,-3.6797,-3.7285,-3.7187,-3.7559,-3.8164,-3.8164,-3.8164,-3.8203,-3.8476,-3.8991,-3.9818,-3.3476,-3.3086,-3.2656,-3.2246,-3.1816,-3.1367,-3.0957,-3.0898,-3.0898,-3.0898,-3.0898,-3.0898,-3.0898,-3.0898,-3.0898,-3.0898,-3.0898,-3.0898,-3.0898,-3.0898,-3.0898,-3.0898,-3.0898,-3.0898,-3.0898,-3.0898,-3.0898,-3.0898,-3.0898,-3.0898,-3.0898,-3.0898,-3.0898,-3.0898,-3.0898,-3.0898,-3.0898,-3.0898,-3.0898,-3.0898,-3.0898,-3.0898,-3.0898,-3.0898,-3.0898,-3.0898,-3.0898,-3.0898,-3.0898,-3.0898,-3.0898,-3.0918,-3.1055,-3.1289,-3.1484,-3.1367,-3.1621,-3.1992,-3.2129,-3.2266,-3.2539,-3.3242,-3.3418,-3.3418,-3.3418,-3.3418,-3.3418,-3.3418,-3.3418,-3.3418,-3.3418,-3.3418,-3.3379,-3.3242,-3.2988,-3.2754,-3.2617,-3.2715,-3.2793,-3.2793,-3.3164,-3.3418,-3.3418,-3.3418,-3.3418,-3.3418,-3.3418,-3.3418,-3.3418,-3.3418,-3.3418,-3.3418,-3.3418,-3.3769,-3.4492,-3.4629,-3.5137,-3.6016,-3.6016,-3.6016,-3.6016,-3.6016,-3.6016,-3.6035,-3.6172,-3.6562,-3.709,-3.6934,-3.7207,-3.7734,-3.7871,-3.793,-3.7969,-3.8418,-3.8574,-3.872,-3.3418,-3.3086,-3.2656,-3.2246,-3.1816,-3.1367,-3.0957,-3.0898,-3.0898,-3.0898,-3.0898,-3.0898,-3.0898,-3.0898,-3.0898,-3.0898,-3.0898,-3.0898,-3.0898,-3.0898,-3.0898,-3.0898,-3.0898,-3.0898,-3.0898,-3.0898,-3.0898,-3.0898,-3.0898,-3.0898,-3.0898,-3.0898,-3.0898,-3.0898,-3.0898,-3.0898,-3.0898,-3.0898,-3.0898,-3.0898,-3.0898,-3.0898,-3.0898,-3.0898,-3.0898,-3.0898,-3.0898,-3.0898,-3.0898,-3.0898,-3.0898,-3.0957,-3.1387,-3.1523,-3.1426,-3.1016,-3.1191,-3.1621,-3.2051,-3.248,-3.2891,-3.332,-3.3418,-3.3418,-3.3418,-3.3418,-3.3418,-3.3418,-3.3418,-3.3418,-3.3418,-3.3418,-3.3281,-3.2871,-3.2793,-3.2656,-3.2246,-3.2539,-3.2793,-3.2793,-3.3164,-3.3418,-3.3418,-3.3418,-3.3418,-3.3418,-3.3418,-3.3418,-3.3418,-3.3418,-3.3418,-3.3418,-3.3418,-3.3633,-3.4062,-3.4492,-3.5137,-3.6016,-3.6016,-3.6016,-3.6016,-3.6016,-3.6016,-3.6035,-3.6484,-3.666,-3.6699,-3.7109,-3.7285,-3.7344,-3.7754,-3.791,-3.7969,-3.8418,-3.8574,-3.8574,-3.3476,-3.3086,-3.2656,-3.2246,-3.1816,-3.1367,-3.0957,-3.0898,-3.0898,-3.0898,-3.0898,-3.0898,-3.0898,-3.0898,-3.0898,-3.0898,-3.0898,-3.0898,-3.0898,-3.0898,-3.0898,-3.0898,-3.0898,-3.0898,-3.0898,-3.0898,-3.0898,-3.0898,-3.0898,-3.0898,-3.0898,-3.0898,-3.0898,-3.0898,-3.0898,-3.0898,-3.0898,-3.0898,-3.0898,-3.0898,-3.0898,-3.0898,-3.0898,-3.0898,-3.0898,-3.0898,-3.0898,-3.0898,-3.0898,-3.0898,-3.0898,-3.0957,-3.1387,-3.1309,-3.1172,-3.1641,-3.1875,-3.207,-3.25,-3.291,-3.3262,-3.3398,-3.3418,-3.3418,-3.3418,-3.3418,-3.3418,-3.3418,-3.3418,-3.3418,-3.3418,-3.3418,-3.3379,-3.3262,-3.3242,-3.3184,-3.3066,-3.3164,-3.3242,-3.3242,-3.334,-3.3418,-3.3418,-3.3418,-3.3418,-3.3418,-3.3418,-3.3418,-3.3418,-3.3418,-3.3418,-3.3418,-3.3418,-3.3633,-3.4062,-3.4492,-3.5,-3.5586,-3.5879,-3.6016,-3.6016,-3.6016,-3.6016,-3.6035,-3.6152,-3.6387,-3.666,-3.6484,-3.6758,-3.7305,-3.7441,-3.7656,-3.7969,-3.8418,-3.8574,-3.8574,-3.3476,-3.3086,-3.2715,-3.2461,-3.1914,-3.1426,-3.1172,-3.0996,-3.0898,-3.0898,-3.0898,-3.0898,-3.0898,-3.0898,-3.0898,-3.0898,-3.0898,-3.0898,-3.0898,-3.0898,-3.0898,-3.0898,-3.0898,-3.0898,-3.0898,-3.0898,-3.0898,-3.0898,-3.0898,-3.0898,-3.0898,-3.0898,-3.0898,-3.0898,-3.0898,-3.0898,-3.0898,-3.0898,-3.0898,-3.0898,-3.0898,-3.0898,-3.0898,-3.0898,-3.0898,-3.0898,-3.0898,-3.0898,-3.0898,-3.0898,-3.0996,-3.1152,-3.125,-3.1211,-3.125,-3.1758,-3.2031,-3.2266,-3.2676,-3.3105,-3.3418,-3.3418,-3.3418,-3.3418,-3.3418,-3.3418,-3.3418,-3.3418,-3.3418,-3.3418,-3.3418,-3.3418,-3.3418,-3.3418,-3.3418,-3.3418,-3.3418,-3.3418,-3.3418,-3.3418,-3.3418,-3.3418,-3.3418,-3.3418,-3.3418,-3.3418,-3.3418,-3.3418,-3.3418,-3.3418,-3.3418,-3.3418,-3.3418,-3.3555,-3.3809,-3.4238,-3.4766,-3.5391,-3.5644,-3.5859,-3.6016,-3.6016,-3.6016,-3.6016,-3.6016,-3.6172,-3.6406,-3.6309,-3.6484,-3.6836,-3.7344,-3.7598,-3.7754,-3.8359,-3.8574,-3.8574,-3.3418,-3.3105,-3.2832,-3.2793,-3.2148,-3.1601,-3.1523,-3.1191,-3.0937,-3.0898,-3.0898,-3.0898,-3.0898,-3.0898,-3.0898,-3.0898,-3.0898,-3.0898,-3.0898,-3.0898,-3.0898,-3.0898,-3.0898,-3.0898,-3.0898,-3.0898,-3.0898,-3.0898,-3.0898,-3.0898,-3.0898,-3.0898,-3.0898,-3.0898,-3.0898,-3.0898,-3.0898,-3.0898,-3.0898,-3.0898,-3.0898,-3.0898,-3.0898,-3.0898,-3.0898,-3.0898,-3.0898,-3.0898,-3.0898,-3.0898,-3.1152,-3.1387,-3.1016,-3.1191,-3.1523,-3.1562,-3.1875,-3.2324,-3.2734,-3.3125,-3.3418,-3.3418,-3.3418,-3.3418,-3.3418,-3.3418,-3.3418,-3.3418,-3.3418,-3.3418,-3.3418,-3.3418,-3.3418,-3.3418,-3.3418,-3.3418,-3.3418,-3.3418,-3.3418,-3.3418,-3.3418,-3.3418,-3.3418,-3.3418,-3.3418,-3.3418,-3.3418,-3.3418,-3.3418,-3.3418,-3.3418,-3.3418,-3.3418,-3.3418,-3.3418,-3.3848,-3.4492,-3.5332,-3.5371,-3.5605,-3.6016,-3.6016,-3.6016,-3.6016,-3.6016,-3.6016,-3.6055,-3.6445,-3.6387,-3.6133,-3.7383,-3.7637,-3.7402,-3.8262,-3.8574,-3.8574,-3.3418,-3.334,-3.3184,-3.2851,-3.2637,-3.2285,-3.1621,-3.1445,-3.1269,-3.0937,-3.0898,-3.0898,-3.0898,-3.0898,-3.0898,-3.0898,-3.0898,-3.0898,-3.0898,-3.0898,-3.0898,-3.0898,-3.0898,-3.0898,-3.0898,-3.0898,-3.0898,-3.0898,-3.0898,-3.0898,-3.0898,-3.0898,-3.0898,-3.0898,-3.0898,-3.0898,-3.0898,-3.0898,-3.0898,-3.0898,-3.0898,-3.0898,-3.0898,-3.0898,-3.0898,-3.0898,-3.0898,-3.0898,-3.0898,-3.0898,-3.0957,-3.1016,-3.0918,-3.1191,-3.1582,-3.1934,-3.2324,-3.2754,-3.3164,-3.3359,-3.3418,-3.3418,-3.3418,-3.3418,-3.3418,-3.3418,-3.3418,-3.3418,-3.3418,-3.3418,-3.3418,-3.3418,-3.3418,-3.3418,-3.3418,-3.3418,-3.3418,-3.3418,-3.3418,-3.3418,-3.3418,-3.3418,-3.3418,-3.3418,-3.3418,-3.3418,-3.3418,-3.3418,-3.3418,-3.3418,-3.3418,-3.3418,-3.3418,-3.3418,-3.3418,-3.3848,-3.4336,-3.4863,-3.5215,-3.5605,-3.6016,-3.6016,-3.6016,-3.6016,-3.6016,-3.6016,-3.6035,-3.6113,-3.6094,-3.6113,-3.707,-3.7383,-3.7402,-3.8262,-3.8574,-3.8574,-3.3457,-3.3418,-3.3359,-3.3125,-3.2754,-3.2344,-3.1894,-3.1484,-3.1133,-3.0918,-3.0898,-3.0898,-3.0898,-3.0898,-3.0898,-3.0898,-3.0898,-3.0898,-3.0898,-3.0898,-3.0898,-3.0898,-3.0898,-3.0898,-3.0898,-3.0898,-3.0898,-3.0898,-3.0898,-3.0898,-3.0898,-3.0898,-3.0898,-3.0898,-3.0898,-3.0898,-3.0898,-3.0898,-3.0898,-3.0898,-3.0898,-3.0898,-3.0898,-3.0898,-3.0898,-3.0898,-3.0898,-3.0898,-3.0898,-3.0898,-3.0898,-3.0898,-3.0898,-3.1191,-3.1601,-3.2031,-3.2461,-3.2891,-3.3301,-3.3418,-3.3418,-3.3418,-3.3418,-3.3418,-3.3418,-3.3418,-3.3418,-3.3418,-3.3594,-3.3672,-3.3457,-3.3594,-3.373,-3.373,-3.3555,-3.3496,-3.3711,-3.3555,-3.3496,-3.3711,-3.3555,-3.3496,-3.3711,-3.373,-3.373,-3.373,-3.373,-3.3633,-3.3437,-3.3418,-3.3418,-3.3418,-3.3633,-3.373,-3.373,-3.416,-3.459,-3.5039,-3.5273,-3.5605,-3.6016,-3.6016,-3.6016,-3.6016,-3.6016,-3.6016,-3.6035,-3.625,-3.6211,-3.6133,-3.7187,-3.748,-3.7402,-3.8262,-3.8574,-3.8574,-3.3496,-3.3418,-3.3418,-3.3418,-3.2851,-3.2344,-3.2187,-3.1562,-3.1055,-3.0918,-3.0898,-3.0898,-3.0898,-3.0898,-3.0898,-3.0898,-3.0898,-3.0898,-3.0898,-3.0898,-3.0898,-3.0898,-3.0898,-3.0898,-3.0898,-3.0898,-3.0898,-3.0898,-3.0898,-3.0898,-3.0898,-3.0898,-3.0898,-3.0898,-3.0898,-3.0898,-3.0898,-3.0898,-3.0898,-3.0898,-3.0898,-3.0898,-3.0898,-3.0898,-3.0898,-3.0898,-3.0898,-3.0898,-3.0898,-3.0898,-3.0898,-3.0898,-3.0976,-3.1289,-3.1719,-3.2148,-3.2578,-3.2988,-3.332,-3.3418,-3.3418,-3.3418,-3.3418,-3.3418,-3.3418,-3.3418,-3.3437,-3.3516,-3.3828,-3.3965,-3.3594,-3.3887,-3.4141,-3.3984,-3.3711,-3.3633,-3.3926,-3.3711,-3.3672,-3.4023,-3.3809,-3.3789,-3.4141,-3.418,-3.416,-3.4082,-3.4082,-3.3887,-3.3437,-3.3418,-3.3418,-3.3418,-3.3848,-3.4082,-3.4082,-3.457,-3.5019,-3.5391,-3.5469,-3.5684,-3.6016,-3.6016,-3.6016,-3.6016,-3.6016,-3.6016,-3.6055,-3.6406,-3.6348,-3.6133,-3.7344,-3.7598,-3.7402,-3.8262,-3.8574,-3.8574,-3.3496,-3.3418,-3.3418,-3.3418,-3.332,-3.3008,-3.2285,-3.207,-3.1719,-3.0996,-3.0898,-3.0898,-3.0898,-3.0898,-3.0898,-3.0898,-3.0898,-3.0898,-3.0898,-3.0898,-3.0898,-3.0898,-3.0898,-3.0898,-3.0898,-3.0898,-3.0898,-3.0898,-3.0898,-3.0898,-3.0898,-3.0898,-3.0898,-3.0898,-3.0898,-3.0898,-3.0898,-3.0898,-3.0898,-3.0898,-3.0898,-3.0898,-3.0898,-3.0898,-3.0898,-3.0898,-3.0898,-3.0898,-3.0898,-3.0898,-3.0898,-3.0957,-3.1328,-3.1738,-3.2168,-3.2578,-3.3008,-3.334,-3.3398,-3.3418,-3.3418,-3.3418,-3.3418,-3.3418,-3.3418,-3.3418,-3.3535,-3.3906,-3.4023,-3.4062,-3.4004,-3.4336,-3.4375,-3.3633,-3.3769,-3.3867,-3.3555,-3.3789,-3.4004,-3.4062,-3.4336,-3.4551,-3.4609,-3.4609,-3.4473,-3.4101,-3.4082,-3.3887,-3.3437,-3.3418,-3.3418,-3.3418,-3.3848,-3.4082,-3.4082,-3.4883,-3.5332,-3.5391,-3.5762,-3.5957,-3.6016,-3.6016,-3.6016,-3.6016,-3.6016,-3.6016,-3.6016,-3.6094,-3.6074,-3.6113,-3.7031,-3.7344,-3.7402,-3.8262,-3.8574,-3.8574,-3.3828,-3.3594,-3.3418,-3.3418,-3.3223,-3.2871,-3.2266,-3.1953,-3.1582,-3.0976,-3.0898,-3.0898,-3.0898,-3.0898,-3.0898,-3.0898,-3.0898,-3.0898,-3.0898,-3.0898,-3.0898,-3.0898,-3.0898,-3.0898,-3.0898,-3.0898,-3.0898,-3.0898,-3.0898,-3.0898,-3.0898,-3.0898,-3.0898,-3.0898,-3.0898,-3.0898,-3.0898,-3.0898,-3.0898,-3.0898,-3.0898,-3.0898,-3.0898,-3.0898,-3.0898,-3.0898,-3.0898,-3.0898,-3.0918,-3.1172,-3.125,-3.1309,-3.1738,-3.2168,-3.2559,-3.2734,-3.3086,-3.3418,-3.3418,-3.3418,-3.3418,-3.3418,-3.3613,-3.3789,-3.3789,-3.3965,-3.4121,-3.4082,-3.4258,-3.4414,-3.4414,-3.4785,-3.4961,-3.459,-3.4277,-3.418,-3.4473,-3.4258,-3.416,-3.4394,-3.4375,-3.4551,-3.5039,-3.4648,-3.4375,-3.4414,-3.4199,-3.3984,-3.3789,-3.3789,-3.3887,-3.4121,-3.457,-3.4805,-3.4805,-3.543,-3.5742,-3.5742,-3.5937,-3.6016,-3.6016,-3.6016,-3.6016,-3.6016,-3.6016,-3.6016,-3.6016,-3.6016,-3.6016,-3.6074,-3.6699,-3.7226,-3.7695,-3.8066,-3.8359,-3.8574]}]]